[[{"header":{"parameterUnit":"m.s-1","parameterCategory":1,"la1":30.6,"la2":29.2853,"lo1":-89.7004,"lo2":-87.6739,"dx":0.0162,"dy":0.0183,"nx":112,"ny":82,"refTime":"2022-11-11T06:00:00:Z","depth":0,"parameterNumber":2,"parameterNumberName":"U-component_of_WINDS"},"data":[0.0,0.0,0.0,0.0,0.0,0.0,0.0,0.0,0.0,0.0,0.0,0.0,0.0,0.0,0.0,0.0,0.0,0.0,0.0,0.0,0.0,0.0,0.0,0.0,0.0,0.0,0.0,0.0,0.0,0.0,0.0,0.0,0.0,0.0,0.0,0.0,0.0,0.0,0.0,0.0,0.0,0.0,0.0,0.0,0.0,0.0,0.0,0.0,0.0,0.0,0.0,0.0,0.0,0.0,0.0,0.0,0.0,0.0,0.0,0.0,0.0,0.0,0.0,0.0,0.0,0.0,0.0,0.0,0.0,0.0,0.0,0.0,0.0,0.0,0.0,0.0,0.0,0.0,0.0,0.0,0.0,0.0,0.0,0.0,0.0,0.0,0.0,0.0,0.0,0.0,0.0,0.8865,0.8923,0.8935,0.8747,0.8419,0.5877,0.0323,0.0,0.0,0.0,0.0,0.0,0.0,0.0,0.0,0.0,0.0,0.0,0.0,0.0,0.0,0.0,0.0,0.0,0.0,0.0,0.0,0.0,0.0,0.0,0.0,0.0,0.0,0.0,0.0,0.0,0.0,0.0,0.0,0.0,0.0,0.0,0.0,0.0,0.0,0.0,0.0,0.0,0.0,0.0,0.0,0.0,0.0,0.0,0.0,0.0,0.0,0.0,0.0,0.0,0.0,0.0,0.0,0.0,0.0,0.0,0.0,0.0,0.0,0.0,0.0,0.0,0.0,0.0,0.0,0.0,0.0,0.0,0.0,0.0,0.0,0.0,0.0,0.0,0.0,0.0,0.0,0.0,0.0,0.0,0.0,0.0,0.0,0.0,0.0,0.0,0.0,0.0,0.0,0.0,0.0,0.0,0.0,0.0,0.0,0.0,0.0,0.0,0.0,0.0,0.0,0.8849,0.9154,0.9245,0.8353,0.5741,0.551,0.3966,0.0219,0.0,0.0,0.0,0.0,0.0,0.0,0.0,0.0,0.0,0.0,0.0,0.0,0.0,0.0,0.0,0.0,0.0,0.0,0.0,0.0,0.0,0.0,0.0,0.0,0.0,0.0,0.0,0.0,0.0,0.0,0.0,0.0,0.0,0.0,0.0,0.0,0.0,0.0,0.0,0.0,0.0,0.0,0.0,0.0,0.0,0.0,0.0,0.0,0.0,0.0,0.0,0.0,0.0,0.0,0.0,0.0,0.0,0.0,0.0,0.0,0.0,0.0,0.0,0.0,0.0,0.0,0.0,0.0,0.0,0.0,0.0,0.0,0.0,0.0,0.0,0.0,0.0,0.0,0.0,0.0,0.0,0.0,0.0,0.0,0.0,0.0,0.0,0.0,0.0,0.0,0.0,0.0,0.0,0.0,0.0,0.0,0.0,0.0,0.0,0.0,0.0,0.0,0.0,0.8554,0.8899,0.9354,0.9352,0.8866,0.768,0.5973,0.3549,0.022,-0.0,0.0,0.0,0.0,0.0,0.0,0.0,0.0,0.0,0.0,0.0,0.0,0.0,0.0,0.0,0.0,0.0,0.0,0.0,0.0,0.0,0.0,0.0,0.0,0.0,0.0,0.0,0.0,0.0,0.0,0.0,0.0,0.0,0.0,0.0,0.0,0.0,0.0,0.0,0.0,0.0,0.0,0.0,0.0,0.0,0.0,0.0,0.0,0.0,0.0,0.0,0.0,0.0,0.0,0.0,0.0,0.0,0.0,0.0,0.0,0.0,0.0,0.0,0.0,0.0,0.0,0.0,0.0,0.0,0.0,0.0,0.0,0.0,0.0,0.0,0.0,0.0,0.0,0.0,0.0,0.0,0.0,0.0,0.0,0.0,0.0,0.0,0.0,0.0,0.0,0.0,0.0,0.0,0.0,0.0,0.0,0.0,0.0,0.0,0.0,0.0,0.0,0.0,0.8886,0.9178,0.9517,0.9361,0.9447,0.9714,0.6729,0.3549,0.022,-0.0,0.0,0.0,0.0,0.0,0.0,0.0,0.0,0.0,0.0,0.0,0.0,0.0,0.0,0.0,0.0,0.0,0.0,0.0,0.0,0.0,0.0,0.0,0.0,0.0,0.0,0.0,0.0,0.0,0.0,0.0,0.0,0.0,0.0,0.0,0.0,0.0,0.0,0.0,0.0,0.0,0.0,0.0,0.0,0.0,0.0,0.0,0.0,0.0,0.0,0.0,0.0,0.0,0.0,0.0,0.0,0.0,0.0,0.0,0.0,0.0,0.0,0.0,0.0,0.0,0.0,0.0,0.0,0.0,0.0,0.0,0.0,0.0,0.0,0.0,0.0,0.0,0.0,0.0,0.0,0.0,0.0,0.0,0.0,0.0,0.0,0.0,0.0,0.0,0.0,0.0,0.0,0.0,0.0,0.0,0.0,0.0,0.0,0.0,0.0,0.0,0.0,0.0,0.8994,0.9361,0.9395,0.9523,0.9513,0.9447,0.666,0.3459,0.022,-0.0,0.0,0.0,0.0,0.0,0.0,0.0,0.0,0.0,0.0,0.0,0.0,0.0,0.0,0.0,0.0,0.0,0.0,0.0,0.0,0.0,0.0,0.0,0.0,0.0,0.0,0.0,0.0,0.0,0.0,0.0,0.0,0.0,0.0,0.0,0.0,0.0,0.0,0.0,0.0,0.0,0.0,0.0,0.0,0.0,0.0,0.0,0.0,0.0,0.0,0.0,0.0,0.0,0.0,0.0,0.0,0.0,0.0,0.0,0.0,0.0,0.0,0.0,0.0,0.0,0.0,0.0,0.0,0.0,0.0,0.0,0.0,0.0,0.0,0.0,0.0,0.0,0.0,0.0,0.0,0.0,0.0,0.0,0.0,0.0,0.0,0.0,0.0,0.0,0.0,0.0,0.0,0.0,0.0,0.0,0.0,0.0,0.0,0.0,0.0,0.0,0.0,0.0,0.9069,0.9449,0.0,0.9707,0.9761,0.9694,0.6682,0.3538,0.0223,0.0,0.0,0.0,0.0,0.0,0.0,0.0,0.0,0.0,0.0,0.0,0.0,0.0,0.0,0.0,0.0,0.0,0.0,0.0,0.0,0.0,0.0,0.0,0.0,0.0,0.0,0.0,0.0,0.0,0.0,0.0,0.0,0.0,0.0,0.0,0.0,0.0,0.0,0.0,0.0,0.0,0.0,0.0,0.0,0.0,0.0,0.0,0.0,0.0,0.0,0.0,0.0,0.0,0.0,0.0,0.0,0.0,0.0,0.0,0.0,0.0,0.0,0.0,0.0,0.0,0.0,0.0,0.0,0.0,0.0,0.0,0.0,0.0,0.0,0.0,0.0,0.0,0.0,0.0,0.0,0.0,0.0,0.0,0.0,0.0,0.0,0.0,0.0,0.0,0.0,0.0,0.0,0.0,0.0,0.0,0.0,0.0,0.0,0.0,0.0,0.0,0.0,0.8594,0.9117,0.9551,0.0,0.9829,0.9849,0.9781,0.7707,0.3914,-0.2138,0.0,0.0,0.0,0.0,0.0,0.0,0.0,0.0,0.0,0.0,0.0,0.0,0.0,0.0,0.0,0.0,0.0,0.0,0.0,0.0,0.0,0.0,0.0,0.0,0.0,0.0,0.0,0.0,0.0,0.0,0.0,0.0,0.0,0.0,0.0,0.0,0.0,0.0,0.0,0.0,0.0,0.0,0.0,0.0,0.0,0.0,0.0,0.0,0.0,0.0,0.0,0.0,0.0,0.0,0.0,0.0,0.0,0.0,0.0,0.0,0.0,0.0,0.0,0.0,0.0,0.0,0.0,0.0,0.0,0.0,0.0,0.0,0.0,0.0,0.0,0.0,0.0,0.0,0.0,0.0,0.0,0.0,0.0,0.0,0.0,0.0,0.0,0.0,0.0,0.0,0.0,0.0,0.0,0.0,0.0,0.0,0.0,0.0,0.0,0.0,0.0,0.0,0.8459,0.9144,0.9666,0.9802,0.9842,0.9747,0.9781,0.9779,0.4763,0.0,0.0,0.0,0.0,0.0,0.0,0.0,0.0,0.0,0.0,0.0,0.0,0.0,0.0,0.0,0.0,0.0,0.0,0.0,0.0,0.0,0.0,0.0,0.0,0.0,0.0,0.0,0.0,0.0,0.0,0.0,0.0,0.0,0.0,0.0,0.0,0.0,0.0,0.0,0.0,0.0,0.0,0.0,0.0,0.0,0.0,0.0,0.0,0.0,0.0,0.0,0.0,0.0,0.0,0.0,0.0,0.0,0.0,0.0,0.0,0.0,0.0,0.0,0.0,0.0,0.0,0.0,0.0,0.0,0.0,0.0,0.0,0.0,0.0,0.0,0.0,0.0,0.0,0.0,0.0,0.0,0.0,0.0,0.0,0.0,0.0,0.0,0.0,0.0,0.0,0.0,0.0,0.0,0.0,0.0,0.0,0.0,0.0,0.0,0.0,0.0,0.0,0.0,0.833,0.9083,0.9632,0.9566,0.9761,0.9784,0.983,0.985,0.4767,-0.7252,0.0,0.0,0.0,0.0,0.0,0.0,0.0,0.0,0.0,0.0,0.0,0.0,0.0,0.0,0.0,0.0,0.0,0.0,0.0,0.0,0.0,0.0,0.0,0.0,0.0,0.0,0.0,0.0,0.0,0.0,0.0,0.0,0.0,0.0,0.0,0.0,0.0,0.0,0.0,0.0,0.0,0.0,0.0,0.0,0.0,0.0,0.0,0.0,0.0,0.0,0.0,0.0,0.0,0.0,0.0,0.0,0.0,0.0,0.0,0.0,0.0,0.0,0.0,0.0,0.0,0.0,0.0,0.0,0.0,0.0,0.0,0.0,0.0,0.0,0.0,0.0,0.0,0.0,0.0,0.0,0.0,0.0,0.0,0.0,0.0,0.0,0.0,0.0,0.0,0.0,0.0,0.0,0.0,0.0,0.0,0.0,0.0,0.0,0.0,0.0,0.0,0.0,0.852,0.9111,0.964,0.9774,0.983,0.9829,0.9862,0.734,0.2768,-0.4394,0.0,0.0,0.0,0.0,0.0,0.0,0.0,0.0,0.0,0.0,0.0,0.0,0.0,0.0,0.0,0.0,0.0,0.0,0.0,0.0,0.0,0.0,0.0,0.0,0.0,0.0,0.0,0.0,0.0,0.0,0.0,0.0,0.0,0.0,0.0,0.0,0.0,0.0,0.0,0.0,0.0,0.0,0.0,0.0,0.0,0.0,0.0,0.0,0.0,0.0,0.0,0.0,0.0,0.0,0.0,0.0,0.0,0.0,0.0,0.0,0.0,0.0,0.0,0.0,0.0,0.0,0.0,0.0,0.0,0.0,0.0,0.0,0.0,0.0,0.0,0.0,0.0,0.0,0.0,0.0,0.0,0.0,0.0,0.0,0.0,0.0,0.0,0.0,0.0,0.0,0.0,0.0,0.0,0.0,0.0,0.0,0.0,0.0,0.0,0.0,0.0,0.0,0.8776,0.9235,0.9594,1.0009,0.9838,0.9619,0.8969,0.3377,-0.0128,-0.0496,0.0,0.0,0.0,0.0,0.0,0.0,0.0,0.0,0.0,0.0,0.0,0.0,0.0,0.0,0.0,0.0,0.0,0.0,0.0,0.0,0.0,0.0,0.0,0.0,0.0,0.0,0.0,0.0,0.0,0.0,0.0,0.0,0.0,0.0,0.0,0.0,0.0,0.0,0.0,0.0,0.0,0.0,0.0,0.0,0.0,0.0,0.0,0.0,0.0,0.0,0.0,0.0,0.0,0.0,0.0,0.0,0.0,0.0,0.0,0.0,0.6032,0.0,0.0,0.0,0.0,0.0,0.0,0.0,0.0,0.0,0.0,0.0,0.0,0.0,0.0,0.0,0.0,0.0,0.0,0.0,0.0,0.0,0.0,0.0,0.0,0.0,0.0,0.0,0.0,0.0,0.0,0.0,0.0,0.0,0.0,0.0,0.0,0.0,0.0,0.0,0.0,0.0,0.8234,0.9231,0.9592,0.9136,0.9497,0.7666,0.2532,0.0817,-0.1354,-0.4415,-0.5653,0.0,0.0,0.0,0.0,0.0,0.0,0.0,0.0,0.0,0.0,0.0,0.0,0.0,0.0,0.0,0.0,0.0,0.0,0.0,0.0,0.0,0.0,0.0,0.0,0.0,0.0,0.0,0.0,0.0,0.0,0.0,0.0,0.0,0.0,0.0,0.0,0.0,0.0,0.0,0.0,0.0,0.0,0.0,0.0,0.0,0.0,0.0,0.0,0.0,0.0,0.0,0.0,0.0,0.0,0.0,0.0,0.0,0.0,0.0,0.0,0.1031,0.0,0.0,0.0,0.0,0.0,0.0,0.0,0.0,0.0,0.0,0.0,0.0,0.0,0.0,0.0,0.0,0.0,0.0,0.0,0.0,0.0,0.0,0.0,0.0,0.0,0.0,0.0,0.0,0.0,0.0,0.0,0.0,0.0,0.0,0.0,0.0,0.0,0.0,0.0,0.0,0.1722,0.3656,0.4849,0.4571,0.307,0.068,-0.2762,-0.2959,-0.3951,-0.5939,-0.7453,0.0,0.0,0.0,0.0,0.0,0.0,0.0,0.0,0.0,0.0,0.0,0.0,0.0,0.0,0.0,0.0,0.0,0.0,0.0,0.0,0.0,0.0,0.0,0.0,0.0,0.0,0.0,0.0,0.0,0.0,0.0,0.0,0.0,0.0,0.0,0.0,0.0,0.0,0.0,0.0,0.0,0.0,0.0,0.0,0.0,0.0,0.0,0.0,0.0,0.0,0.0,0.0,0.0,-0.1275,-0.4421,-0.8934,-0.714,-0.7606,-0.9738,-0.7365,-0.5058,-0.2819,0.0,0.0,0.0,0.0,0.0,0.0,0.0,0.0,0.0,0.0,0.0,0.0,0.0,0.0,0.0,0.0,0.0,0.0,0.0,0.0,0.0,0.0,0.0,0.0,0.0,0.2501,-0.036,0.0,0.0,0.0,0.0,0.0,0.0,0.0,0.0,0.0,0.0,0.0,0.0,-0.6354,-0.4044,-0.2296,-0.2333,-0.5295,-0.7358,-0.7313,-0.7404,-0.731,-0.7306,-0.9801,-1.1158,0.0,0.0,0.0,0.0,0.0,0.0,0.0,0.0,0.0,0.0,0.0,0.0,0.0,0.0,0.0,0.0,0.0,0.0,0.0,0.0,0.0,0.0,0.0,0.0,0.0,0.0,0.0,0.0,0.0,0.0,0.0,0.0,0.6817,0.6986,0.0,0.0,0.0,0.0,0.0,0.0,0.0,0.0,0.0,0.0,0.0,0.0,0.0,0.5069,0.0513,0.0745,0.0327,-0.0884,-0.6508,-0.8141,-0.6043,-0.8759,-1.0445,-1.1352,-1.2314,0.0,-1.0539,-0.9045,0.0,0.0,0.0,0.0,0.0,0.0,0.0,0.0,0.0,0.0,0.0,0.0,0.0,0.0,0.0,0.0,0.0,0.0,0.0,0.0,0.0,0.0,-0.0895,-0.013,-0.066,-0.2805,0.0,-0.6629,-0.4499,-0.5868,-0.7735,0.0,0.0,0.0,0.0,0.0,0.0,0.0,-1.0812,-1.0633,-1.0138,-1.0096,-1.0881,-1.1398,-1.1697,-1.1696,-1.1612,-1.1431,-1.1831,-1.183,-1.1545,-1.1101,0.0,0.0,0.0,0.0,0.0,0.0,0.0,0.0,0.0,0.0,0.0,0.0,0.0,0.0,0.0,0.0,0.0,0.0,0.0,0.0,0.0,0.0,0.0,0.0,0.0,0.0,0.0,0.0,0.0,0.5394,0.7105,0.7066,0.7204,0.6529,0.0,0.0,0.0,0.0,0.0,0.0,0.0,0.0,0.0,0.0604,-0.0411,-0.0735,-0.0323,-0.2124,-0.3224,-0.3533,-0.8187,-0.9837,-0.8542,-1.0333,-1.1142,-1.1558,-1.2321,-1.2301,-1.1829,-1.1926,-1.1456,-1.0582,0.0,0.0,0.0,0.0,-1.0195,-1.0161,-1.0541,-0.999,0.0,-1.0509,0.0,0.0,0.0,0.0,0.0,0.0,0.0,0.0,0.0,0.0,-0.7368,-0.7771,-0.7727,-0.8361,-1.166,-1.0809,-0.9227,0.0,-0.9538,-1.0148,-0.9506,0.0,0.0,0.0,0.0,-0.9802,-1.1781,-1.1875,-1.1804,-1.1877,-1.2196,-1.2402,-1.2804,-1.28,-1.2876,-1.2705,-1.263,-1.2522,-1.2379,-1.1999,-1.1558,0.0,0.0,0.0,0.0,0.0,0.0,0.0,0.0,0.0,0.0,0.0,0.0,0.0,0.0,0.0,0.0,0.0,0.0,0.0,0.0,0.0,0.0,0.0,0.0,0.0,0.0,0.0,0.0,0.3019,0.5742,0.6949,0.7131,0.7171,0.0,0.0,0.0,0.0,0.0,0.0,-0.7896,-0.4409,-0.2893,-0.4501,-0.7124,-0.6633,-0.3042,-0.5393,-0.6654,-0.6676,-0.9268,-1.0603,-1.0953,-1.1186,-1.1468,-1.1626,-1.1782,-1.1891,-1.2072,-1.281,-1.2313,-1.1233,-1.1351,-1.1214,-1.0921,-1.1151,-1.1111,-1.1009,-1.1423,-1.1667,-1.1796,-1.1796,0.0,-1.1633,-1.1402,0.0,0.0,0.0,0.0,-1.1328,-1.161,-1.175,-1.2127,-1.2771,-1.2877,-1.2602,-1.2641,-1.2532,-1.2054,0.0,-1.12,-1.1035,-1.0466,0.0,0.0,0.0,0.0,-1.1688,-1.2088,-1.2148,-1.2162,-1.2277,-1.2488,-1.2712,-1.2942,-1.3057,-1.3119,-1.3119,-1.3017,-1.2963,-1.2963,-1.2637,-1.2271,-1.1717,0.0,0.0,0.0,0.0,0.0,0.0,0.0,0.0,0.0,0.0,0.0,0.0,0.0,0.0,0.0,0.0,0.0,0.0,0.0,0.0,0.0,0.0,0.0,0.0,0.0,0.0,0.0,0.0,0.0,0.6551,0.7083,0.0,0.0,0.0,0.0,0.0393,-0.0,-0.2583,-0.8557,-0.8381,-0.6975,-0.4564,-0.7897,-0.9531,-0.9305,-0.9863,-1.0086,-1.0204,-1.0651,-1.0939,-1.0955,-1.1389,-1.183,-1.225,-1.2393,-1.2623,-1.2834,-1.2244,-1.2017,-1.1993,-1.1843,-1.187,-1.1986,-1.1999,-1.2088,-1.2244,-1.2549,-1.2752,-1.2881,-1.2881,-1.2684,-1.2366,-1.1932,-1.1789,0.0,0.0,-1.1789,-1.2074,-1.2379,-1.2569,-1.2712,-1.2874,-1.2915,-1.2915,-1.2908,-1.2915,-1.2732,0.0,-1.1877,-1.1681,-1.1375,0.0,-1.1599,-1.1742,-1.2033,-1.2393,-1.2827,-1.2895,-1.2908,-1.2915,-1.2929,-1.2942,-1.2963,-1.2969,-1.2969,-1.2969,-1.2963,-1.2963,-1.2963,-1.2942,-1.2635,-1.2192,-1.1606,0.0,0.0,0.0,0.0,0.0,0.0,0.0,0.0,0.0,0.0,0.0,0.0,0.0,0.0,0.0,0.0,0.0,0.0,0.0,0.0,0.0,0.0,0.0,0.0,0.0,0.0,0.0,0.0,0.2347,0.5256,0.0,0.713,0.4484,0.2034,0.0104,-0.3601,-0.6711,-0.8784,-0.8769,-0.8393,-0.755,-0.882,-0.9634,-0.9813,-1.0266,-1.0534,-1.063,-1.0987,-1.1145,-1.1389,-1.1742,-1.2094,-1.244,-1.2691,-1.2861,-1.2949,-1.2766,-1.2671,-1.2637,-1.2583,-1.2589,-1.2651,-1.2745,-1.2813,-1.2888,-1.3091,-1.32,-1.3247,-1.3247,-1.3173,-1.3051,-1.2888,-1.284,-1.2847,-1.2901,-1.299,-1.3112,-1.3315,-1.3336,-1.3322,-1.3376,-1.3241,-1.3098,-1.3098,-1.3024,-1.2895,-1.2684,-1.2596,-1.2494,-1.2291,-1.2379,-1.2467,-1.2413,-1.2589,-1.2779,-1.2942,-1.2963,-1.2996,-1.3085,-1.3186,-1.3322,-1.3512,-1.3526,-1.3614,-1.381,-1.3634,-1.358,-1.3702,-1.3526,-1.3342,-1.3003,-0.9966,-0.826,0.0,0.0,0.0,0.0,0.0,0.0,0.0,0.0,0.0,0.0,0.0,0.0,0.0,0.0,0.0,0.0,0.0,0.0,0.0,0.0,0.0,0.0,0.0,0.0,0.0,0.0,-0.0759,-0.2811,-0.0195,0.2073,0.3118,0.123,-0.0419,-0.1394,-0.6132,-0.892,-0.889,-0.893,-0.9103,-0.9171,-0.9469,-0.9741,-0.9971,-1.0419,-1.0717,-1.0873,-1.1124,-1.1396,-1.1701,-1.1952,-1.225,-1.2589,-1.2847,-1.299,-1.3044,-1.3193,-1.3193,-1.3112,-1.3112,-1.3112,-1.3119,-1.3214,-1.3247,-1.3261,-1.3363,-1.3403,-1.3403,-1.3417,-1.3417,-1.3431,-1.3325,-1.3505,-1.3526,-1.3675,-1.3709,-1.3722,-1.3817,-1.3736,-1.3627,-1.3627,-1.3437,-1.3261,-1.3315,-1.322,-1.3152,-1.3254,-1.3105,-1.2895,-1.2691,-1.2739,-1.2739,-1.2535,-1.2637,-1.2732,-1.2732,-1.2908,-1.3071,-1.3159,-1.3397,-1.3627,-1.3824,-1.3654,-1.3736,-1.4197,-1.3633,-1.3552,-1.4089,-1.264,-1.1546,-1.1151,-0.8118,-0.6519,-0.6365,0.0,0.0,0.0,0.0,0.0,0.0,0.0,0.0,0.0,0.0,0.0,0.0,0.0,0.0,0.0,0.0,0.0,0.0,0.0,0.0,0.0,0.0,0.0,-0.1045,-0.0194,-0.2275,-0.8126,-0.8801,-0.7773,-0.488,-0.1942,-0.1417,-0.4252,-0.7238,-0.8903,-0.887,-0.9117,-0.9184,-0.9171,-0.9747,-1.0134,-1.029,-1.0738,-1.1029,-1.1172,-1.1328,-1.1552,-1.1837,-1.1999,-1.2311,-1.2732,-1.2895,-1.3037,-1.318,-1.3329,-1.3397,-1.3397,-1.3397,-1.3403,-1.3403,-1.3403,-1.3403,-1.3403,-1.3403,-1.341,-1.3417,-1.3451,-1.3298,-1.3158,-1.3167,-1.3369,-1.3546,-1.3686,-1.37,-1.3851,-1.3858,-1.3749,-1.3641,-1.3648,-1.3526,-1.3451,-1.3607,-1.3546,-1.3385,-1.3488,-1.3065,-1.2735,-1.2596,-1.2549,-1.2447,-1.2162,-1.2244,0.0,-1.2338,-1.284,-1.3186,-1.3166,-1.3566,-1.3831,-1.3824,-1.3308,-1.3308,-1.4041,-1.3098,-1.3025,-1.4061,-1.0356,-0.7621,-0.6489,-0.6223,-0.6121,-0.6042,0.0,0.0,0.0,0.0,0.0,0.0,0.0,0.0,0.0,0.0,0.0,0.0,0.0,0.0,0.0,0.0,0.0,0.0,0.0,0.0,0.0,0.0,-0.8144,-0.6691,-0.4587,-0.384,-0.5534,-0.7608,-0.856,-0.7816,-0.698,-0.5927,-0.4547,-0.7343,-0.9137,-0.913,-0.9259,-0.9422,-0.9632,-1.0012,-1.0337,-1.0595,-1.1043,-1.1287,-1.1335,-1.1586,-1.1748,-1.1843,-1.221,-1.2447,-1.2576,-1.2847,-1.2983,-1.303,-1.3173,-1.3234,-1.3247,-1.3356,-1.3403,-1.3403,-1.3403,-1.3417,-1.3444,-1.3464,-1.3378,-1.3472,-1.3479,-1.1119,-0.859,-0.8624,-0.8629,-0.9343,-1.2805,-1.3733,-1.3928,-1.4041,-1.4061,-1.4064,-1.382,-1.3653,-1.3343,-1.3488,-1.3495,-1.2619,-0.9348,-0.8573,-0.9511,-1.2539,-1.2869,-1.2501,-1.2426,-1.2278,0.0,-1.247,-1.2602,-1.2707,-1.2936,-1.3478,-1.3661,-1.3072,-1.3392,-1.3376,-1.2979,-1.365,-1.4352,-1.4875,-1.3397,-0.913,-0.2046,-0.1797,-0.1759,0.0,0.0,0.0,0.0,0.0,0.0,0.0,0.0,0.0,0.0,0.0,0.0,0.0,0.0,0.0,0.0,0.0,0.0,0.0,0.0,0.0,0.0,-0.7112,-0.9104,-0.9212,-0.7589,-0.6355,-0.6318,-0.7861,-0.8911,-0.8948,-0.9023,-0.8301,-0.6654,-0.8268,-0.9306,-0.9361,-0.949,-0.97,-1.0005,-1.0304,-1.0609,-1.09,-1.1226,-1.1423,-1.1491,-1.1721,-1.1864,-1.1938,-1.2264,-1.2447,0.0,-1.2759,-1.2868,-1.2874,-1.3024,-1.3085,0.0,0.0,0.0,0.0,0.0,-1.213,-1.0651,-1.0661,-1.0577,-1.0854,-1.2784,-1.1612,-0.8865,-0.5056,-0.3838,-0.4542,-0.7251,-0.9441,-1.1104,-1.1178,-1.1234,-1.1286,-1.0999,-1.0841,-1.0532,-1.0646,-1.2229,-1.2947,-1.0384,-0.8245,0.0,-1.0058,-1.0249,-1.0063,-0.9756,-0.9603,-0.9445,-0.9569,-0.955,-0.9729,-0.9803,-1.1816,-1.2515,-1.0604,-1.0827,0.0,0.0,0.0,-1.1754,-0.8947,-1.2419,0.0,0.0,0.0,0.0,0.0,0.0,0.0,0.0,-0.0,-0.0,0.0,0.0,0.0,0.0,0.0,0.0,0.0,0.0,0.0,0.0,0.0,0.0,0.0,0.0,0.0,0.0,-0.7612,-0.9525,-0.9821,-0.942,-0.9001,-0.8968,-0.8982,-0.9023,-0.9028,-0.9171,-0.9252,-0.9232,-0.9388,-0.9544,-0.968,0.0,0.0,0.0,0.0,-1.0907,-1.1185,-1.1341,-1.1491,-1.1647,-1.1789,-1.1938,-1.2094,-1.2244,-1.2379,-1.2508,-1.2644,-1.2705,-1.2718,-1.2868,-1.2949,-1.299,-1.3275,-1.3072,-1.2778,-1.3177,-1.0867,-0.7344,-0.6318,0.0,0.0,-1.0646,-1.1906,-1.0344,-0.2471,-0.0,-0.0,-0.0,-0.3061,-0.6335,-0.635,-0.6299,-0.6246,-0.6255,-0.6162,-0.5917,-0.5978,-0.9131,-1.1986,-1.258,-0.9108,-0.587,-0.5926,-0.5908,-0.5683,-0.5188,-0.5213,-0.5066,-0.4857,-0.5025,-0.514,-0.512,0.0,0.0,-0.7844,-0.6795,-0.631,-0.6244,-0.8222,-0.6657,-0.035,-0.8237,-1.1624,-0.9584,-0.3186,-0.0,-0.0,-0.0,-0.0,-0.0,-0.0,-0.0,0.0,0.0,0.0,0.0,0.0,0.0,0.0,0.0,0.0,0.0,0.0,0.0,0.0,0.0,0.0,-0.8768,-0.9607,-1.0418,-1.0232,-1.0143,-0.9985,-0.9639,-0.9612,-0.9625,-0.9646,-0.968,-0.9693,-0.9693,-0.9836,-0.9992,-1.0141,-1.0283,-1.05,-1.0812,-1.0989,-1.1165,-1.1348,-1.1497,-1.1647,-1.1789,0.0,0.0,-1.225,-1.2393,-1.2474,-1.2501,-1.2535,-1.2549,-1.2556,-1.2712,-1.2861,-1.3171,-1.3186,-1.0986,-0.8395,-1.2107,-1.2771,-1.1118,-0.3808,-0.122,-0.1408,-0.2289,-0.2657,-0.232,-0.0537,-0.0,0.0,-0.0,-0.0719,-0.1426,-0.1451,-0.1437,-0.1419,-0.1432,-0.1421,-0.1235,-0.1249,-0.1964,-0.2679,-0.269,-0.1971,-0.1254,-0.1256,-0.1248,-0.1238,-0.1054,-0.1055,-0.1059,-0.1066,-0.1075,-0.1069,-0.104,-0.7139,-1.084,-1.0015,-0.4628,-0.1451,-0.1293,-0.1837,-0.1464,-0.0,-0.183,-0.2554,-0.1995,-0.0725,-0.0,-0.0,-0.0,-0.0,-0.0,-0.0,-0.0,0.0,0.0,0.0,0.0,0.0,0.0,0.0,0.0,0.0,0.0,0.0,-1.0544,-0.987,0.0,-1.0188,-1.0168,-1.0623,-1.0898,-1.0826,-1.0833,-1.0609,-1.0005,-1.0005,-1.0019,-0.9944,-1.0066,-1.0154,-1.0154,-1.0297,-1.0453,-1.0609,-1.0683,-1.086,-1.1158,-1.124,-1.1382,-1.1606,-1.1687,-1.1796,-1.1945,-1.2101,-1.2223,-1.2311,-1.2461,-1.2535,-1.2556,-1.2556,-1.2556,-1.2556,-1.2637,-1.2725,-1.284,-1.2741,-1.1623,-0.978,-0.7507,-0.6749,-0.6135,-0.1578,-0.0,-0.0,-0.0,-0.0,-0.0,-0.0,-0.0,-0.0,-0.0,-0.0,-0.0,-0.0,-0.0,-0.0,-0.0,-0.0,-0.0,-0.0,-0.0,-0.0,-0.0,-0.0,-0.0,-0.0,-0.0,-0.0,-0.0,-0.0,-0.0,-0.0,-0.0,-0.0,-0.0,-0.3277,-0.5303,-0.5396,-0.2012,-0.0,-0.0,-0.0,-0.0,-0.0,-0.0,-0.0,-0.0,-0.0,-0.0,-0.0,-0.0,-0.0,-0.0,-0.0,-0.0,0.0,0.0,0.0,0.0,0.0,0.0,0.0,-0.6107,-1.09,-0.8066,-0.9288,-1.0906,-1.061,-1.0738,-1.0934,-1.0934,-1.1165,-1.1382,-1.1504,-1.1525,-1.124,-1.0487,-1.0453,-1.0446,-1.0324,-1.05,-1.0622,-1.0622,-1.0738,-1.0873,-1.1029,-1.1036,-1.1158,-1.1423,-1.1463,-1.1592,-1.183,-1.1864,-1.1952,-1.2115,-1.2237,-1.2325,-1.2226,-1.1553,-1.1299,-1.1323,-1.1323,-1.1323,-1.1323,-1.2128,-1.2481,-1.2554,-1.2501,-1.1776,-0.9978,-0.2733,-0.0,-0.0,-0.0,-0.0,-0.0,-0.0,-0.0,-0.0,-0.0,-0.0,-0.0,-0.0,-0.0,-0.0,-0.0,-0.0,-0.0,-0.0,-0.0,-0.0,-0.0,-0.0,-0.0,-0.0,-0.0,-0.0,-0.0,-0.0,-0.0,-0.0,-0.0,-0.0,-0.0,-0.0,-0.0,-0.0,-0.0,-0.0,-0.0,-0.0,-0.0,-0.0,-0.0,-0.0,-0.0,-0.0,-0.0,-0.0,-0.0,-0.0,-0.0,-0.0,-0.0,-0.0,-0.0,-0.0,0.7987,0.6603,0.4318,0.09,-0.0,-0.0,0.0,0.0,-1.2178,-1.1632,-1.1635,-1.1706,-1.1406,-1.1511,-1.1708,-1.1708,-1.185,-1.1965,-1.1986,-1.1986,-1.1898,-1.166,-1.1416,-1.126,-1.124,-1.1145,-1.1084,-1.1084,-1.1104,-1.1179,-1.1335,-1.1341,-1.1416,-1.1586,-1.1714,-1.1796,-1.183,-1.1965,-1.2121,-1.2139,-1.2159,-1.2253,-1.2414,-0.8613,-0.7041,-0.7041,-0.7041,-0.7041,-0.7357,-1.1023,-1.2554,-1.2536,-1.2566,-0.795,-0.1351,-0.0345,-0.0,-0.0,-0.0,-0.0,-0.0,-0.0,-0.0,-0.0,-0.0,-0.0,-0.0,-0.0,-0.0,-0.0,-0.0,-0.0,-0.0,-0.0,-0.0,-0.0,-0.0,-0.0,-0.0,-0.0,-0.0,-0.0,-0.0,-0.0,-0.0,-0.0,-0.0,-0.0,-0.0,-0.0,-0.0,-0.0,-0.0,-0.0,-0.0,-0.0,-0.0,-0.0,-0.0,-0.0,-0.0,-0.0,-0.0,-0.0,-0.0,-0.0,-0.0,-0.0,-0.0,-0.0,-0.0,-0.0,0.895,0.8489,0.78,0.6908,0.3322,-0.0,-0.0,-0.2666,-0.6614,-1.1423,-1.2113,-1.2006,-1.2081,-1.2182,-1.225,0.0,-1.2366,-1.2447,-1.2447,-1.2528,-1.2569,-1.2367,-1.225,-1.1925,-1.1558,-1.1538,-1.1518,-1.1436,-1.143,-1.1463,-1.1538,-1.1545,-1.1476,-1.165,-1.171,-1.1824,-1.1992,-1.2059,-1.2172,-1.2333,-0.9954,-1.0153,-1.2467,-1.0705,-0.7217,-0.2664,-0.2664,-0.2664,-0.282,-0.4552,-0.5221,-0.5283,-0.5191,-0.3126,-0.0,-0.0,-0.0,-0.0,-0.0,-0.0,-0.0,-0.0,-0.0,-0.0,-0.0,-0.0,-0.0,-0.0,-0.0,-0.0,-0.0,-0.0,-0.0,-0.0,-0.0,-0.0,-0.0,-0.0,-0.0,-0.0,-0.0,-0.0,-0.0,-0.0,-0.0,-0.0,-0.0,-0.0,-0.0,-0.0,-0.0,-0.0,-0.0,-0.0,-0.0,-0.0,-0.0,-0.0,-0.0,-0.0,-0.0,-0.0,-0.0,-0.0,-0.0,-0.0,-0.0,-0.0,-0.0,-0.0,-0.0,-0.0,0.9122,0.9435,0.9884,1.1041,0.7197,0.292,0.201,0.0736,-0.1806,-0.7872,-0.9773,-1.0572,-1.0826,-1.0826,-1.1131,-1.2251,-1.2637,-1.2698,-1.2698,-1.2951,-1.3034,-1.2895,-1.1572,-1.0632,-1.0164,-1.1104,-1.1724,-1.1623,-1.1616,-1.1623,-1.1636,-1.059,-1.0046,-1.0014,-1.0048,-1.0156,-1.0332,-1.0526,-1.1225,-1.2454,-0.9422,-0.8319,-0.8973,-0.8973,-0.5811,-0.0,-0.0,-0.0,-0.0,-0.0,-0.0,-0.0,-0.0,-0.0,-0.0,-0.0,-0.0,-0.0,-0.0,-0.0,-0.0,-0.0,-0.0,-0.0,-0.0,-0.0,-0.0,-0.0,-0.0,-0.0,-0.0,-0.0,-0.0,-0.0,-0.0,-0.0,-0.0,-0.0,-0.0,-0.0,-0.0,-0.0,-0.0,-0.0,-0.0,-0.0,-0.0,-0.0,-0.0,-0.0,-0.0,-0.0,-0.0,-0.0,-0.0,-0.0,-0.0,-0.0,-0.0,-0.0,-0.0,-0.0,-0.0,-0.0,-0.0,-0.0,-0.0,-0.0,-0.0,-0.0,-0.0,-0.0,0.8879,0.9483,1.0107,1.033,1.0783,1.0387,0.6904,0.273,-0.0461,-0.0467,-0.3589,-0.641,-0.6414,-0.6414,-0.7829,-1.1804,-1.2447,-1.261,-1.2936,-1.2936,-1.2943,-1.2943,-0.91,-0.6505,0.0,-0.9521,-1.1671,-1.1665,-1.1665,-1.1665,-1.1665,-0.7995,-0.6023,-0.6023,-0.5942,-0.5982,-0.5989,-0.6372,-0.8466,-1.2481,-1.2318,-0.8181,-0.0314,-0.0314,-0.0314,-0.0,-0.0,-0.0,-0.0,-0.0,-0.0,-0.0,-0.0,-0.0,-0.0,-0.0,-0.0,-0.0,-0.0,-0.0,-0.0,-0.0,-0.0,-0.0,-0.0,-0.0,-0.0,-0.0,-0.0,-0.0,-0.0,-0.0,-0.0,-0.0,-0.0,-0.0,-0.0,-0.0,-0.0,-0.0,-0.0,-0.0,-0.0,-0.0,-0.0,-0.0,-0.0,-0.0,-0.0,-0.0,-0.0,-0.0,-0.0,-0.0,-0.0,-0.0,-0.0,-0.0,-0.0,-0.0,-0.0,-0.0,-0.0,-0.0,-0.0,-0.0,-0.0,-0.0,-0.0,-0.0,-0.0,-0.0,0.9639,1.008,1.0466,1.0975,1.1348,1.1321,1.0248,0.901,0.6645,0.1092,-0.1089,-0.2169,-0.2169,-0.2166,-0.2629,-0.4022,-0.6584,-0.8396,-0.8558,-0.8777,-0.9935,-1.2951,-1.1969,0.0,0.0,0.0,0.0,-0.7819,-0.7721,-0.882,-1.1418,-1.0433,-0.7292,-0.2141,-0.1996,-0.2008,-0.2025,-0.2034,-0.2823,-0.4241,-0.4241,-0.2669,-0.0,-0.0,-0.0,-0.0,-0.0,-0.0,-0.0,-0.0,-0.0,-0.0,-0.0,-0.0,-0.0,-0.0,-0.0,-0.0,-0.0,-0.0,-0.0,-0.0,-0.0,-0.0,-0.0,-0.0,-0.0,-0.0,-0.0,-0.0,-0.0,-0.0,-0.0,-0.0,-0.0,-0.0,-0.0,-0.0,-0.0,-0.0,-0.0,-0.0,-0.0,-0.0,-0.0,-0.0,-0.0,-0.0,-0.0,-0.0,-0.0,-0.0,-0.0,-0.0,-0.0,-0.0,-0.0,-0.0,-0.0,-0.0,-0.0,-0.0,-0.0,-0.0,-0.0,-0.0,-0.0,-0.0,-0.0,-0.0,-0.0,-0.0,0.9951,1.0304,1.0548,1.1097,1.1288,1.1529,1.1737,1.2094,1.0574,0.4333,0.2472,0.2001,0.2001,0.2152,0.169,0.0308,-0.2341,-0.411,-0.4112,-0.4141,-0.5434,-0.8282,-1.1506,-1.0943,0.0,0.0,0.0,-0.3714,-0.3752,-0.4845,-0.7288,-0.7502,-0.524,-0.0155,-0.0,-0.0,-0.0,-0.0,-0.0,-0.0,-0.0,-0.0,-0.0,-0.0,-0.0,-0.0,-0.0,-0.0,-0.0,-0.0,-0.0,-0.0,-0.0,-0.0,-0.0,-0.0,-0.0,-0.0,-0.0,-0.0,-0.0,-0.0,-0.0,-0.0,-0.0,-0.0,-0.0,-0.0,-0.0,-0.0,-0.0,-0.0,-0.0,-0.0,-0.0,-0.0,-0.0,-0.0,-0.0,-0.0,-0.0,-0.0,-0.0,-0.0,-0.0,-0.0,-0.0,-0.0,-0.0,-0.0,-0.0,-0.0,-0.0,-0.0,-0.0,-0.0,-0.0,-0.0,-0.0,-0.0,-0.0,-0.0,-0.0,-0.0,-0.0,-0.0,-0.0,-0.0,-0.0,-0.0,-0.0,-0.0,0.9836,1.0188,1.0419,1.0853,1.1063,1.124,1.1538,1.188,1.1462,0.896,0.7165,0.6097,0.6094,0.626,0.5199,0.1224,0.0464,0.0312,0.0313,0.0314,0.0314,0.0,0.0,0.0,0.0,0.0,0.0,-0.0,0.0,-0.0,-0.0,-0.0,-0.0,-0.0,-0.0,-0.0,-0.0,-0.0,-0.0,-0.0,-0.0,-0.0,-0.0,-0.0,-0.0,-0.0,-0.0,-0.0,-0.0,-0.0,-0.0,-0.0,-0.0,-0.0,-0.0,-0.0,-0.0,-0.0,-0.0,-0.0,-0.0,-0.0,-0.0,-0.0,-0.0,-0.0,-0.0,-0.0,-0.0,-0.0,-0.0,-0.0,-0.0,-0.0,-0.0,-0.0,-0.0,-0.0,-0.0,-0.0,-0.0,-0.0,-0.0,-0.0,-0.0,-0.0,-0.0,-0.0,-0.0,-0.0,-0.0,-0.0,-0.0,-0.0,-0.0,-0.0,-0.0,-0.0,-0.0,-0.0,-0.0,-0.0,-0.0,-0.0,-0.0,-0.0,-0.0,-0.0,-0.0,-0.0,-0.0,-0.0,1.0601,1.0575,1.0833,1.105,1.1138,1.1212,1.1402,1.1328,1.0981,1.0586,0.9974,0.9371,0.9228,0.9742,0.9941,0.9215,0.6385,0.0,0.4261,0.4604,0.0,0.494,0.0,-0.2495,-0.0154,-0.0,0.0,0.0,-0.0,-0.0,-0.0,-0.0,-0.0,-0.0,-0.0,-0.0,-0.0,-0.0,-0.0,-0.0,-0.0,-0.0,-0.0,-0.0,-0.0,-0.0,-0.0,-0.0,-0.0,-0.0,-0.0,-0.0,-0.0,-0.0,-0.0,-0.0,-0.0,-0.0,-0.0,-0.0,-0.0,-0.0,-0.0,-0.0,-0.0,-0.0,-0.0,-0.0,-0.0,-0.0,-0.0,-0.0,-0.0,-0.0,-0.0,-0.0,-0.0,-0.0,-0.0,-0.0,-0.0,-0.0,-0.0,-0.0,-0.0,-0.0,-0.0,-0.0,-0.0,-0.0,-0.0,-0.0,-0.0,-0.0,-0.0,-0.0,-0.0,-0.0,-0.0,-0.0,-0.0,-0.0,-0.0,-0.0,-0.0,-0.0,-0.0,-0.0,-0.0,-0.0,-0.0,-0.0,1.1637,1.119,1.0867,1.0948,1.0968,1.0955,1.0914,1.0745,1.0719,1.0812,1.067,1.0595,1.0591,1.1009,1.1552,0.0,0.0,0.0,0.8309,0.8512,0.8721,0.0,0.7119,0.0,0.294,0.2806,0.2813,0.0,0.1087,-0.0,-0.0,-0.0,-0.0,-0.0,-0.0,-0.0,-0.0,-0.0,-0.0,-0.0,-0.0,-0.0,-0.0,-0.0,-0.0,-0.0,0.0,-0.0,-0.0,-0.0,-0.0,-0.0,-0.0,-0.0,-0.0,-0.0,-0.0,-0.0,-0.0,-0.0,-0.0,-0.0,-0.0,-0.0,-0.0,-0.0,-0.0,-0.0,-0.0,-0.0,-0.0,-0.0,-0.0,-0.0,-0.0,-0.0,-0.0,-0.0,-0.0,-0.0,-0.0,-0.0,-0.0,-0.0,-0.0,-0.0,-0.0,-0.0,-0.0,-0.0,-0.0,-0.0,-0.0,-0.0,-0.0,-0.0,-0.0,-0.0,-0.0,-0.0,-0.0,-0.0,-0.0,-0.0,-0.0,-0.0,-0.0,-0.0,-0.0,-0.0,-0.0,-0.0,1.3121,1.2118,1.0955,1.0975,1.085,1.0636,1.0324,1.0419,1.0487,1.0195,1.0195,1.0351,1.0683,1.086,1.1063,1.1389,0.0,1.1596,1.1521,1.1547,1.1788,1.2311,1.2658,1.1306,0.7501,0.7185,0.7185,0.7197,0.3762,0.1099,-0.0,-0.0,-0.0,-0.0,-0.0,-0.0,-0.0,-0.0,-0.0,-0.0,-0.0,-0.0,-0.0,-0.0,-0.0,-0.0,0.0,0.0,-0.0,-0.0,-0.0,-0.0,-0.0,-0.0,-0.0,-0.0,-0.0,-0.0,-0.0,-0.0,-0.0,-0.0,-0.0,-0.0,-0.0,-0.0,-0.0,-0.0,-0.0,-0.0,-0.0,-0.0,-0.0,-0.0,-0.0,-0.0,-0.0,-0.0,-0.0,-0.0,-0.0,-0.0,-0.0,-0.0,-0.0,-0.0,-0.0,-0.0,-0.0,-0.0,-0.0,-0.0,-0.0,-0.0,-0.0,-0.0,-0.0,-0.0,-0.0,-0.0,-0.0,-0.0,-0.0,-0.0,-0.0,-0.0,-0.0,-0.0,-0.0,-0.0,-0.0,-0.0,1.5102,1.3707,1.2621,1.2767,1.1762,1.0609,1.0188,0.9937,0.9713,0.9415,0.9171,0.915,0.9578,0.9774,0.9978,1.0276,1.048,1.0731,1.0967,1.1114,1.1525,0.0,1.2299,1.2112,1.174,1.1522,0.0,0.0,0.0,0.7373,0.0313,-0.0,-0.0,-0.0,-0.0,-0.0,-0.0,-0.0,-0.0,-0.0,-0.0,-0.0,-0.0,-0.0,-0.0,-0.0,-0.0,0.0,-0.0,-0.0,-0.0,-0.0,-0.0,-0.0,-0.0,-0.0,-0.0,-0.0,-0.0,-0.0,-0.0,-0.0,-0.0,-0.0,-0.0,-0.0,-0.0,-0.0,-0.0,-0.0,-0.0,-0.0,-0.0,-0.0,-0.0,-0.0,-0.0,-0.0,-0.0,-0.0,-0.0,-0.0,-0.0,-0.0,-0.0,-0.0,-0.0,-0.0,-0.0,-0.0,-0.0,-0.0,-0.0,-0.0,-0.0,-0.0,-0.0,-0.0,-0.0,-0.0,-0.0,-0.0,-0.0,-0.0,-0.0,-0.0,-0.0,-0.0,-0.0,-0.0,-0.0,-0.0,1.6255,1.5246,1.4373,1.4568,1.397,1.2976,1.1413,1.0948,1.0585,0.9036,0.8642,0.8703,0.9083,0.9273,0.9496,0.9869,1.0256,1.0616,1.0907,1.1206,1.1959,1.3351,1.342,1.3675,1.3922,1.3732,1.3317,0.0,0.0,0.981,0.3593,0.1252,-0.0,-0.0,-0.0,-0.0,-0.0,-0.0,-0.0,-0.0,-0.0,-0.0,-0.0,-0.0,-0.0,-0.0,-0.0,0.0,-0.0,-0.0,-0.0,-0.0,-0.0,-0.0,-0.0,-0.0,-0.0,-0.0,-0.0,-0.0,-0.0,-0.0,-0.0,-0.0,-0.0,-0.0,-0.0,-0.0,-0.0,-0.0,-0.0,-0.0,-0.0,-0.0,-0.0,-0.0,-0.0,-0.0,-0.0,-0.0,-0.0,-0.0,-0.0,-0.0,-0.0,-0.0,-0.0,-0.0,-0.0,-0.0,-0.0,-0.0,-0.0,-0.0,-0.0,-0.0,-0.0,-0.0,-0.0,-0.0,-0.0,-0.0,-0.0,-0.0,-0.0,-0.0,-0.0,-0.0,-0.0,-0.0,-0.0,-0.0,1.8336,1.7502,1.656,1.6797,1.6389,1.5316,1.2956,1.2463,1.1802,0.9272,0.8763,0.885,0.8872,0.8974,0.9157,0.9605,1.0019,1.0399,1.0711,1.109,1.1995,1.385,1.4347,0.0,1.4326,1.4637,0.0,0.0,0.0,0.0,0.7825,0.4537,0.2345,0.1407,0.141,0.0941,-0.0,-0.0,-0.0,-0.0,-0.0,-0.0,-0.0,-0.0,-0.0,-0.0,-0.0,0.0,0.0,-0.0,-0.0,-0.0,-0.0,-0.0,-0.0,-0.0,-0.0,-0.0,-0.0,-0.0,-0.0,-0.0,-0.0,-0.0,-0.0,-0.0,-0.0,-0.0,-0.0,-0.0,-0.0,-0.0,-0.0,-0.0,-0.0,-0.0,-0.0,-0.0,-0.0,-0.0,-0.0,-0.0,-0.0,-0.0,-0.0,-0.0,-0.0,-0.0,-0.0,-0.0,-0.0,-0.0,-0.0,-0.0,-0.0,-0.0,-0.0,-0.0,-0.0,-0.0,-0.0,-0.0,-0.0,-0.0,-0.0,-0.0,-0.0,-0.0,-0.0,-0.0,-0.0,-0.0,2.3035,2.1642,1.9581,1.9879,1.7897,1.557,1.4003,1.3725,1.3082,1.0561,1.0078,0.984,0.9071,0.8723,0.8689,0.9144,0.9035,0.9184,1.0019,1.029,1.0788,1.1629,1.3373,0.0,1.2269,1.3735,0.0,0.0,0.0,0.0,1.1953,1.1485,0.9573,0.5786,0.5786,0.391,-0.0,-0.0,-0.0,-0.0,-0.0,-0.0,-0.0,-0.0,-0.0,-0.0,-0.0,0.0,0.0,-0.0,-0.0,-0.0,-0.0,-0.0,-0.0,-0.0,-0.0,-0.0,-0.0,-0.0,-0.0,-0.0,-0.0,-0.0,-0.0,-0.0,-0.0,-0.0,-0.0,-0.0,-0.0,-0.0,-0.0,-0.0,-0.0,-0.0,-0.0,-0.0,-0.0,-0.0,-0.0,-0.0,-0.0,-0.0,-0.0,-0.0,-0.0,-0.0,-0.0,-0.0,-0.0,-0.0,-0.0,-0.0,-0.0,-0.0,-0.0,-0.0,-0.0,-0.0,-0.0,-0.0,-0.0,-0.0,-0.0,-0.0,-0.0,-0.0,-0.0,-0.0,-0.0,-0.0,2.2533,2.2767,2.2625,2.2855,2.1348,1.9344,1.7117,1.5818,1.4288,1.0795,1.0103,0.9778,0.857,0.8296,0.833,0.8689,0.8879,0.9225,0.9951,1.0412,1.1256,1.2843,1.3899,0.0,0.0,0.0,0.0,0.0,0.0,0.0,1.2406,1.2515,1.1772,1.0025,1.0041,0.9256,0.7525,0.5006,0.3753,0.3758,0.1253,-0.0,-0.0,-0.0,-0.0,-0.0,-0.0,0.0,0.0,-0.0,-0.0,-0.0,-0.0,-0.0,-0.0,-0.0,-0.0,-0.0,-0.0,-0.0,-0.0,-0.0,-0.0,-0.0,-0.0,-0.0,-0.0,-0.0,-0.0,-0.0,-0.0,-0.0,-0.0,-0.0,-0.0,-0.0,-0.0,-0.0,-0.0,-0.0,-0.0,-0.0,-0.0,-0.0,-0.0,-0.0,-0.0,-0.0,-0.0,-0.0,-0.0,-0.0,-0.0,-0.0,-0.0,-0.0,-0.0,-0.0,-0.0,-0.0,-0.0,-0.0,-0.0,-0.0,-0.0,-0.0,-0.0,-0.0,-0.0,-0.0,-0.0,-0.0,2.2532,2.3736,2.4715,2.5091,2.3985,2.213,1.9528,1.7916,1.5878,1.1944,1.0877,1.019,0.8825,0.8237,0.8119,0.8377,0.8723,0.9178,0.9829,1.0399,1.1368,1.2974,0.0,1.3955,0.0,0.0,0.0,0.0,0.0,0.0,0.0,1.2359,1.2494,1.2535,1.2562,1.242,1.2434,0.9563,0.8141,0.8145,0.5165,0.3128,0.1876,0.1879,0.1254,-0.0,0.0,0.0,0.0,-0.0,-0.0,-0.0,-0.0,-0.0,-0.0,-0.0,-0.0,-0.0,-0.0,-0.0,-0.0,-0.0,-0.0,-0.0,-0.0,-0.0,-0.0,-0.0,-0.0,-0.0,-0.0,-0.0,-0.0,-0.0,-0.0,-0.0,-0.0,-0.0,-0.0,-0.0,-0.0,-0.0,-0.0,-0.0,-0.0,-0.0,-0.0,-0.0,-0.0,-0.0,-0.0,-0.0,-0.0,-0.0,-0.0,-0.0,-0.0,-0.0,-0.0,-0.0,-0.0,-0.0,-0.0,-0.0,-0.0,-0.0,-0.0,-0.0,-0.0,-0.0,-0.0,-0.0,2.4314,2.5144,2.5433,2.6238,2.4906,2.2894,2.0773,1.9627,1.7967,1.4618,1.2813,1.1463,1.019,0.8924,0.8092,0.8248,0.8391,0.875,0.951,1.0005,1.0337,1.0487,0.0,1.3142,1.1097,0.0,0.0,0.0,0.0,0.0,0.0,1.2128,1.2359,1.2501,1.2501,1.2522,1.2556,1.2393,1.2414,1.2447,1.2447,1.0208,0.6254,0.6254,0.3908,0.0,0.0,0.0,0.0,-0.0,-0.0,-0.0,-0.0,-0.0,-0.0,-0.0,-0.0,-0.0,-0.0,-0.0,-0.0,-0.0,-0.0,-0.0,-0.0,-0.0,-0.0,-0.0,-0.0,-0.0,-0.0,-0.0,-0.0,-0.0,-0.0,-0.0,-0.0,-0.0,-0.0,-0.0,-0.0,-0.0,-0.0,-0.0,-0.0,-0.0,-0.0,-0.0,-0.0,-0.0,-0.0,-0.0,-0.0,-0.0,-0.0,-0.0,-0.0,-0.0,-0.0,-0.0,-0.0,-0.0,-0.0,-0.0,-0.0,-0.0,-0.0,-0.0,-0.0,-0.0,-0.0,-0.0,2.1772,2.342,2.4546,2.5371,2.4536,2.2963,2.108,1.9636,1.7795,1.4569,1.2813,1.156,1.019,0.8924,0.8119,0.8377,0.8452,0.8777,0.9632,0.9971,1.029,1.0751,1.1368,1.221,0.0,0.0,0.0,0.0,0.0,0.0,0.0,1.1925,1.2094,1.2345,1.2447,1.2508,1.2515,1.2515,1.2522,1.2535,1.2556,1.1772,1.0497,1.052,0.0,0.0,0.0,0.0,0.0,0.1115,-0.0,-0.0,-0.0,-0.0,-0.0,-0.0,-0.0,-0.0,-0.0,-0.0,-0.0,-0.0,-0.0,-0.0,-0.0,-0.0,-0.0,-0.0,-0.0,-0.0,-0.0,-0.0,-0.0,-0.0,-0.0,-0.0,-0.0,-0.0,-0.0,-0.0,-0.0,-0.0,-0.0,-0.0,-0.0,-0.0,-0.0,-0.0,-0.0,-0.0,-0.0,-0.0,-0.0,-0.0,-0.0,-0.0,-0.0,-0.0,-0.0,-0.0,-0.0,-0.0,-0.0,-0.0,-0.0,-0.0,-0.0,-0.0,-0.0,-0.0,-0.0,-0.0,1.801,2.0262,2.1979,2.2799,2.2607,2.1734,2.0246,1.8923,1.7237,1.4496,1.2813,1.156,1.019,0.8924,0.8334,0.9257,0.8848,0.8883,1.0266,1.0137,1.0197,1.0823,0.0,0.0,0.0,0.0,0.0,0.0,0.0,0.0,0.0,1.1803,1.1918,1.2108,1.2318,1.2447,1.2501,1.2501,1.2501,1.2501,1.2522,1.2535,1.2535,1.2556,0.0,0.0,0.0,0.0,0.0,0.5868,0.3837,0.2418,0.246,0.1493,-0.0,-0.0,-0.0,-0.0,-0.0,-0.0,-0.0,-0.0,0.2459,0.534,0.5375,0.2872,-0.0,-0.0,-0.0,-0.0,-0.0,-0.0,-0.0,-0.0,-0.0,-0.0,-0.0,-0.0,-0.0,-0.0,-0.0,-0.0,-0.0,-0.0,-0.0,-0.0,-0.0,-0.0,-0.0,-0.0,-0.0,-0.0,-0.0,-0.0,-0.0,-0.0,-0.0,-0.0,-0.0,-0.0,-0.0,-0.0,-0.0,-0.0,-0.0,-0.0,-0.0,-0.0,-0.0,-0.0,-0.0,-0.0,0.0,1.5751,1.7872,1.8861,1.9346,1.9298,1.8346,1.7457,0.0,1.4147,1.2684,1.1434,1.0173,0.8924,0.8643,1.0372,0.9389,0.9003,1.1048,1.0213,0.9703,1.0805,1.0749,0.0,0.0,0.0,0.0,0.0,0.0,0.0,0.0,1.1742,1.1823,1.183,1.2108,1.2332,1.2488,1.2494,1.2501,1.2501,1.2501,1.2501,1.2501,1.2501,0.0,0.0,0.0,0.0,0.0,1.2437,1.0221,0.6702,0.7011,0.4607,0.0826,0.0167,0.0336,0.101,0.101,0.1018,0.0857,0.052,0.6526,1.3885,1.4263,0.7907,0.0538,0.0538,0.0538,0.0538,0.0538,0.0547,0.0555,0.0555,0.0564,0.0572,0.0572,0.0572,0.0572,0.0572,0.0572,0.0572,0.0572,0.0572,0.0382,-0.0,-0.0,-0.0,-0.0,-0.0,-0.0,-0.0,-0.0,-0.0,-0.0,-0.0,-0.0,-0.0,-0.0,-0.0,-0.0,-0.0,-0.0,-0.0,-0.0,-0.0,-0.0,-0.0,-0.0,-0.0,-0.0,-0.0,0.8651,0.0,1.244,1.4714,1.5772,1.5974,0.0,1.4385,1.3779,1.233,1.1094,1.0167,0.9878,0.8939,0.8343,0.883,0.8716,0.8694,0.9182,0.8301,0.8447,1.0482,1.0733,0.0,0.0,0.0,0.0,0.0,0.0,1.1619,0.0,1.1653,1.1714,1.183,1.1904,1.2067,1.2338,1.2447,1.2501,1.2501,1.2501,1.2501,1.2501,1.2501,0.0,0.0,0.0,0.0,1.2535,1.246,1.1905,1.1013,1.1101,1.0756,0.9424,0.2481,0.4336,1.0304,1.0304,1.032,0.9685,0.6547,0.6993,0.9396,1.3102,1.0223,0.5365,0.5365,0.5365,0.5365,0.5365,0.5416,0.548,0.5705,0.5771,0.5834,0.5882,0.5889,0.5889,0.5889,0.5889,0.5889,0.5889,0.5889,0.4561,0.0571,-0.0,-0.0,-0.0,-0.0,-0.0,-0.0,-0.0,-0.0,-0.0,-0.0,-0.0,-0.0,-0.0,-0.0,-0.0,-0.0,-0.0,-0.0,-0.0,-0.0,-0.0,-0.0,-0.0,-0.0,-0.0,-0.0,0.7091,0.8419,0.9921,1.0631,1.1901,1.2881,1.2194,1.1844,1.1436,1.0949,1.031,0.9627,0.8972,0.8513,0.8241,0.832,0.7368,0.6918,0.8078,0.6764,0.6969,1.0287,1.0802,0.0,0.0,0.0,0.0,0.0,0.0,1.166,1.166,1.166,1.1694,1.1769,1.175,1.1925,1.2291,1.2366,1.2433,1.2501,1.2501,1.2501,1.2501,1.2501,1.2501,0.0,0.0,0.0,1.2528,1.2427,1.2474,1.2527,1.245,1.2789,1.2495,0.7897,0.6649,0.7913,1.2005,1.3432,1.2991,1.0662,1.0091,1.0755,1.3343,1.2314,1.0362,1.0387,1.0392,1.0392,1.0392,1.0475,1.0402,1.0871,1.0986,1.1096,1.1018,1.1042,1.1042,1.1042,1.1042,1.1042,1.1042,1.1052,1.0104,0.7426,0.3046,-0.0,-0.0,-0.0,-0.0,-0.0,-0.0,-0.0,-0.0,-0.0,-0.0,-0.0,-0.0,-0.0,-0.0,-0.0,-0.0,-0.0,-0.0,-0.0,-0.0,-0.0,-0.0,-0.0,-0.0,-0.0,0.7135,0.814,0.8826,0.755,0.8404,0.9647,1.0026,0.9393,0.8814,0.944,0.9444,0.901,0.7902,0.7485,0.7607,0.8334,0.5624,0.4218,0.6448,0.4787,0.4747,0.8612,0.955,0.0,0.0,0.0,0.0,0.0,0.0,1.0668,1.0668,1.0668,1.0674,1.0699,1.0743,1.0908,1.1327,1.2,1.24,1.2515,1.2515,1.2515,1.2515,1.2515,1.2515,1.2522,0.0,0.0,1.1448,1.0837,1.0993,1.1616,1.222,1.2523,1.2829,1.3146,0.8614,0.3012,0.9943,1.2764,1.3389,1.3376,1.3707,1.3907,1.3928,1.4197,1.4312,1.4373,1.4387,1.4387,1.4387,1.4303,1.443,1.4577,1.4916,1.5072,1.5221,1.5269,1.5282,1.5282,1.5282,1.5282,1.5282,1.512,1.4944,1.4558,0.6865,0.1144,0.1144,0.0387,-0.0,-0.0,-0.0,-0.0,-0.0,-0.0,-0.0,-0.0,-0.0,-0.0,-0.0,-0.0,-0.0,-0.0,-0.0,-0.0,-0.0,-0.0,-0.0,-0.0,-0.0,-0.0,0.7257,0.7563,0.7677,0.7604,0.6089,0.5296,0.7604,0.6293,0.507,0.7158,0.7485,0.7578,0.761,0.5952,0.539,0.7739,0.3847,0.0761,0.1204,0.0,0.0831,0.1561,0.0,0.0,0.0,0.0,0.0,0.0,0.0,0.0,0.6684,0.6684,0.672,0.6647,0.6747,0.6798,0.6796,1.0537,1.2414,1.2434,1.2434,1.2434,1.2434,1.2434,1.2434,1.2434,0.0,1.0537,0.7037,0.3439,0.4064,0.7669,1.1179,1.2548,1.2516,1.301,1.2338,1.0969,0.8536,1.0257,1.3351,1.3614,1.3756,1.3905,1.4041,1.4183,1.4299,1.4312,1.4312,1.4312,1.4312,1.4333,1.4387,1.4529,1.4679,1.4835,1.4991,1.512,1.5201,1.5201,1.5201,1.5201,1.5201,1.5208,1.4253,1.1396,0.8357,0.6458,0.6458,0.2691,-0.0,-0.0,-0.0,-0.0,-0.0,-0.0,-0.0,-0.0,-0.0,-0.0,-0.0,-0.0,-0.0,-0.0,-0.0,-0.0,-0.0,-0.0,-0.0,-0.0,-0.0,-0.0,0.7074,0.7222,0.7475,0.7875,0.739,0.6216,0.4031,0.4926,0.6059,0.5389,0.5255,0.5649,0.7067,0.6674,0.5656,0.3921,0.1584,-0.0,-0.0,-0.3348,-0.5818,0.0,0.0,0.0,0.0,0.0,0.0,0.0,0.0,0.0,0.0,0.0,0.2627,0.2642,0.4739,0.5836,0.5751,0.7924,0.8929,0.9166,0.9221,0.9095,0.9095,0.9095,0.9095,0.9256,0.0,1.1354,0.911,0.2664,0.1096,0.3439,0.8319,1.0274,1.0538,1.2553,1.174,0.9843,1.0221,1.1599,1.3485,1.3498,1.3607,1.3756,1.3899,1.4055,1.4197,1.4278,1.4299,1.4299,1.4299,1.4299,1.4333,1.4475,1.4563,1.4685,1.4923,1.5025,1.5092,1.5167,1.5181,1.5181,1.5181,1.5201,1.4643,1.3116,1.2183,1.0659,0.7974,0.7876,0.6019,0.0586,-0.0,-0.0,-0.0,-0.0,-0.0,-0.0,-0.0,-0.0,-0.0,-0.0,-0.0,-0.0,-0.0,-0.0,-0.0,-0.0,-0.0,-0.0,-0.0,-0.0,0.6905,0.721,0.7646,0.8024,0.8808,0.8125,0.3316,0.4414,0.5757,0.3253,0.2794,0.3295,0.5141,0.5858,0.4735,0.0674,-0.0,-0.0,-0.0,0.0,0.0,0.0,0.0,0.0,0.0,0.0,0.0,0.0,0.0,0.0,0.0,0.0,-0.0,-0.0,0.2839,0.4386,0.4401,0.4495,0.4512,0.4765,0.4823,0.4844,0.4831,0.4844,0.4852,0.5008,0.8172,0.961,0.913,0.2669,-0.0,0.047,0.4703,0.7578,0.9575,1.2255,1.11,0.8689,1.226,1.3478,1.3485,1.3431,1.3512,1.3654,1.3797,1.3946,1.4102,1.4258,1.4299,1.4299,1.4299,1.4299,1.4326,1.4434,1.4489,1.4584,1.4855,1.4943,1.5011,1.5153,1.5181,1.5181,1.5181,1.5215,1.5235,1.5235,1.5269,1.3737,0.987,1.2875,1.1828,0.3308,0.0985,-0.0,-0.0,-0.0,-0.0,-0.0,-0.0,-0.0,-0.0,-0.0,-0.0,-0.0,-0.0,-0.0,-0.0,-0.0,-0.0,-0.0,-0.0,-0.0,0.6959,0.7339,0.778,0.7828,0.8593,0.9253,0.8893,0.4507,0.0523,0.0322,0.0223,0.0344,0.0466,0.0585,0.0466,0.0115,-0.0,-0.0,0.0,0.0,0.0,0.0,0.0,0.0,0.0,0.0,0.0,0.0,0.0,0.0,0.0,0.0,0.0,-0.0,0.0298,0.0449,0.0454,0.046,0.0463,0.0462,0.0468,0.0468,0.0463,0.0469,0.0471,0.0471,0.0785,0.0942,0.0785,0.0314,-0.0,-0.0,0.0471,0.537,1.2344,1.2836,1.297,1.2933,1.3271,1.3478,1.3458,1.3451,1.3532,1.3654,1.3797,1.3946,1.4102,1.4258,1.4299,1.4299,1.4299,1.4299,1.4299,1.4312,1.4414,1.4557,1.4719,1.4869,1.5011,1.5153,1.5181,1.5181,1.5181,1.5187,1.5187,1.5187,1.5228,1.5046,1.4617,1.4884,1.3608,0.9807,0.3692,-0.0,-0.0,-0.0,-0.0,-0.0,-0.0,-0.0,-0.0,-0.0,-0.0,-0.0,-0.0,-0.0,-0.0,-0.0,-0.0,-0.0,-0.0,-0.0,0.6634,0.7082,0.7604,0.7882,0.8343,0.8882,0.9384,0.7739,0.5547,0.344,0.1478,-0.0,-0.0,-0.0,-0.0,-0.0,-0.0,-0.0,0.0,0.0,0.0,0.0,0.0,0.0,0.0,0.0,0.0,0.0,0.0,0.0,0.0,0.0,0.0,-0.0,-0.0,-0.0,-0.0,-0.0,-0.0,-0.0,-0.0,-0.0,-0.0,-0.0,-0.0,-0.0,-0.0,-0.0,-0.0,-0.0,-0.0,-0.0,-0.0,0.1892,0.5422,1.0833,1.3119,1.3446,1.3397,1.3444,1.3451,1.3424,1.3451,1.3512,1.3661,1.381,1.396,1.4116,1.4224,1.4299,1.4299,1.4299,1.4299,1.4299,1.434,1.4421,1.4563,1.4719,1.4869,1.5025,1.512,1.5181,1.5181,1.5181,1.5181,1.5181,1.5201,1.5201,1.5181,1.5235,1.4734,1.3483,0.5271,-0.0,-0.0,-0.0,-0.0,-0.0,-0.0,-0.0,-0.0,-0.0,-0.0,-0.0,-0.0,-0.0,-0.0,-0.0,-0.0,-0.0,-0.0,-0.0,0.6559,0.7088,0.7706,0.7916,0.8187,0.8598,0.9254,0.956,0.9036,0.6842,0.3027,-0.0,-0.0,-0.0,-0.0,0.0,-0.0,0.0,0.0,0.0,0.0,0.0,0.0,0.0,0.0,0.0,0.0,0.0,0.0,0.0,0.0,0.0,0.0,0.0,-0.0,-0.0,-0.0,-0.0,-0.0,-0.0,-0.0,-0.0,-0.0,-0.0,-0.0,-0.0,-0.0,-0.0,-0.0,-0.0,-0.0,-0.0,-0.0,-0.0,0.0952,0.8211,1.1919,1.3377,1.3363,1.3424,1.3431,1.3424,1.341,1.3431,1.3587,1.3729,1.3871,1.4027,1.4183,1.4299,1.4299,1.4299,1.4299,1.4299,1.4299,1.434,1.4482,1.459,1.4726,1.493,1.5052,1.5126,1.5174,1.5181,1.5181,1.5181,1.5181,1.5181,1.5181,1.5208,1.5289,1.5247,0.7427,0.1785,0.0201,-0.0,-0.0,-0.0,-0.0,-0.0,-0.0,-0.0,-0.0,-0.0,-0.0,-0.0,-0.0,-0.0,-0.0,-0.0,-0.0,-0.0,0.6824,0.7475,0.8201,0.7896,0.8269,0.8791,0.9083,0.9297,0.9507,0.9802,0.4577,0.0122,-0.0,-0.0,-0.0,-0.0,0.0,0.0,0.0,0.0,0.0,0.0,0.0,0.0,0.0,0.0,0.0,0.0,0.0,0.0,0.0,0.0,0.0,0.0,-0.0,-0.0,-0.0,-0.0,-0.0,-0.0,-0.0,-0.0,-0.0,-0.0,-0.0,-0.0,-0.0,-0.0,-0.0,-0.0,-0.0,-0.0,-0.0,-0.0,0.047,0.4973,0.9396,1.3205,1.3342,1.3431,1.341,1.3437,1.3431,1.3431,1.358,1.3729,1.3871,1.4027,1.4183,1.4299,1.4299,1.4299,1.4299,1.4299,1.4299,1.434,1.4482,1.4509,1.4604,1.4909,1.497,1.5018,1.516,1.5181,1.5181,1.5181,1.5181,1.5181,1.5181,1.5181,1.5255,1.5247,1.0698,0.5494,0.0397,-0.0,-0.0,-0.0,-0.0,-0.0,-0.0,-0.0,-0.0,-0.0,-0.0,-0.0,-0.0,-0.0,-0.0,-0.0,-0.0,-0.0,0.8422,0.9107,0.9492,0.8383,0.8581,0.9161,0.9384,0.9434,0.9489,0.9716,0.8236,0.5506,0.0829,-0.0,0.0,0.0,0.0,0.0,0.0,0.0,0.0,0.0,0.0,0.0,0.0,0.0,0.0,0.0,0.0,0.0,0.0,0.0,0.0,0.0,-0.0,-0.0,-0.0,-0.0,-0.0,-0.0,-0.0,-0.0,-0.0,-0.0,-0.0,-0.0,-0.0,-0.0,-0.0,-0.0,-0.0,-0.0,-0.0,-0.0,0.0472,0.4979,0.9572,1.3401,1.3329,1.3424,1.3437,1.3424,1.3424,1.3437,1.3464,1.3573,1.3722,1.3865,1.4021,1.4163,1.4272,1.4299,1.4299,1.4299,1.4299,1.4312,1.4353,1.4441,1.457,1.4774,1.4896,1.5018,1.516,1.5181,1.5181,1.5181,1.5181,1.5181,1.5181,1.5181,1.5262,1.5288,1.3873,0.9448,0.0795,-0.0,-0.0,-0.0,-0.0,-0.0,-0.0,-0.0,-0.0,-0.0,-0.0,-0.0,-0.0,-0.0,-0.0,-0.0,-0.0,-0.0,0.8866,0.9689,1.0551,0.904,0.9028,0.9442,0.9523,0.9631,0.9266,0.8154,0.8236,0.724,0.2765,0.0839,0.0,0.0,0.0,0.0,0.0,0.0,0.0,0.0,0.0,0.0,0.0,0.0,0.0,0.0,0.0,0.0,0.0,0.0,0.0,0.0,-0.0,-0.0,-0.0,-0.0,-0.0,-0.0,-0.0,-0.0,-0.0,-0.0,-0.0,-0.0,-0.0,-0.0,-0.0,-0.0,-0.0,-0.0,-0.0,-0.0,0.0472,0.4979,0.9577,1.3415,1.3336,1.3437,1.3278,1.2063,1.2407,1.3444,1.341,1.3505,1.3661,1.3797,1.3953,1.4109,1.4258,1.4299,1.4299,1.4299,1.4299,1.4299,1.4299,1.4367,1.4468,1.4618,1.4774,1.4923,1.5072,1.5147,1.5181,1.5181,1.5181,1.5181,1.5181,1.5181,1.5235,1.518,1.3386,0.9781,0.3553,0.1197,-0.0,-0.0,-0.0,-0.0,-0.0,-0.0,-0.0,-0.0,-0.0,-0.0,-0.0,-0.0,-0.0,-0.0,-0.0,-0.0,0.8641,0.9836,1.1068,0.9795,0.9503,0.9598,0.9724,0.9813,0.8962,0.5968,0.6116,0.6621,0.5513,0.2944,0.0,0.0,0.0,0.0,0.0,0.0,0.0,0.0,0.0,0.0,0.0,0.0,0.0,0.0,0.0,0.0,0.0,0.0,0.0,-0.0,-0.0,-0.0,-0.0,-0.0,-0.0,-0.0,-0.0,-0.0,-0.0,-0.0,-0.0,-0.0,-0.0,-0.0,-0.0,-0.0,-0.0,-0.0,-0.0,0.0471,0.1734,0.5302,0.9582,1.3436,1.3363,1.3111,1.2426,1.0044,1.1231,1.3451,1.341,1.3498,1.3641,1.3797,1.3939,1.4089,1.4258,1.4299,1.4299,1.4299,1.4299,1.4299,1.4299,1.4299,1.434,1.4482,1.4624,1.4774,1.4943,1.5079,1.5167,1.5181,1.5181,1.5181,1.5181,1.5181,1.5181,1.5187,1.1106,0.7935,0.7031,0.257,-0.0,-0.0,-0.0,-0.0,-0.0,-0.0,-0.0,-0.0,-0.0,-0.0,-0.0,-0.0,-0.0,-0.0,-0.0,-0.0,0.973,1.0355,1.0802,0.9652,0.9578,0.9768,0.9741,0.9854,0.9612,0.8944,0.8915,0.9073,0.8741,0.0,0.0,0.0,0.0,0.0,0.0,0.0,0.0,0.0,0.0,0.0,0.0,0.0,0.0,0.0,0.0,0.0,0.0,0.0,0.0,-0.0,-0.0,-0.0,-0.0,-0.0,-0.0,0.0,-0.0,-0.0,-0.0,-0.0,-0.0,-0.0,-0.0,-0.0,-0.0,-0.0,-0.0,-0.0,-0.0,0.4266,1.0242,0.7585,0.9617,1.3377,1.3363,1.1059,0.8544,1.1552,1.2932,1.3478,1.3417,1.3424,1.3505,1.377,1.3865,1.3953,1.4231,1.4299,1.4299,1.4299,1.4299,1.4299,1.4299,1.4299,1.434,1.4482,1.4536,1.4645,1.4923,1.4997,1.5052,1.5167,1.5181,1.5181,1.5181,1.5181,1.5194,1.5235,1.4241,1.028,0.2345,0.0593,-0.0,-0.0,-0.0,-0.0,-0.0,-0.0,-0.0,-0.0,-0.0,-0.0,-0.0,-0.0,-0.0,-0.0,-0.0,-0.0,0.9293,1.0246,1.0899,0.9842,0.9707,0.9822,0.9822,0.9822,0.9741,0.9813,0.9772,0.9815,0.0,0.0,0.0,0.0,0.0,0.0,0.0,0.0,0.0,0.0,0.0,0.0,0.0,0.0,0.0,0.0,0.0,0.0,0.0,-0.0,-0.0,-0.0,-0.0,-0.0,-0.0,0.3931,0.5978,0.5971,0.1885,0.2042,0.5814,0.1885,0.2199,0.5814,0.1728,0.1098,0.3133,0.5181,0.4865,0.2977,0.2977,0.6,1.0089,0.9853,1.1288,1.3432,1.3383,1.192,1.0247,1.2586,1.3451,1.3471,1.3417,1.3403,1.3464,1.3756,1.3838,1.3912,1.4217,1.4299,1.4299,1.4299,1.4299,1.4299,1.4299,1.4299,1.4319,1.4394,1.4468,1.4584,1.4821,1.4977,1.5099,1.5174,1.5181,1.5181,1.5181,1.5181,1.5194,1.5215,1.5147,1.2154,0.4267,0.1369,-0.0,-0.0,-0.0,-0.0,-0.0,-0.0,-0.0,-0.0,-0.0,-0.0,-0.0,-0.0,-0.0,-0.0,-0.0,-0.0,0.8027,0.9734,1.0964,1.0067,0.9822,0.9822,0.9822,0.9822,0.9822,0.9822,0.9822,0.0,0.0,0.0,0.0,0.0,0.0,0.0,0.0,0.0,0.0,0.0,0.0,0.0,0.0,0.0,0.0,0.0,0.0,0.0,0.1,0.1011,0.103,0.1058,0.1071,0.1084,0.1095,0.8024,1.1378,1.1354,0.4393,0.4709,1.1191,0.5025,0.5495,1.1035,0.4865,0.3762,0.657,1.0861,1.0537,0.7357,0.7357,0.7574,0.8154,1.1814,1.3295,1.3322,1.274,1.2958,1.3325,1.3451,1.3444,1.3444,1.341,1.3403,1.3464,1.3756,1.3838,1.3912,1.4217,1.4299,1.4299,1.4299,1.4299,1.4299,1.4299,1.4299,1.4299,1.4299,1.4434,1.459,1.4719,1.4984,1.5181,1.5181,1.5181,1.5181,1.5181,1.5181,1.5181,1.5181,1.5255,1.3216,0.8089,0.2896,-0.0,-0.0,-0.0,-0.0,-0.0,-0.0,-0.0,-0.0,-0.0,-0.0,-0.0,-0.0,-0.0,-0.0,-0.0,-0.0,0.6692,0.8673,0.9982,0.9834,0.9822,0.9822,0.9822,0.9822,0.9822,0.0,0.0,0.0,0.0,0.0,0.0,0.0,0.0,0.0,0.0,0.0,0.0,0.0,0.0,0.0,0.0,0.0,0.0,0.0,0.0,0.0,0.5204,0.5024,0.5084,0.4968,0.534,0.5535,0.5391,0.6541,0.7205,0.7045,0.5945,0.6101,0.7201,0.9735,0.9422,0.7205,0.974,0.91,0.657,1.0849,1.2128,1.1648,1.1648,1.1798,1.2192,1.2869,1.3207,1.3091,1.0382,1.1237,1.3451,1.3417,1.3431,1.3444,1.341,1.3403,1.3464,1.3756,1.3838,1.3912,1.4217,1.4299,1.4299,1.4299,1.4299,1.4299,1.4299,1.4299,1.4299,1.4299,1.4523,1.4713,1.4733,1.4984,1.5181,1.5181,1.5181,1.5181,1.5181,1.5181,1.5181,1.5181,1.5255,1.3216,0.8089,0.2896,-0.0,-0.0,-0.0,-0.0,-0.0,-0.0,-0.0,-0.0,-0.0,-0.0,-0.0,-0.0,-0.0,-0.0,-0.0,-0.0,0.5183,0.7381,0.9838,0.9766,0.9834,0.9822,0.9822,0.9822,0.9822,0.9822,0.0,0.0,0.0,0.0,0.0,0.0,0.0,0.0,0.0,0.0,0.0,0.0,0.0,0.0,0.0,0.0,0.0,0.0,0.0,1.006,0.8807,0.8927,0.9066,0.9122,0.9397,0.9639,0.9709,0.9826,0.9729,0.9729,0.9719,0.9708,0.9864,1.1616,1.146,0.9869,1.1641,1.146,0.9848,1.1772,1.2562,1.2556,1.2644,1.2807,1.301,1.3091,1.208,1.0893,1.138,1.2241,1.3444,1.341,1.341,1.3424,1.3403,1.3403,1.3464,1.3756,1.3838,1.3912,1.4217,1.4299,1.4299,1.4299,1.4299,1.4299,1.4299,1.4299,1.4299,1.4299,1.4468,1.4638,1.4726,1.4923,1.5092,1.5167,1.5181,1.5181,1.5181,1.5181,1.5181,1.5181,1.5235,1.3169,0.8024,0.2869,-0.0,-0.0,-0.0,-0.0,-0.0,-0.0,-0.0,-0.0,-0.0,-0.0,-0.0,-0.0,-0.0,-0.0,-0.0,-0.0,0.315,0.4962,0.7739,0.9334,0.9815,0.9861,0.9808,0.9822,0.9822,0.0,0.0,0.0,0.0,0.0,0.0,0.0,0.0,0.0,0.0,0.0,0.0,0.0,0.0,0.0,0.0,0.0,0.0,0.0,0.0,1.0745,1.104,1.1358,1.1564,1.1544,1.1844,1.2142,1.245,1.2488,1.242,1.242,1.2556,1.2542,1.2542,1.2542,1.2542,1.2542,1.2569,1.2549,1.2501,1.2528,1.2528,1.2515,1.2671,1.2827,1.299,1.3132,1.1776,1.0382,1.2573,1.3424,1.3437,1.341,1.3403,1.3403,1.3403,1.3403,1.3464,1.3756,1.3838,1.3912,1.4217,1.4299,1.4299,1.4299,1.4299,1.4299,1.4299,1.4299,1.4299,1.4299,1.4414,1.4563,1.4713,1.4869,1.5018,1.516,1.5181,1.5181,1.5181,1.5181,1.5181,1.5181,1.5221,1.3712,0.9888,0.3608,-0.0,-0.0,-0.0,-0.0,-0.0,-0.0,-0.0,-0.0,-0.0,-0.0,-0.0,-0.0,-0.0,-0.0,-0.0,-0.0,0.0197,0.0303,0.1972,0.8274,0.9785,0.9745,0.9768,0.9822,0.9822,0.0,0.0,0.0,0.0,0.0,0.0,0.0,0.0,0.0,0.0,0.0,0.0,0.0,0.0,0.0,0.0,0.0,0.0,0.0,0.0,1.0853,1.1151,1.1165,1.1314,1.1626,1.1775,1.1918,1.2081,1.2366,1.2508,1.2508,1.2508,1.2508,1.2508,1.2508,1.2508,1.2508,1.2508,1.2508,1.2501,1.2501,1.2501,1.2515,1.2671,1.2847,1.303,1.3166,1.315,1.3111,1.3284,1.3431,1.3403,1.3403,1.3403,1.3403,1.3403,1.3403,1.3464,1.3756,1.3838,1.3912,1.4217,1.4299,1.4299,1.4299,1.4299,1.4299,1.4299,1.4299,1.4299,1.4299,1.4414,1.4563,1.4713,1.4869,1.5018,1.516,1.5181,1.5181,1.5181,1.5181,1.5181,1.5181,1.5221,1.5073,1.4911,0.57,-0.0,-0.0,-0.0,-0.0,-0.0,-0.0,-0.0,-0.0,-0.0,-0.0,-0.0,-0.0,-0.0,-0.0,-0.0,-0.0,-0.0,-0.0,0.0611,0.2888,0.6674,0.9752,0.9481,0.9662,0.9829,0.0,0.0,0.0,0.0,0.0,0.0,0.0,0.0,0.0,0.0,0.0,0.0,0.0,0.0,0.0,0.0,0.0,0.0,0.0,0.0,0.0,1.1145,1.1165,1.1301,1.1606,1.1755,1.1952,1.2203,1.2311,1.2413,1.2501,1.2501,1.2501,1.2501,1.2501,1.2501,1.2501,1.2501,1.2501,1.2501,1.2501,1.2501,1.2515,1.2671,1.2834,1.2996,1.3139,1.3288,1.3417,1.3417,1.341,1.3403,1.3403,1.3403,1.3403,1.3403,1.3403,1.3464,1.3756,1.3838,1.3912,1.4217,1.4299,1.4299,1.4299,1.4299,1.4299,1.4299,1.4299,1.4299,1.4299,1.434,1.4421,1.457,1.4719,1.4875,1.5025,1.5126,1.5181,1.5181,1.5181,1.5181,1.5181,1.5221,1.5262,1.5107,1.1836,0.6874,0.0383,-0.0,-0.0,-0.0,-0.0,-0.0,-0.0,-0.0,-0.0,-0.0,-0.0,-0.0,-0.0,-0.0,-0.0,-0.0,-0.0,-0.0,-0.0,0.3321,0.6738,0.7587,0.8768,0.9752,0.0,0.0,0.0,0.0,0.0,0.0,0.0,0.0,0.0,0.0,0.0,0.0,0.0,0.0,0.0,0.0,0.0,0.0,0.0,0.0,0.0,1.1145,1.1165,1.1301,1.1606,1.1755,1.1932,1.2135,1.2237,1.2338,1.2433,1.2481,1.2501,1.2501,1.2501,1.2501,1.2501,1.2501,1.2501,1.2501,1.2501,1.2501,1.2515,1.2671,1.2827,1.2976,1.3119,1.3268,1.3403,1.3403,1.3403,1.3403,1.3403,1.3403,1.3403,1.3403,1.3403,1.3464,1.3756,1.3838,1.3912,1.4217,1.4299,1.4299,1.4299,1.4299,1.4299,1.4299,1.4299,1.4299,1.4299,1.4299,1.436,1.4557,1.4672,1.4808,1.5011,1.512,1.5181,1.5181,1.5181,1.5181,1.5181,1.5208,1.4474,1.2779,1.2606,0.8968,0.0573,-0.0,-0.0,-0.0,-0.0,-0.0,-0.0,-0.0,-0.0,-0.0,-0.0,-0.0,-0.0,-0.0,-0.0,0.0,0.0,0.0,-0.0,-0.0,0.0856,0.3981,0.0,0.0,0.0,0.0,0.0,0.0,0.0,0.0,0.0,0.0,0.0,0.0,0.0,0.0,0.0,0.0,0.0,0.0,0.0,0.0,0.0,0.0,1.0846,1.1138,1.1165,1.1307,1.1613,1.1755,1.183,1.183,1.2128,1.2284,1.2291,1.2433,1.2501,1.2501,1.2501,1.2501,1.2501,1.2494,1.2494,1.2494,1.2501,1.2501,1.2515,1.2664,1.282,1.2976,1.3119,1.3268,1.3403,1.3403,1.3403,1.3403,1.3403,1.3403,1.3403,1.3403,1.3403,1.3464,1.3756,1.3838,1.3912,1.4217,1.4299,1.4299,1.4299,1.4299,1.4299,1.4299,1.4299,1.4299,1.4299,1.4299,1.4394,1.4679,1.4733,1.4835,1.5126,1.5174,1.5181,1.5181,1.5181,1.5181,1.5181,1.5181,1.3281,0.8164,0.7595,0.5323,0.0382,-0.0,-0.0,-0.0,-0.0,-0.0,-0.0,-0.0,-0.0,-0.0,-0.0,-0.0,-0.0,-0.0,-0.0,-0.0,0.0,0.0,0.0,0.0,0.0,0.0,0.0,0.0,0.0,0.0,0.0,0.0,0.0,0.0,0.0,0.0,0.0,0.0,0.0,0.0,0.0,0.0,0.0,0.0,0.0,0.0,0.0,1.0717,1.0806,1.0995,1.1212,1.1416,1.1613,1.166,1.1728,1.183,1.2026,1.2182,1.2291,1.2433,1.2501,1.2501,1.2501,1.2501,1.2494,1.2393,1.2345,1.2359,1.2461,1.2501,1.2508,1.2549,1.2725,1.2969,1.3003,1.318,1.3403,1.3403,1.3403,1.3403,1.3403,1.3403,1.3403,1.3403,1.3403,1.3464,1.3756,1.3838,1.3912,1.4217,1.4299,1.4299,1.4299,1.4299,1.4299,1.4299,1.4299,1.4299,1.4299,1.4299,1.4326,1.4407,1.4597,1.4767,1.4848,1.5045,1.5181,1.5181,1.5181,1.5181,1.5181,1.5215,1.4669,1.3163,0.6269,0.1522,-0.0,-0.0,-0.0,-0.0,-0.0,-0.0,-0.0,-0.0,-0.0,-0.0,-0.0,-0.0,-0.0,-0.0,-0.0,-0.0,-0.0,-0.0,-0.0,0.0,0.0,-0.0,-0.0,0.0,0.0,0.0,0.0,0.0,0.0,0.0,0.0,0.0,0.0,0.0,0.0,0.0,0.0,0.0,0.0,0.0,0.0,0.0,1.0711,1.0717,1.0812,1.1029,1.126,1.1463,1.1613,1.1619,1.166,1.1742,1.1891,1.2013,1.2101,1.2311,1.2379,1.2318,1.2386,1.2379,1.2311,1.223,1.2196,1.2203,1.2284,1.2318,1.2332,1.2454,1.2651,1.2874,1.2935,1.3146,1.3403,1.3403,1.3403,1.3403,1.3403,1.3403,1.3403,1.3403,1.3403,1.3451,1.3688,1.3844,1.3994,1.4238,1.4299,1.4299,1.4299,1.4299,1.4299,1.4299,1.4299,1.4299,1.4299,1.4299,1.4319,1.438,1.4584,1.476,1.4828,1.5031,1.5181,1.5181,1.5181,1.5181,1.5181,1.5208,1.5242,1.5107,0.7795,0.2281,0.0191,-0.0,-0.0,-0.0,-0.0,-0.0,-0.0,-0.0,-0.0,-0.0,-0.0,-0.0,-0.0,-0.0,-0.0,-0.0,-0.0,-0.0,-0.0,-0.0,0.0,-0.0,-0.0,0.0,0.0,0.0,0.0,0.0,0.0,0.0,0.0,0.0,0.0,0.0,0.0,0.0,0.0,0.0,0.0,0.0,1.0419,1.0555,1.0711,1.0717,1.0839,1.1124,1.128,1.1436,1.1592,1.1613,1.1619,1.1619,1.1762,1.183,1.1837,1.2128,1.2196,1.2067,1.2203,1.2189,1.206,1.2047,1.204,1.204,1.204,1.2047,1.2088,1.2352,1.2556,1.2725,1.2881,1.3125,1.3376,1.3397,1.3403,1.3403,1.3403,1.3403,1.3403,1.3403,1.3403,1.3431,1.3587,1.3844,1.4102,1.4238,1.4285,1.4299,1.4299,1.4299,1.4299,1.4299,1.4299,1.4299,1.4299,1.4299,1.434,1.4468,1.4624,1.4787,1.4923,1.5079,1.5181,1.5181,1.5181,1.5181,1.5181,1.5181,1.5215,1.5107,1.0465,0.5513,0.0382,-0.0,-0.0,-0.0,-0.0,-0.0,-0.0,-0.0,-0.0,-0.0,-0.0,-0.0,-0.0,-0.0,-0.0,-0.0,-0.0,-0.0,-0.0,-0.0,0.0,-0.0,-0.0,0.0,0.0,0.0,0.0,0.0,0.0,0.0,0.0,0.0,0.0,0.0,0.0,0.0,0.0,0.0,0.0,0.0,1.0473,1.0555,1.0711,1.0717,1.0799,1.0982,1.1131,1.1274,1.143,1.1552,1.1619,1.1619,1.1762,1.183,1.183,1.202,1.2088,1.206,1.2094,1.2088,1.2054,1.1932,1.1877,1.1877,1.1877,1.1952,1.2067,1.2128,1.2311,1.2562,1.2718,1.2963,1.3234,1.3356,1.3403,1.3403,1.3403,1.3403,1.3403,1.3403,1.3403,1.3431,1.3587,1.3844,1.4082,1.4109,1.4204,1.4299,1.4299,1.4299,1.4299,1.4299,1.4299,1.4299,1.4299,1.4299,1.4306,1.434,1.4563,1.4753,1.478,1.5011,1.5181,1.5181,1.5181,1.5181,1.5181,1.5181,1.5215,1.5107,1.0465,0.5513,0.0382,-0.0,-0.0,-0.0,-0.0,-0.0,-0.0,-0.0,-0.0,-0.0,-0.0,-0.0,-0.0,-0.0,-0.0,-0.0,-0.0,-0.0,-0.0,-0.0,0.0,0.0,0.0,0.0,0.0,0.0,0.0,0.0,0.0,0.0,0.0,0.0,0.0,0.0,0.0,0.0,0.0,0.0,0.0,0.0,1.0609,1.0636,1.0717,1.1505,1.2132,1.2391,1.2475,1.2635,1.2894,1.2001,1.1619,1.1619,1.1687,1.1728,1.1728,1.1877,1.1911,1.1843,1.1918,1.1904,1.1837,1.1762,1.1728,1.1728,1.1728,1.1769,1.1857,1.2006,1.2196,1.2413,1.2562,1.2854,1.3186,1.3261,1.3336,1.3403,1.3403,1.3403,1.3403,1.3403,1.3403,1.3431,1.3587,1.3783,1.3973,1.4055,1.4183,1.4299,1.4299,1.4299,1.4299,1.4299,1.4299,1.4299,1.4299,1.4299,1.4299,1.4299,1.4482,1.4652,1.4726,1.493,1.5106,1.5174,1.5181,1.5181,1.5181,1.5181,1.5208,1.5269,1.046,0.5508,0.0381,-0.0,-0.0,-0.0,-0.0,-0.0,-0.0,-0.0,-0.0,-0.0,-0.0,-0.0,-0.0,-0.0,-0.0,0.1242,0.1538,0.1457,0.0901,0.0404,-0.0,0.0,0.0,0.0,0.0,0.0,0.0,0.0,0.0,0.0,0.0,0.0,0.0,0.0,0.0,0.0,0.0,0.0,0.0,0.0,1.0649,1.069,1.0717,1.225,1.3434,1.3942,1.4266,1.4578,1.4929,1.3436,1.2753,1.2753,1.2753,1.2753,1.261,1.2735,1.2728,1.261,1.2453,1.2294,1.2187,1.1763,1.1619,1.1619,1.1619,1.1619,1.164,1.1884,1.2067,1.2223,1.24,1.2725,1.3091,1.3152,1.3275,1.3403,1.3403,1.3403,1.3403,1.3403,1.3403,1.3424,1.3553,1.3688,1.3838,1.3987,1.4143,1.4265,1.4292,1.4299,1.4299,1.4299,1.4299,1.4299,1.4299,1.4299,1.4299,1.4299,1.4421,1.4563,1.4719,1.4869,1.5025,1.5167,1.5181,1.5181,1.5181,1.5181,1.5201,1.5248,1.1406,0.6453,0.038,-0.0,-0.0,-0.0,-0.0,-0.0,-0.0,-0.0,-0.0,-0.0,-0.0,-0.0,-0.0,-0.0,-0.0,0.5811,0.7063,0.6548,0.4121,0.1708,-0.0,-0.0,0.0,-0.0,-0.0,0.0,0.0,0.0,0.0,0.0,0.0,0.0,0.0,0.0,0.0,0.0,0.0,0.0,0.0,0.0,0.0,1.0575,1.0711,1.2141,1.3362,1.3746,1.5404,1.643,1.6668,1.6588,1.6545,1.6545,1.6545,1.6545,1.6545,1.6574,1.6574,1.6554,1.4875,1.4173,1.4014,1.2323,1.1619,1.1619,1.1619,1.1619,1.1619,1.1653,1.1755,1.1918,1.221,1.2515,1.282,1.3078,1.3275,1.3403,1.3403,1.3403,1.3403,1.3403,1.3403,1.3403,1.3424,1.3539,1.3688,1.3831,1.398,1.4129,1.4272,1.4299,1.4299,1.4299,1.4299,1.4299,1.4299,1.4299,1.4299,1.4299,1.4421,1.4563,1.4719,1.4869,1.5025,1.5167,1.5181,1.5181,1.5181,1.5181,1.5201,1.5248,1.4676,1.0262,0.057,-0.0,-0.0,-0.0,-0.0,-0.0,-0.0,-0.0,-0.0,-0.0,-0.0,-0.0,-0.0,-0.0,-0.0,0.5461,0.7459,0.837,0.6769,0.5452,0.3877,0.0709,-0.0,-0.0,-0.0,0.0,0.0,0.0,0.0,0.0,0.0,-0.0,0.0,0.0,0.0,0.0,0.0,0.0,0.0,0.0,0.0,0.0,0.0,0.0,1.3616,1.529,1.6201,1.7297,1.8772,1.7767,1.7248,1.7248,1.7248,1.7248,1.7248,1.7248,1.7248,1.7107,1.6404,1.5981,1.5981,1.5141,1.4298,1.3167,1.3167,1.2602,1.1619,1.1619,1.1708,1.1857,1.2074,1.24,1.2759,1.2976,1.3207,1.3403,1.3403,1.3403,1.3403,1.3403,1.3403,1.3403,1.3403,1.3512,1.3641,1.3702,1.3892,1.4089,1.415,1.4238,1.4299,1.4299,1.4299,1.4299,1.4299,1.4299,1.4299,1.4299,1.4346,1.4441,1.4584,1.4665,1.4787,1.5031,1.5059,1.5092,1.5174,1.5181,1.5194,1.5208,1.5235,1.3323,0.9118,0.3227,-0.0,-0.0,-0.0,-0.0,-0.0,-0.0,-0.0,-0.0,-0.0,-0.0,-0.0,-0.0,-0.0,0.597,0.7577,0.8998,0.8415,0.8081,0.6806,0.2158,0.0507,-0.0,-0.0,-0.0,0.0,0.0,0.0,-0.0,-0.0,0.0,-0.0,0.0,0.0,0.0,0.0,0.0,0.0,0.0,0.0,0.0,0.0,0.0,0.0,1.559,1.6778,1.8193,1.9933,1.9172,1.8787,1.8787,1.8787,1.8787,1.8787,1.8787,1.8787,1.8787,1.8229,1.7949,1.7949,1.7388,1.6404,1.5132,1.4574,1.3587,1.2323,1.1756,1.1681,1.1789,1.1945,1.2257,1.263,1.2779,1.3057,1.3342,1.339,1.3403,1.3403,1.3403,1.3403,1.3403,1.3403,1.3485,1.3573,1.362,1.3817,1.4021,1.4061,1.419,1.4299,1.4299,1.4265,1.4251,1.4292,1.4231,1.4204,1.4285,1.4299,1.4346,1.4489,1.4509,1.4604,1.4875,1.4909,1.4964,1.5106,1.5126,1.514,1.5181,1.5215,1.5242,1.5262,0.5697,-0.0,-0.0,-0.0,-0.0,-0.0,-0.0,-0.0,-0.0,-0.0,-0.0,-0.0,-0.0,-0.0,0.8933,0.8838,0.8694,0.8859,0.8407,0.7256,0.4523,0.1859,-0.0,-0.0,-0.0,-0.0,-0.0,-0.0,-0.0,-0.0,-0.0,0.0,0.0,0.0,0.0,0.0,0.0,0.0,0.0,0.0,0.0,0.0,0.0,0.0,1.3526,1.7064,1.9291,1.9787,2.1731,2.2722,2.2722,2.2722,2.2722,2.2722,2.2722,2.2722,2.2722,2.0894,2.0063,1.9912,1.7949,1.7107,1.6967,1.5132,1.429,1.4148,1.2323,1.1619,1.1647,1.1782,1.2033,1.2325,1.2467,1.2807,1.3207,1.3356,1.3403,1.3403,1.3403,1.3403,1.3403,1.3403,1.3403,1.3444,1.3593,1.3736,1.3885,1.4034,1.419,1.4299,1.4299,1.4183,1.4122,1.4272,1.4061,1.3953,1.4251,1.4299,1.4346,1.4489,1.4509,1.457,1.4726,1.4746,1.4808,1.4964,1.4977,1.5031,1.5167,1.5181,1.5221,1.5107,0.5702,-0.0,-0.0,-0.0,-0.0,-0.0,-0.0,-0.0,-0.0,-0.0,-0.0,-0.0,-0.0,-0.0,0.0,0.0,0.951,0.9408,0.9178,0.8323,0.5554,0.3711,0.2111,0.0403,0.1409,0.3448,0.6063,0.2974,-0.0,-0.0,-0.0,-0.0,0.0,0.0,0.0,0.0,0.0,0.0,0.0,0.0,0.0,0.0,0.0,0.0,0.0,1.4744,1.6828,1.9776,2.044,2.1543,2.2859,2.2859,2.2859,2.2859,2.2859,2.2859,2.2859,2.2297,2.2022,2.1885,2.1308,2.0328,1.9077,1.8369,1.6685,1.429,1.3729,1.2745,1.164,1.1775,1.2026,1.2338,1.2684,1.2901,1.3057,1.32,1.3247,1.3268,1.337,1.3268,1.3152,1.3349,1.3329,1.3288,1.3437,1.3654,1.3851,1.3905,1.4116,1.4299,1.4299,1.4183,1.4089,1.4136,1.398,1.3905,1.4116,1.415,1.4197,1.4346,1.4285,1.4278,1.4428,1.436,1.4394,1.4638,1.476,1.4875,1.5031,1.5153,1.5248,1.5107,1.2031,0.7055,0.0191,-0.0,-0.0,-0.0,-0.0,-0.0,-0.0,-0.0,-0.0,-0.0,-0.0,-0.0,0.9585,0.9788,0.0,0.9869,0.9673,0.0,0.7225,0.6221,0.5324,0.3834,0.3754,0.5093,0.8635,0.6088,0.2746,0.0419,-0.0,-0.0,0.0,-0.0,0.0,0.0,0.0,0.0,0.0,0.0,0.0,0.0,0.0,0.0,0.0,0.0,1.476,1.7707,1.8501,1.9875,2.1872,2.1872,2.2297,2.2859,2.2859,2.2859,2.2859,2.2859,2.2859,2.2859,2.2859,2.216,2.1032,2.034,1.8648,1.6404,1.5698,1.4298,1.2474,1.2004,1.1945,1.2257,1.2603,1.2827,1.2976,1.3064,1.3166,1.3261,1.3308,1.3186,1.3078,1.3268,1.3247,1.3207,1.3363,1.358,1.3763,1.3763,1.4,1.4204,1.415,1.4061,1.4007,1.4061,1.3858,1.377,1.4027,1.3987,1.398,1.419,1.4136,1.4089,1.4129,1.4055,1.4082,1.4326,1.4489,1.4665,1.4869,1.5099,1.4448,1.2522,1.2533,0.8743,0.0382,-0.0,-0.0,-0.0,-0.0,-0.0,-0.0,-0.0,-0.0,-0.0,-0.0,-0.0]},{"header":{"parameterUnit":"m.s-1","parameterCategory":1,"la1":30.6,"la2":29.2853,"lo1":-89.7004,"lo2":-87.6739,"dx":0.0162,"dy":0.0183,"nx":112,"ny":82,"refTime":"2022-11-11T06:00:00:Z","depth":0,"parameterNumber":3,"parameterNumberName":"V-component_of_WINDS"},"data":[0.0,0.0,0.0,0.0,0.0,0.0,0.0,0.0,0.0,0.0,0.0,0.0,0.0,0.0,0.0,0.0,0.0,0.0,0.0,0.0,0.0,0.0,0.0,0.0,0.0,0.0,0.0,0.0,0.0,0.0,0.0,0.0,0.0,0.0,0.0,0.0,0.0,0.0,0.0,0.0,0.0,0.0,0.0,0.0,0.0,0.0,0.0,0.0,0.0,0.0,0.0,0.0,0.0,0.0,0.0,0.0,0.0,0.0,0.0,0.0,0.0,0.0,0.0,0.0,0.0,0.0,0.0,0.0,0.0,0.0,0.0,0.0,0.0,0.0,0.0,0.0,0.0,0.0,0.0,0.0,0.0,0.0,0.0,0.0,0.0,0.0,0.0,0.0,0.0,0.0,0.0,-4.9644,-5.126,-5.2685,-5.3706,-5.3917,-5.2602,-4.9296,0.0,0.0,0.0,0.0,0.0,0.0,0.0,0.0,0.0,0.0,0.0,0.0,0.0,0.0,0.0,0.0,0.0,0.0,0.0,0.0,0.0,0.0,0.0,0.0,0.0,0.0,0.0,0.0,0.0,0.0,0.0,0.0,0.0,0.0,0.0,0.0,0.0,0.0,0.0,0.0,0.0,0.0,0.0,0.0,0.0,0.0,0.0,0.0,0.0,0.0,0.0,0.0,0.0,0.0,0.0,0.0,0.0,0.0,0.0,0.0,0.0,0.0,0.0,0.0,0.0,0.0,0.0,0.0,0.0,0.0,0.0,0.0,0.0,0.0,0.0,0.0,0.0,0.0,0.0,0.0,0.0,0.0,0.0,0.0,0.0,0.0,0.0,0.0,0.0,0.0,0.0,0.0,0.0,0.0,0.0,0.0,0.0,0.0,0.0,0.0,0.0,0.0,0.0,0.0,-4.8933,-5.1259,-5.2433,-5.3492,-5.4621,-5.4723,-5.3368,-5.0195,0.0,0.0,0.0,0.0,0.0,0.0,0.0,0.0,0.0,0.0,0.0,0.0,0.0,0.0,0.0,0.0,0.0,0.0,0.0,0.0,0.0,0.0,0.0,0.0,0.0,0.0,0.0,0.0,0.0,0.0,0.0,0.0,0.0,0.0,0.0,0.0,0.0,0.0,0.0,0.0,0.0,0.0,0.0,0.0,0.0,0.0,0.0,0.0,0.0,0.0,0.0,0.0,0.0,0.0,0.0,0.0,0.0,0.0,0.0,0.0,0.0,0.0,0.0,0.0,0.0,0.0,0.0,0.0,0.0,0.0,0.0,0.0,0.0,0.0,0.0,0.0,0.0,0.0,0.0,0.0,0.0,0.0,0.0,0.0,0.0,0.0,0.0,0.0,0.0,0.0,0.0,0.0,0.0,0.0,0.0,0.0,0.0,0.0,0.0,0.0,0.0,0.0,0.0,-4.8509,-5.0471,-5.3049,-5.3723,-5.4439,-5.5526,-5.5657,-5.4142,-5.0429,-5.0625,0.0,0.0,0.0,0.0,0.0,0.0,0.0,0.0,0.0,0.0,0.0,0.0,0.0,0.0,0.0,0.0,0.0,0.0,0.0,0.0,0.0,0.0,0.0,0.0,0.0,0.0,0.0,0.0,0.0,0.0,0.0,0.0,0.0,0.0,0.0,0.0,0.0,0.0,0.0,0.0,0.0,0.0,0.0,0.0,0.0,0.0,0.0,0.0,0.0,0.0,0.0,0.0,0.0,0.0,0.0,0.0,0.0,0.0,0.0,0.0,0.0,0.0,0.0,0.0,0.0,0.0,0.0,0.0,0.0,0.0,0.0,0.0,0.0,0.0,0.0,0.0,0.0,0.0,0.0,0.0,0.0,0.0,0.0,0.0,0.0,0.0,0.0,0.0,0.0,0.0,0.0,0.0,0.0,0.0,0.0,0.0,0.0,0.0,0.0,0.0,0.0,0.0,-5.0394,-5.2049,-5.3972,-5.4475,-5.4975,-5.5801,-5.5807,-5.4142,-5.0429,-5.0586,0.0,0.0,0.0,0.0,0.0,0.0,0.0,0.0,0.0,0.0,0.0,0.0,0.0,0.0,0.0,0.0,0.0,0.0,0.0,0.0,0.0,0.0,0.0,0.0,0.0,0.0,0.0,0.0,0.0,0.0,0.0,0.0,0.0,0.0,0.0,0.0,0.0,0.0,0.0,0.0,0.0,0.0,0.0,0.0,0.0,0.0,0.0,0.0,0.0,0.0,0.0,0.0,0.0,0.0,0.0,0.0,0.0,0.0,0.0,0.0,0.0,0.0,0.0,0.0,0.0,0.0,0.0,0.0,0.0,0.0,0.0,0.0,0.0,0.0,0.0,0.0,0.0,0.0,0.0,0.0,0.0,0.0,0.0,0.0,0.0,0.0,0.0,0.0,0.0,0.0,0.0,0.0,0.0,0.0,0.0,0.0,0.0,0.0,0.0,0.0,0.0,0.0,-5.101,-5.3087,-5.328,-5.401,-5.4647,-5.4975,-5.4241,-5.2777,-5.0351,-4.9492,0.0,0.0,0.0,0.0,0.0,0.0,0.0,0.0,0.0,0.0,0.0,0.0,0.0,0.0,0.0,0.0,0.0,0.0,0.0,0.0,0.0,0.0,0.0,0.0,0.0,0.0,0.0,0.0,0.0,0.0,0.0,0.0,0.0,0.0,0.0,0.0,0.0,0.0,0.0,0.0,0.0,0.0,0.0,0.0,0.0,0.0,0.0,0.0,0.0,0.0,0.0,0.0,0.0,0.0,0.0,0.0,0.0,0.0,0.0,0.0,0.0,0.0,0.0,0.0,0.0,0.0,0.0,0.0,0.0,0.0,0.0,0.0,0.0,0.0,0.0,0.0,0.0,0.0,0.0,0.0,0.0,0.0,0.0,0.0,0.0,0.0,0.0,0.0,0.0,0.0,0.0,0.0,0.0,0.0,0.0,0.0,0.0,0.0,0.0,0.0,0.0,0.0,-5.1433,-5.3587,0.0,-5.5049,-5.5357,-5.5686,-5.5419,-5.3986,-5.1132,0.0,0.0,0.0,0.0,0.0,0.0,0.0,0.0,0.0,0.0,0.0,0.0,0.0,0.0,0.0,0.0,0.0,0.0,0.0,0.0,0.0,0.0,0.0,0.0,0.0,0.0,0.0,0.0,0.0,0.0,0.0,0.0,0.0,0.0,0.0,0.0,0.0,0.0,0.0,0.0,0.0,0.0,0.0,0.0,0.0,0.0,0.0,0.0,0.0,0.0,0.0,0.0,0.0,0.0,0.0,0.0,0.0,0.0,0.0,0.0,0.0,0.0,0.0,0.0,0.0,0.0,0.0,0.0,0.0,0.0,0.0,0.0,0.0,0.0,0.0,0.0,0.0,0.0,0.0,0.0,0.0,0.0,0.0,0.0,0.0,0.0,0.0,0.0,0.0,0.0,0.0,0.0,0.0,0.0,0.0,0.0,0.0,0.0,0.0,0.0,0.0,0.0,-4.874,-5.1702,-5.4164,0.0,-5.5742,-5.5857,-5.6186,-5.5719,-5.4273,-5.1557,0.0,0.0,0.0,0.0,0.0,0.0,0.0,0.0,0.0,0.0,0.0,0.0,0.0,0.0,0.0,0.0,0.0,0.0,0.0,0.0,0.0,0.0,0.0,0.0,0.0,0.0,0.0,0.0,0.0,0.0,0.0,0.0,0.0,0.0,0.0,0.0,0.0,0.0,0.0,0.0,0.0,0.0,0.0,0.0,0.0,0.0,0.0,0.0,0.0,0.0,0.0,0.0,0.0,0.0,0.0,0.0,0.0,0.0,0.0,0.0,0.0,0.0,0.0,0.0,0.0,0.0,0.0,0.0,0.0,0.0,0.0,0.0,0.0,0.0,0.0,0.0,0.0,0.0,0.0,0.0,0.0,0.0,0.0,0.0,0.0,0.0,0.0,0.0,0.0,0.0,0.0,0.0,0.0,0.0,0.0,0.0,0.0,0.0,0.0,0.0,0.0,0.0,-4.7971,-5.1856,-5.4818,-5.5588,-5.5818,-5.5994,-5.6186,-5.4759,-5.3107,0.0,0.0,0.0,0.0,0.0,0.0,0.0,0.0,0.0,0.0,0.0,0.0,0.0,0.0,0.0,0.0,0.0,0.0,0.0,0.0,0.0,0.0,0.0,0.0,0.0,0.0,0.0,0.0,0.0,0.0,0.0,0.0,0.0,0.0,0.0,0.0,0.0,0.0,0.0,0.0,0.0,0.0,0.0,0.0,0.0,0.0,0.0,0.0,0.0,0.0,0.0,0.0,0.0,0.0,0.0,0.0,0.0,0.0,0.0,0.0,0.0,0.0,0.0,0.0,0.0,0.0,0.0,0.0,0.0,0.0,0.0,0.0,0.0,0.0,0.0,0.0,0.0,0.0,0.0,0.0,0.0,0.0,0.0,0.0,0.0,0.0,0.0,0.0,0.0,0.0,0.0,0.0,0.0,0.0,0.0,0.0,0.0,0.0,0.0,0.0,0.0,0.0,0.0,-4.724,-5.151,-5.4626,-5.4955,-5.6071,-5.6939,-5.7208,-5.7324,-5.5891,-5.243,0.0,0.0,0.0,0.0,0.0,0.0,0.0,0.0,0.0,0.0,0.0,0.0,0.0,0.0,0.0,0.0,0.0,0.0,0.0,0.0,0.0,0.0,0.0,0.0,0.0,0.0,0.0,0.0,0.0,0.0,0.0,0.0,0.0,0.0,0.0,0.0,0.0,0.0,0.0,0.0,0.0,0.0,0.0,0.0,0.0,0.0,0.0,0.0,0.0,0.0,0.0,0.0,0.0,0.0,0.0,0.0,0.0,0.0,0.0,0.0,0.0,0.0,0.0,0.0,0.0,0.0,0.0,0.0,0.0,0.0,0.0,0.0,0.0,0.0,0.0,0.0,0.0,0.0,0.0,0.0,0.0,0.0,0.0,0.0,0.0,0.0,0.0,0.0,0.0,0.0,0.0,0.0,0.0,0.0,0.0,0.0,0.0,0.0,0.0,0.0,0.0,0.0,-4.8317,-5.2338,-5.5378,-5.6148,-5.7208,-5.7961,-5.8154,-5.8723,-5.7629,-5.4315,0.0,0.0,0.0,0.0,0.0,0.0,0.0,0.0,0.0,0.0,0.0,0.0,0.0,0.0,0.0,0.0,0.0,0.0,0.0,0.0,0.0,0.0,0.0,0.0,0.0,0.0,0.0,0.0,0.0,0.0,0.0,0.0,0.0,0.0,0.0,0.0,0.0,0.0,0.0,0.0,0.0,0.0,0.0,0.0,0.0,0.0,0.0,0.0,0.0,0.0,0.0,0.0,0.0,0.0,0.0,0.0,0.0,0.0,0.0,0.0,0.0,0.0,0.0,0.0,0.0,0.0,0.0,0.0,0.0,0.0,0.0,0.0,0.0,0.0,0.0,0.0,0.0,0.0,0.0,0.0,0.0,0.0,0.0,0.0,0.0,0.0,0.0,0.0,0.0,0.0,0.0,0.0,0.0,0.0,0.0,0.0,0.0,0.0,0.0,0.0,0.0,0.0,-5.0414,-5.3743,-5.6575,-5.8248,-5.8792,-5.9065,-5.9128,-5.9474,-5.8828,-5.6873,0.0,0.0,0.0,0.0,0.0,0.0,0.0,0.0,0.0,0.0,0.0,0.0,0.0,0.0,0.0,0.0,0.0,0.0,0.0,0.0,0.0,0.0,0.0,0.0,0.0,0.0,0.0,0.0,0.0,0.0,0.0,0.0,0.0,0.0,0.0,0.0,0.0,0.0,0.0,0.0,0.0,0.0,0.0,0.0,0.0,0.0,0.0,0.0,0.0,0.0,0.0,0.0,0.0,0.0,0.0,0.0,0.0,0.0,0.0,0.0,-4.5815,0.0,0.0,0.0,0.0,0.0,0.0,0.0,0.0,0.0,0.0,0.0,0.0,0.0,0.0,0.0,0.0,0.0,0.0,0.0,0.0,0.0,0.0,0.0,0.0,0.0,0.0,0.0,0.0,0.0,0.0,0.0,0.0,0.0,0.0,0.0,0.0,0.0,0.0,0.0,0.0,0.0,-4.9872,-5.3031,-5.5822,-5.7679,-5.9125,-6.0256,-6.1041,-6.2416,-6.2055,-5.9406,-5.8713,0.0,0.0,0.0,0.0,0.0,0.0,0.0,0.0,0.0,0.0,0.0,0.0,0.0,0.0,0.0,0.0,0.0,0.0,0.0,0.0,0.0,0.0,0.0,0.0,0.0,0.0,0.0,0.0,0.0,0.0,0.0,0.0,0.0,0.0,0.0,0.0,0.0,0.0,0.0,0.0,0.0,0.0,0.0,0.0,0.0,0.0,0.0,0.0,0.0,0.0,0.0,0.0,0.0,0.0,0.0,0.0,0.0,0.0,0.0,0.0,-4.7254,0.0,0.0,0.0,0.0,0.0,0.0,0.0,0.0,0.0,0.0,0.0,0.0,0.0,0.0,0.0,0.0,0.0,0.0,0.0,0.0,0.0,0.0,0.0,0.0,0.0,0.0,0.0,0.0,0.0,0.0,0.0,0.0,0.0,0.0,0.0,0.0,0.0,0.0,0.0,0.0,-5.2589,-5.5779,-5.8353,-5.9747,-6.1134,-6.2301,-6.326,-6.4541,-6.4606,-6.312,-6.1818,0.0,0.0,0.0,0.0,0.0,0.0,0.0,0.0,0.0,0.0,0.0,0.0,0.0,0.0,0.0,0.0,0.0,0.0,0.0,0.0,0.0,0.0,0.0,0.0,0.0,0.0,0.0,0.0,0.0,0.0,0.0,0.0,0.0,0.0,0.0,0.0,0.0,0.0,0.0,0.0,0.0,0.0,0.0,0.0,0.0,0.0,0.0,0.0,0.0,0.0,0.0,0.0,0.0,-4.8694,-4.9294,-5.0029,-5.1618,-5.2459,-5.2543,-5.1586,-5.1353,-5.1642,0.0,0.0,0.0,0.0,0.0,0.0,0.0,0.0,0.0,0.0,0.0,0.0,0.0,0.0,0.0,0.0,0.0,0.0,0.0,0.0,0.0,0.0,0.0,0.0,0.0,-5.4552,-5.5077,0.0,0.0,0.0,0.0,0.0,0.0,0.0,0.0,0.0,0.0,0.0,0.0,-5.6873,-5.9707,-6.1871,-6.2886,-6.3726,-6.4582,-6.5452,-6.6267,-6.6749,-6.671,-6.4612,-6.3281,0.0,0.0,0.0,0.0,0.0,0.0,0.0,0.0,0.0,0.0,0.0,0.0,0.0,0.0,0.0,0.0,0.0,0.0,0.0,0.0,0.0,0.0,0.0,0.0,0.0,0.0,0.0,0.0,0.0,0.0,0.0,0.0,-3.7233,-3.8155,0.0,0.0,0.0,0.0,0.0,0.0,0.0,0.0,0.0,0.0,0.0,0.0,0.0,-4.6286,-4.7028,-4.8783,-4.9999,-5.0656,-5.3,-5.4473,-5.5178,-5.6908,-5.8489,-5.9791,-5.9202,0.0,-5.4219,-5.4053,0.0,0.0,0.0,0.0,0.0,0.0,0.0,0.0,0.0,0.0,0.0,0.0,0.0,0.0,0.0,0.0,0.0,0.0,0.0,0.0,0.0,0.0,-5.8587,-5.9492,-6.0543,-6.1186,0.0,-5.7077,-5.4149,-5.4686,-5.4177,0.0,0.0,0.0,0.0,0.0,0.0,0.0,-6.132,-6.2698,-6.4007,-6.5595,-6.5905,-6.6332,-6.7192,-6.8065,-6.8475,-6.8308,-6.7962,-6.709,-6.5474,-6.3767,0.0,0.0,0.0,0.0,0.0,0.0,0.0,0.0,0.0,0.0,0.0,0.0,0.0,0.0,0.0,0.0,0.0,0.0,0.0,0.0,0.0,0.0,0.0,0.0,0.0,0.0,0.0,0.0,0.0,-3.7781,-3.8808,-3.9569,-4.0338,-4.0651,0.0,0.0,0.0,0.0,0.0,0.0,0.0,0.0,0.0,-4.6168,-4.7068,-4.8119,-4.9374,-5.1206,-5.2714,-5.3908,-5.5611,-5.7247,-5.8915,-6.0134,-6.1618,-6.313,-6.3384,-6.2552,-6.0853,-5.9281,-5.8936,-5.9258,0.0,0.0,0.0,0.0,-5.7819,-5.7627,-5.9781,-6.134,0.0,-6.1967,0.0,0.0,0.0,0.0,0.0,0.0,0.0,0.0,0.0,0.0,-6.3441,-6.4455,-6.5286,-6.572,-6.5295,-6.3738,-6.1736,0.0,-5.8564,-5.755,-5.5322,0.0,0.0,0.0,0.0,-6.1885,-6.3566,-6.4859,-6.6103,-6.7359,-6.8294,-6.9448,-7.0805,-7.1678,-7.2101,-7.2052,-7.1629,-7.1014,-7.0206,-6.8052,-6.5551,0.0,0.0,0.0,0.0,0.0,0.0,0.0,0.0,0.0,0.0,0.0,0.0,0.0,0.0,0.0,0.0,0.0,0.0,0.0,0.0,0.0,0.0,0.0,0.0,0.0,0.0,0.0,0.0,-3.9455,-4.0217,-4.0977,-4.1501,-4.1732,0.0,0.0,0.0,0.0,0.0,0.0,-4.6562,-4.6863,-4.7294,-4.7835,-4.9135,-5.0385,-5.159,-5.3557,-5.5186,-5.6403,-5.7698,-5.9373,-6.1334,-6.2642,-6.4218,-6.5936,-6.6821,-6.7436,-6.7602,-6.4402,-6.3345,-6.3705,-6.3565,-6.2796,-6.1935,-6.3243,-6.3012,-6.2435,-6.4782,-6.6167,-6.6898,-6.6898,0.0,-6.5974,-6.4666,0.0,0.0,0.0,0.0,-6.4243,-6.6692,-6.75,-6.791,-6.8905,-6.9481,-6.969,-6.9047,-6.9306,-6.8359,0.0,-6.2719,-6.1796,-5.9358,0.0,0.0,0.0,0.0,-6.5449,-6.6845,-6.8025,-6.8975,-6.9629,-7.0821,-7.2091,-7.3399,-7.4053,-7.4399,-7.4399,-7.3822,-7.3514,-7.3514,-7.1668,-6.959,-6.7308,0.0,0.0,0.0,0.0,0.0,0.0,0.0,0.0,0.0,0.0,0.0,0.0,0.0,0.0,0.0,0.0,0.0,0.0,0.0,0.0,0.0,0.0,0.0,0.0,0.0,0.0,0.0,0.0,0.0,-4.1952,-4.3489,0.0,0.0,0.0,0.0,-4.4998,-4.6406,-4.7312,-4.7318,-4.8777,-4.9629,-4.9673,-5.2061,-5.3374,-5.3454,-5.5934,-5.7203,-5.7143,-5.9642,-6.1257,-6.2127,-6.4589,-6.709,-6.9475,-7.0283,-7.1591,-7.2783,-6.8564,-6.7295,-6.8013,-6.7167,-6.7321,-6.7975,-6.8052,-6.8552,-6.9436,-7.1168,-7.2322,-7.3053,-7.3053,-7.1937,-7.0129,-6.7667,-6.6859,0.0,0.0,-6.6859,-6.8475,-7.0206,-7.1283,-7.2091,-7.3014,-7.3245,-7.3245,-7.3206,-7.3245,-7.2206,0.0,-6.7359,-6.6244,-6.4512,0.0,-6.5782,-6.659,-6.8244,-7.0283,-7.2745,-7.3129,-7.3206,-7.3245,-7.3322,-7.3399,-7.3514,-7.3553,-7.3553,-7.3553,-7.3514,-7.3514,-7.3514,-7.3399,-7.258,-7.0952,-6.8437,0.0,0.0,0.0,0.0,0.0,0.0,0.0,0.0,0.0,0.0,0.0,0.0,0.0,0.0,0.0,0.0,0.0,0.0,0.0,0.0,0.0,0.0,0.0,0.0,0.0,0.0,0.0,0.0,-4.2983,-4.359,0.0,-4.4392,-4.5522,-4.6596,-4.7461,-4.846,-4.9311,-4.9817,-5.0375,-5.0835,-5.1283,-5.2705,-5.3951,-5.4951,-5.7489,-5.8989,-5.9527,-6.1527,-6.3205,-6.4589,-6.659,-6.859,-7.0552,-7.1975,-7.2937,-7.3437,-7.2399,-7.186,-7.1668,-7.136,-7.1398,-7.1745,-7.2283,-7.2668,-7.3091,-7.4245,-7.4861,-7.513,-7.513,-7.4707,-7.4014,-7.3091,-7.2822,-7.286,-7.3168,-7.3668,-7.4361,-7.5515,-7.563,-7.5553,-7.5861,-7.5091,-7.4284,-7.4284,-7.386,-7.3129,-7.1937,-7.1437,-7.086,-6.9706,-7.0206,-7.0706,-7.0398,-7.1398,-7.2476,-7.3399,-7.3514,-7.3707,-7.4207,-7.4784,-7.5553,-7.663,-7.6707,-7.7207,-7.8323,-7.7323,-7.7015,-7.7707,-7.6707,-7.5668,-7.4697,-7.3231,-6.9786,0.0,0.0,0.0,0.0,0.0,0.0,0.0,0.0,0.0,0.0,0.0,0.0,0.0,0.0,0.0,0.0,0.0,0.0,0.0,0.0,0.0,0.0,0.0,0.0,0.0,0.0,-4.3509,-4.4364,-4.4687,-4.5226,-4.6027,-4.6976,-4.8006,-4.9121,-4.9937,-5.0587,-5.1068,-5.1299,-5.1625,-5.201,-5.3703,-5.5241,-5.6549,-5.9088,-6.0781,-6.1666,-6.3089,-6.4628,-6.6359,-6.7782,-6.9475,-7.1398,-7.286,-7.3668,-7.3976,-7.4822,-7.4822,-7.4361,-7.4361,-7.4361,-7.4399,-7.4938,-7.513,-7.5207,-7.5784,-7.6015,-7.6015,-7.6092,-7.6092,-7.6169,-7.6544,-7.6592,-7.6707,-7.7553,-7.7746,-7.7823,-7.8361,-7.79,-7.7284,-7.7284,-7.6207,-7.5207,-7.5515,-7.4976,-7.4591,-7.5168,-7.4322,-7.3129,-7.1975,-7.2245,-7.2245,-7.1091,-7.1668,-7.2206,-7.2206,-7.3206,-7.413,-7.463,-7.5976,-7.7284,-7.84,-7.7438,-7.79,-8.0516,-7.8314,-7.7852,-7.99,-7.761,-7.6121,-7.5746,-7.4127,-7.0951,-6.61,0.0,0.0,0.0,0.0,0.0,0.0,0.0,0.0,0.0,0.0,0.0,0.0,0.0,0.0,0.0,0.0,0.0,0.0,0.0,0.0,0.0,0.0,0.0,-4.3542,-4.4492,-4.5294,-4.6086,-4.6916,-4.773,-4.8466,-4.9415,-4.9941,-4.9858,-5.0697,-5.1145,-5.0952,-5.1702,-5.2087,-5.201,-5.528,-5.7473,-5.8357,-6.0896,-6.2551,-6.3358,-6.4243,-6.5513,-6.7128,-6.8052,-6.9821,-7.2206,-7.3129,-7.3937,-7.4745,-7.5592,-7.5976,-7.5976,-7.5976,-7.6015,-7.6015,-7.6015,-7.6015,-7.6015,-7.6015,-7.6053,-7.6092,-7.6284,-7.639,-7.6573,-7.7641,-7.7805,-7.7814,-7.8622,-7.8699,-7.8554,-7.8592,-7.7977,-7.7361,-7.74,-7.6707,-7.6284,-7.7169,-7.6823,-7.689,-7.8498,-7.6034,-7.3157,-7.1437,-7.1168,-7.0591,-6.8975,-6.9436,0.0,-6.9975,-7.2822,-7.4784,-7.4668,-7.6938,-7.8438,-7.84,-7.5476,-7.5476,-7.9631,-7.6226,-7.5803,-7.9746,-7.6095,-7.4062,-7.417,-7.1134,-6.9967,-7.0836,0.0,0.0,0.0,0.0,0.0,0.0,0.0,0.0,0.0,0.0,0.0,0.0,0.0,0.0,0.0,0.0,0.0,0.0,0.0,0.0,0.0,0.0,-4.5607,-4.5448,-4.5551,-4.6208,-4.7648,-4.8034,-4.8548,-4.9346,-4.9668,-5.008,-5.0695,-5.1432,-5.1818,-5.1779,-5.251,-5.3433,-5.4626,-5.678,-5.8627,-6.0089,-6.2627,-6.4012,-6.4282,-6.5705,-6.6628,-6.7167,-6.9244,-7.0591,-7.1321,-7.286,-7.363,-7.3899,-7.4707,-7.5053,-7.513,-7.5745,-7.6015,-7.6015,-7.6015,-7.6092,-7.6245,-7.6361,-7.6852,-7.7391,-7.7429,-7.7882,-7.8437,-7.8748,-7.8787,-7.8941,-7.972,-7.9922,-8.0008,-8.0662,-7.9746,-7.8754,-7.9392,-7.843,-7.7651,-7.8498,-7.8536,-7.8563,-7.898,-7.8282,-7.7465,-7.6993,-7.6899,-7.6762,-7.6299,-7.6442,0.0,-7.6569,-7.7379,-7.6966,-7.4312,-7.6438,-7.7476,-7.6072,-7.6929,-7.8874,-8.1947,-8.0491,-8.0369,-8.2259,-8.0058,-7.8612,-7.8137,-7.4861,-7.3299,0.0,0.0,0.0,0.0,0.0,0.0,0.0,0.0,0.0,0.0,0.0,0.0,0.0,0.0,0.0,0.0,0.0,0.0,0.0,0.0,0.0,0.0,-4.6885,-4.8528,-4.9104,-4.7918,-4.7467,-4.8811,-4.8943,-4.9279,-5.0106,-5.0529,-5.0969,-5.1407,-5.2201,-5.2779,-5.3087,-5.3818,-5.5011,-5.6742,-5.8434,-6.0165,-6.182,-6.3666,-6.4782,-6.5166,-6.6474,-6.7282,-6.7705,-6.9552,-7.0591,0.0,-7.236,-7.2976,-7.3014,-7.386,-7.4207,0.0,0.0,0.0,0.0,0.0,-7.6584,-7.7001,-7.7079,-7.7721,-7.8471,-7.8497,-7.8876,-7.935,-7.9801,-7.9908,-7.9988,-8.0847,-8.1289,-8.1591,-8.2133,-8.1219,-8.0304,-8.0817,-7.9656,-7.8673,-7.9525,-7.9455,-7.9499,-8.0229,-8.0124,0.0,-8.0467,-7.9183,-7.775,-7.6686,-7.6824,-7.6922,-7.6553,-7.7775,-7.7832,-7.5735,-7.7898,-7.9015,-7.7914,-7.8278,0.0,0.0,0.0,-8.1066,-8.1699,-8.069,0.0,0.0,0.0,0.0,0.0,0.0,0.0,0.0,-7.1758,-7.0898,0.0,0.0,0.0,0.0,0.0,0.0,0.0,0.0,0.0,0.0,0.0,0.0,0.0,0.0,0.0,0.0,-4.9457,-5.139,-5.364,-5.1449,-4.9779,-5.0221,-5.0298,-5.0529,-5.1202,-5.201,-5.2472,-5.2356,-5.3241,-5.4126,-5.4895,0.0,0.0,0.0,0.0,-6.1858,-6.3435,-6.432,-6.5166,-6.6051,-6.6859,-6.7705,-6.859,-6.9436,-7.0206,-7.0937,-7.1706,-7.2052,-7.2129,-7.2976,-7.3437,-7.3668,-7.5284,-7.6072,-7.636,-7.6688,-7.7326,-7.8054,-7.8104,0.0,0.0,-7.9525,-7.9662,-7.9919,-8.0861,-8.0937,-8.0937,-8.1914,-8.2482,-8.2805,-8.2999,-8.2337,-8.1636,-8.1753,-8.0546,-7.9624,-8.0442,-8.0145,-8.0203,-8.1733,-8.1524,-8.139,-8.2169,-7.9507,-7.6469,-7.4194,-7.4544,-7.4789,-7.4099,-7.6671,-7.8425,-7.8113,0.0,0.0,-8.1459,-7.9671,-8.0182,-8.4026,-8.1657,-8.0114,-8.0116,-8.0046,-7.8953,-7.6669,-7.6809,-7.8047,-8.0273,-8.0273,-8.1484,-8.3594,-7.6562,-7.4609,0.0,0.0,0.0,0.0,0.0,0.0,0.0,0.0,0.0,0.0,0.0,0.0,0.0,0.0,0.0,-5.3109,-5.5186,-5.6906,-5.7297,-5.6797,-5.5912,-5.4664,-5.4511,-5.4587,-5.4703,-5.4895,-5.4972,-5.4972,-5.578,-5.6665,-5.7511,-5.8319,-5.955,-6.132,-6.232,-6.332,-6.4359,-6.5205,-6.6051,-6.6859,0.0,0.0,-6.9475,-7.0283,-7.0744,-7.0898,-7.1091,-7.1168,-7.1206,-7.2091,-7.2937,-7.3755,-7.4784,-7.577,-7.6651,-7.7537,-7.842,-7.9105,-7.9283,-7.9912,-8.0652,-8.067,-8.1167,-8.1764,-8.199,-8.1523,0.0,-8.2851,-8.2379,-8.1706,-8.3112,-8.2331,-8.1316,-8.2019,-8.1394,-8.0889,-8.1748,-8.1812,-8.1831,-8.2182,-8.2125,-8.21,-8.2256,-8.1709,-8.1045,-8.054,-8.0618,-8.0891,-8.1438,-8.2102,-8.1633,-7.9446,-8.1602,-8.2336,-8.0119,-8.1509,-8.3151,-8.4677,-8.4199,-8.3854,-8.3867,-8.3847,-8.3594,-8.3101,-8.3122,-8.3398,-8.3906,-8.3906,-8.414,-8.4609,-8.2383,-8.1992,0.0,0.0,0.0,0.0,0.0,0.0,0.0,0.0,0.0,0.0,0.0,-5.3621,-5.3909,0.0,-5.778,-5.7665,-5.9488,-6.1027,-6.1396,-6.1435,-6.0165,-5.6742,-5.6742,-5.6819,-5.6395,-5.7088,-5.7588,-5.7588,-5.8396,-5.9281,-6.0165,-6.0589,-6.1589,-6.3281,-6.3743,-6.4551,-6.582,-6.6282,-6.6898,-6.7744,-6.8629,-6.9321,-6.9821,-7.0667,-7.1091,-7.1206,-7.1206,-7.1206,-7.1206,-7.1668,-7.2168,-7.2822,-7.4148,-7.5517,-7.688,-7.796,-7.9127,-8.0195,-8.0336,-8.0625,-8.1015,-8.1015,-8.1015,-8.1015,-8.1015,-8.1015,-8.1172,-8.2031,-8.2304,-8.25,-8.3359,-8.2969,-8.2422,-8.2851,-8.2265,-8.1758,-8.2226,-8.2304,-8.2304,-8.2304,-8.2304,-8.2422,-8.289,-8.2969,-8.2969,-8.2969,-8.332,-8.375,-8.4179,-8.4258,-8.3711,-8.2344,-8.3412,-8.3699,-8.2323,-8.3843,-8.5273,-8.6133,-8.6211,-8.6211,-8.6211,-8.6211,-8.6211,-8.6211,-8.6211,-8.6211,-8.6211,-8.6601,-8.6797,-8.6797,-8.6797,-8.6601,0.0,0.0,0.0,0.0,0.0,0.0,0.0,-5.576,-5.6736,-5.8312,-5.8644,-5.8842,-5.9412,-6.0896,-6.2012,-6.2012,-6.332,-6.4551,-6.5243,-6.5359,-6.3743,-5.9473,-5.9281,-5.9242,-5.855,-5.955,-6.0242,-6.0242,-6.0896,-6.1666,-6.2551,-6.2589,-6.3281,-6.4782,-6.5013,-6.5743,-6.709,-6.7282,-6.7782,-6.8706,-6.9398,-6.9898,-7.0233,-7.094,-7.1337,-7.1491,-7.1491,-7.1491,-7.1491,-7.1518,-7.1695,-7.2118,-7.3713,-7.5414,-7.7091,-7.8272,-7.9609,-8.0781,-8.0937,-8.0898,-8.0742,-8.0742,-8.039,-7.9961,-7.9961,-8.0429,-8.1054,-8.1406,-8.2265,-8.3164,-8.3515,-8.3476,-8.3359,-8.3359,-8.2812,-8.2304,-8.2304,-8.2304,-8.2304,-8.2304,-8.2422,-8.2773,-8.3476,-8.3867,-8.4062,-8.3867,-8.4453,-8.4961,-8.5117,-8.5156,-8.5234,-8.539,-8.539,-8.539,-8.539,-8.6054,-8.6758,-8.7461,-8.7656,-8.7734,-8.7734,-8.789,-8.8008,-8.8008,-8.8008,-8.8008,-8.8008,-8.8633,-8.8945,-8.8984,-8.9844,-8.9453,-4.9041,-5.0153,-5.1969,-5.1555,-5.4141,-5.7265,0.0,0.0,-6.1222,-6.2759,-6.3553,-6.3937,-6.3872,-6.5282,-6.6397,-6.6397,-6.7205,-6.7859,-6.7975,-6.7975,-6.7475,-6.6128,-6.4743,-6.3858,-6.3743,-6.3205,-6.2858,-6.2858,-6.2974,-6.3397,-6.4282,-6.432,-6.4743,-6.5705,-6.6436,-6.6898,-6.709,-6.7859,-6.8744,-6.9732,-6.9848,-7.0387,-7.131,-7.1436,-7.149,-7.149,-7.149,-7.149,-7.1497,-7.1617,-7.2118,-7.2954,-7.4098,-7.5638,-7.7371,-7.8983,-7.9687,-7.9961,-8.0742,-8.0508,-7.9844,-7.9844,-8.0312,-8.0859,-8.0859,-8.0937,-8.1328,-8.2851,-8.2344,-8.164,-8.3203,-8.3047,-8.2461,-8.2461,-8.2383,-8.2304,-8.2304,-8.2304,-8.2304,-8.2304,-8.2929,-8.3476,-8.3594,-8.4883,-8.5664,-8.4883,-8.4844,-8.5195,-8.5937,-8.6054,-8.6367,-8.7148,-8.7226,-8.7226,-8.7226,-8.7304,-8.7383,-8.75,-8.8164,-8.8554,-8.8554,-8.9297,-8.9726,-8.9726,-8.9726,-8.9726,-8.9726,-8.9804,-8.9844,-8.9883,-9.0742,-9.0625,-5.2088,-5.2126,-5.2983,-5.6257,-5.8499,-6.0469,-6.2734,-6.4281,-6.5683,-6.7358,-6.7833,-6.809,-6.8513,-6.909,-6.9475,0.0,-7.0129,-7.0591,-7.0591,-7.1052,-7.1283,-7.1041,-6.9475,-6.7628,-6.5551,-6.5436,-6.532,-6.4859,-6.482,-6.5013,-6.5436,-6.5474,-6.5923,-6.6923,-6.7269,-6.7924,-6.8886,-6.9271,-6.9925,-7.0848,-7.0827,-7.1115,-7.1618,-7.1626,-7.1669,-7.1786,-7.1786,-7.1786,-7.178,-7.1848,-7.239,-7.3247,-7.4233,-7.5365,-7.664,-7.8359,-7.9297,-7.9765,-8.0117,-7.9687,-7.9062,-7.9531,-7.9648,-7.9648,-8.0117,-8.0586,-8.1133,-8.1875,-8.1914,-8.1914,-8.2656,-8.2578,-8.2304,-8.2304,-8.2304,-8.2304,-8.2304,-8.2695,-8.3047,-8.3047,-8.375,-8.4531,-8.5039,-8.5703,-8.625,-8.6406,-8.6406,-8.6523,-8.6914,-8.6953,-8.7109,-8.7461,-8.75,-8.75,-8.75,-8.7929,-8.8203,-8.8203,-8.8984,-8.9453,-8.9453,-8.9804,-9.0,-9.0,-9.0,-9.0,-9.0,-9.0508,-9.0742,-9.0781,-9.164,-9.1875,-5.3089,-5.351,-5.466,-5.9571,-6.1966,-6.3683,-6.5789,-6.7457,-6.8961,-7.046,-7.0655,-7.0738,-7.1371,-7.1371,-7.1284,-7.1299,-7.1668,-7.2014,-7.2014,-7.2524,-7.2986,-7.3129,-7.2045,-7.0096,-6.7007,-6.7253,-6.7346,-6.6769,-6.6731,-6.6769,-6.6846,-6.6862,-6.7222,-6.8017,-6.8249,-6.8983,-7.0181,-7.0429,-7.0874,-7.1541,-7.157,-7.1628,-7.1785,-7.1785,-7.1835,-7.1992,-7.1992,-7.1992,-7.2031,-7.2265,-7.2851,-7.375,-7.4609,-7.5508,-7.6406,-7.7695,-7.8515,-7.9023,-7.9297,-7.8828,-7.8281,-7.9101,-7.9101,-7.8984,-7.9805,-8.0664,-8.1367,-8.1367,-8.1797,-8.2304,-8.2304,-8.2304,-8.2304,-8.2304,-8.2304,-8.2383,-8.2617,-8.3164,-8.3672,-8.3906,-8.4648,-8.5469,-8.6094,-8.6406,-8.6758,-8.7383,-8.75,-8.75,-8.75,-8.75,-8.75,-8.75,-8.75,-8.7578,-8.7812,-8.8359,-8.8789,-8.9023,-8.9883,-9.0351,-9.0351,-9.0586,-9.0703,-9.0703,-9.0703,-9.0703,-9.0703,-9.1367,-9.164,-9.1679,-9.2304,-9.2617,-5.0356,-5.378,-5.7319,-5.9342,-6.3584,-6.7486,-6.8559,-6.9477,-7.0389,-7.1287,-7.1472,-7.1471,-7.151,-7.151,-7.1486,-7.1493,-7.1503,-7.1514,-7.1535,-7.1535,-7.1573,-7.1573,-7.1533,-7.0795,0.0,-6.8837,-6.8822,-6.8783,-6.8783,-6.8783,-6.8783,-6.8834,-6.8838,-6.8838,-6.9669,-7.0136,-7.0214,-7.1043,-7.1532,-7.1695,-7.1684,-7.1801,-7.1991,-7.1991,-7.1991,-7.1992,-7.1992,-7.1992,-7.207,-7.289,-7.3789,-7.4648,-7.5508,-7.6406,-7.7187,-7.7226,-7.7265,-7.7383,-7.8242,-7.7969,-7.7383,-7.8242,-7.9062,-7.9844,-8.0703,-8.1562,-8.2265,-8.2265,-8.2265,-8.2304,-8.2304,-8.2304,-8.2304,-8.2304,-8.2304,-8.2539,-8.3398,-8.3594,-8.3867,-8.4687,-8.5547,-8.6172,-8.6211,-8.6914,-8.7461,-8.75,-8.75,-8.75,-8.75,-8.75,-8.75,-8.75,-8.75,-8.7812,-8.8594,-8.8672,-8.9062,-8.9922,-9.0781,-9.125,-9.125,-9.207,-9.2539,-9.2539,-9.2539,-9.2539,-9.2539,-9.2539,-9.2578,-9.2578,-9.2578,-9.2617,-5.4664,-5.7165,-5.9358,-6.2243,-6.5191,-6.7653,-6.8574,-6.9614,-7.0625,-7.1476,-7.1281,-7.0982,-7.0982,-7.0904,-7.085,-7.0823,-7.1651,-7.2287,-7.2308,-7.2793,-7.2999,-7.2524,-7.2495,0.0,0.0,0.0,0.0,-6.7321,-6.7765,-6.8142,-6.8231,-6.8783,-6.9383,-7.0084,-7.0362,-7.0792,-7.1377,-7.169,-7.1858,-7.1906,-7.1906,-7.1943,-7.1992,-7.1992,-7.1992,-7.1992,-7.1992,-7.1992,-7.207,-7.293,-7.3828,-7.4687,-7.5547,-7.6445,-7.7187,-7.7187,-7.7187,-7.7226,-7.7539,-7.7812,-7.8203,-7.9023,-7.9883,-8.0742,-8.1601,-8.207,-8.2304,-8.2304,-8.2304,-8.2304,-8.2304,-8.2304,-8.2304,-8.2304,-8.2734,-8.3242,-8.3554,-8.4492,-8.539,-8.5703,-8.6484,-8.707,-8.707,-8.7304,-8.75,-8.75,-8.75,-8.75,-8.75,-8.75,-8.7695,-8.8242,-8.8281,-8.8633,-8.9492,-9.0078,-9.0547,-9.0859,-9.1679,-9.2148,-9.2148,-9.2422,-9.2617,-9.2617,-9.2617,-9.2617,-9.2617,-9.2617,-9.2617,-9.2617,-9.2617,-9.2617,-5.6434,-5.8434,-5.9819,-6.2935,-6.4845,-6.623,-6.7423,-6.859,-6.971,-7.0844,-7.0777,-7.0518,-7.0518,-7.0436,-7.0409,-7.0507,-7.1524,-7.2383,-7.2422,-7.2929,-7.3119,-7.2694,-7.2649,-7.2143,0.0,0.0,0.0,-6.8024,-6.8726,-6.9284,-6.9344,-6.9911,-7.0509,-7.1132,-7.1172,-7.1445,-7.1992,-7.1992,-7.1992,-7.1992,-7.1992,-7.1992,-7.1992,-7.1992,-7.1992,-7.1992,-7.1992,-7.1992,-7.2109,-7.3281,-7.4101,-7.4726,-7.5898,-7.6719,-7.7187,-7.7187,-7.7187,-7.7187,-7.7187,-7.7773,-7.8633,-7.9453,-8.0273,-8.1172,-8.2031,-8.2304,-8.2304,-8.2304,-8.2304,-8.2304,-8.2304,-8.2304,-8.2304,-8.2304,-8.2969,-8.3672,-8.3984,-8.5195,-8.6289,-8.6601,-8.7109,-8.75,-8.75,-8.75,-8.75,-8.75,-8.75,-8.75,-8.75,-8.75,-8.7812,-8.8594,-8.8711,-8.9179,-9.0351,-9.0976,-9.1445,-9.1758,-9.2304,-9.2617,-9.2617,-9.2617,-9.2617,-9.2617,-9.2617,-9.2617,-9.2617,-9.2617,-9.2617,-9.2617,-9.2617,-9.2617,-5.578,-5.778,-5.9088,-6.155,-6.2743,-6.3743,-6.5436,-6.6526,-6.7589,-6.9227,-6.9632,-6.9695,-6.9656,-6.9798,-6.9963,-7.0145,-7.0936,-7.1601,-7.1796,-7.1874,-7.1913,0.0,0.0,0.0,0.0,0.0,0.0,-7.0703,0.0,-7.1914,-7.1914,-7.1992,-7.1992,-7.1992,-7.1992,-7.1992,-7.1992,-7.1992,-7.1992,-7.1992,-7.1992,-7.1992,-7.1992,-7.1992,-7.1992,-7.1992,-7.1992,-7.1992,-7.2148,-7.3867,-7.4609,-7.4765,-7.6523,-7.7187,-7.7187,-7.7187,-7.7187,-7.7187,-7.7187,-7.7812,-7.8672,-7.9453,-8.0312,-8.1211,-8.2031,-8.2304,-8.2304,-8.2304,-8.2304,-8.2304,-8.2304,-8.2304,-8.2304,-8.2304,-8.3008,-8.3906,-8.4726,-8.5625,-8.6523,-8.7344,-8.75,-8.75,-8.75,-8.75,-8.75,-8.75,-8.75,-8.75,-8.75,-8.7539,-8.7851,-8.8672,-8.8828,-8.9531,-9.1211,-9.1367,-9.1719,-9.2539,-9.2617,-9.2617,-9.2617,-9.2617,-9.2617,-9.2617,-9.2617,-9.2617,-9.2617,-9.2617,-9.2617,-9.2617,-9.2617,-9.2617,-5.7905,-5.9973,-6.1435,-6.2666,-6.3166,-6.3589,-6.4666,-6.4243,-6.3907,-6.5003,-6.3874,-6.2702,-6.2684,-6.4226,-6.5539,-6.5566,-6.7864,0.0,-6.9674,-7.024,0.0,-7.0648,0.0,-7.1441,-7.0547,-7.1211,0.0,0.0,-7.0898,-7.1015,-7.1015,-7.164,-7.1992,-7.1992,-7.1992,-7.1992,-7.1992,-7.1992,-7.1992,-7.1992,-7.1992,-7.1992,-7.1992,-7.1992,-7.1992,-7.1992,-7.1992,-7.1992,-7.2148,-7.3867,-7.4609,-7.4765,-7.6523,-7.7187,-7.7187,-7.7187,-7.7187,-7.7187,-7.7187,-7.8164,-7.9414,-7.9648,-8.0742,-8.1992,-8.2226,-8.2304,-8.2304,-8.2304,-8.2304,-8.2304,-8.2304,-8.2304,-8.2304,-8.2304,-8.3476,-8.4648,-8.4844,-8.6094,-8.7226,-8.7461,-8.75,-8.75,-8.75,-8.75,-8.75,-8.75,-8.75,-8.75,-8.75,-8.8008,-8.8711,-8.957,-9.0234,-9.1094,-9.2187,-9.2265,-9.2344,-9.2578,-9.2617,-9.2617,-9.2617,-9.2617,-9.2617,-9.2617,-9.2617,-9.2617,-9.2617,-9.2617,-9.2617,-9.2617,-9.2617,-9.2617,-5.8502,-6.0378,-6.1627,-6.2089,-6.2204,-6.2127,-6.1897,-6.1728,-6.1574,-6.132,-6.0512,-6.0089,-6.0843,-6.2435,-6.3886,0.0,0.0,0.0,-6.8915,-6.9323,-6.9769,0.0,-7.0697,0.0,-7.0876,-7.1429,-7.1585,0.0,-7.1202,-7.1289,-7.1289,-7.1719,-7.1992,-7.1992,-7.1992,-7.1992,-7.1992,-7.1992,-7.1992,-7.1992,-7.1992,-7.1992,-7.1992,-7.1992,-7.1992,-7.1992,0.0,-7.1992,-7.2148,-7.3867,-7.4609,-7.4765,-7.6523,-7.7187,-7.7187,-7.7187,-7.7187,-7.7187,-7.7187,-7.8281,-7.9687,-7.9687,-8.0898,-8.2304,-8.2304,-8.2304,-8.2304,-8.2304,-8.2304,-8.2304,-8.2304,-8.2304,-8.2383,-8.2773,-8.3906,-8.5,-8.539,-8.6523,-8.75,-8.75,-8.75,-8.75,-8.75,-8.75,-8.75,-8.75,-8.75,-8.7617,-8.7969,-8.8437,-8.9179,-9.0429,-9.1015,-9.164,-9.2539,-9.2617,-9.2617,-9.2617,-9.2617,-9.2617,-9.2617,-9.2617,-9.2617,-9.2617,-9.2617,-9.2617,-9.2617,-9.2617,-9.2617,-9.2617,-9.2617,-9.2617,-5.7987,-5.9561,-6.058,-6.0695,-6.0757,-6.0319,-5.855,-5.9088,-5.9473,-5.7819,-5.7819,-5.8704,-6.0589,-6.1589,-6.2743,-6.4589,0.0,-6.7487,-6.7936,-6.809,-6.8604,-6.9821,-6.9997,-7.0387,-7.1365,-7.1358,-7.1358,-7.1474,-7.1776,-7.1945,-7.1953,-7.1992,-7.1992,-7.1992,-7.1992,-7.1992,-7.1992,-7.1992,-7.1992,-7.1992,-7.1992,-7.1992,-7.1992,-7.1992,-7.1992,-7.1992,0.0,0.0,-7.2148,-7.3867,-7.4609,-7.4765,-7.6523,-7.7187,-7.7187,-7.7187,-7.7187,-7.7187,-7.7187,-7.8281,-7.9687,-7.9687,-8.0898,-8.2304,-8.2304,-8.2304,-8.2304,-8.2304,-8.2304,-8.2304,-8.2304,-8.2304,-8.2539,-8.3398,-8.4258,-8.5156,-8.6015,-8.6875,-8.75,-8.75,-8.75,-8.75,-8.75,-8.75,-8.75,-8.75,-8.75,-8.7812,-8.875,-8.8867,-8.9492,-9.1133,-9.1406,-9.1797,-9.2539,-9.2617,-9.2617,-9.2617,-9.2617,-9.2617,-9.2617,-9.2617,-9.2617,-9.2617,-9.2617,-9.2617,-9.2617,-9.2617,-9.2617,-9.2617,-9.2617,-9.2617,-5.6857,-5.8213,-5.9376,-6.0064,-6.0508,-6.0165,-5.778,-5.6357,-5.5088,-5.3395,-5.201,-5.1895,-5.4318,-5.5434,-5.6588,-5.828,-5.9435,-6.0858,-6.2998,-6.3844,-6.5359,0.0,-6.8871,-6.9578,-7.1108,-7.0747,0.0,0.0,0.0,-7.1653,-7.1757,-7.1914,-7.1992,-7.1992,-7.1992,-7.1992,-7.1992,-7.1992,-7.1992,-7.1992,-7.1992,-7.1992,-7.1992,-7.1992,-7.1992,-7.1992,-7.1992,0.0,-7.2148,-7.3867,-7.4609,-7.4765,-7.6523,-7.7187,-7.7187,-7.7187,-7.7187,-7.7187,-7.7187,-7.8281,-7.9687,-7.9687,-8.0898,-8.2304,-8.2304,-8.2304,-8.2304,-8.2304,-8.2304,-8.2304,-8.2304,-8.2304,-8.2539,-8.3398,-8.4258,-8.5156,-8.6015,-8.6875,-8.75,-8.75,-8.75,-8.75,-8.75,-8.75,-8.75,-8.75,-8.75,-8.8047,-8.957,-8.9765,-9.0156,-9.1172,-9.1953,-9.2422,-9.2578,-9.2617,-9.2617,-9.2617,-9.2617,-9.2617,-9.2617,-9.2617,-9.2617,-9.2617,-9.2617,-9.2617,-9.2617,-9.2617,-9.2617,-9.2617,-9.2617,-9.2617,-5.5317,-5.6899,-5.8736,-5.9533,-5.9916,-5.914,-5.5479,-5.4417,-5.3215,-4.9971,-4.9009,-4.9356,-5.151,-5.2587,-5.3857,-5.5972,-5.8165,-6.0204,-6.1858,-6.3551,-6.532,-6.7122,-6.7467,-6.7974,-6.9199,-6.9038,-6.9318,0.0,0.0,-7.0926,-7.155,-7.1747,-7.1836,-7.1836,-7.1953,-7.1992,-7.1992,-7.1992,-7.1992,-7.1992,-7.1992,-7.1992,-7.1992,-7.1992,-7.1992,-7.1992,-7.1992,0.0,-7.2148,-7.3867,-7.4609,-7.4765,-7.6523,-7.7187,-7.7187,-7.7187,-7.7187,-7.7265,-7.7734,-7.8672,-7.9765,-8.0234,-8.125,-8.2304,-8.2304,-8.2304,-8.2304,-8.2304,-8.2304,-8.2304,-8.2304,-8.2304,-8.2617,-8.3945,-8.5273,-8.6367,-8.6797,-8.7187,-8.75,-8.75,-8.75,-8.75,-8.75,-8.75,-8.75,-8.75,-8.75,-8.8125,-8.9765,-9.0,-9.0508,-9.1836,-9.2344,-9.2617,-9.2617,-9.2617,-9.2617,-9.2617,-9.2617,-9.2617,-9.2617,-9.2617,-9.2617,-9.2617,-9.2617,-9.2617,-9.2617,-9.2617,-9.2617,-9.2617,-9.2617,-9.2617,-5.3632,-5.5509,-5.7751,-5.8577,-5.9098,-5.8174,-5.3452,-5.2927,-5.2158,-4.7701,-4.7281,-4.8337,-5.0317,-5.0894,-5.1933,-5.4472,-5.6819,-5.8973,-6.0742,-6.2897,-6.4718,-6.5864,-6.6077,0.0,-6.74,-6.7414,0.0,0.0,0.0,0.0,-7.1448,-7.1614,-7.1641,-7.1666,-7.1822,-7.1908,-7.1953,-7.1953,-7.1953,-7.1992,-7.1992,-7.1992,-7.1992,-7.1992,-7.1992,-7.1992,-7.1992,0.0,0.0,-7.3867,-7.4609,-7.4765,-7.6523,-7.7187,-7.7187,-7.7187,-7.7187,-7.7305,-7.8203,-7.9023,-7.9844,-8.0703,-8.1601,-8.2304,-8.2304,-8.2304,-8.2304,-8.2304,-8.2304,-8.2304,-8.2304,-8.2422,-8.3008,-8.4765,-8.6367,-8.75,-8.75,-8.75,-8.75,-8.75,-8.75,-8.75,-8.75,-8.75,-8.75,-8.75,-8.75,-8.8125,-8.9765,-9.0,-9.0664,-9.2422,-9.2617,-9.2617,-9.2617,-9.2617,-9.2617,-9.2617,-9.2617,-9.2617,-9.2617,-9.2617,-9.2617,-9.2617,-9.2617,-9.2617,-9.2617,-9.2617,-9.2617,-9.2617,-9.2617,-9.2617,-5.2044,-5.3904,-5.5681,-5.6528,-5.8086,-5.8106,-5.3187,-5.213,-5.1045,-4.7152,-4.6418,-4.7308,-5.0163,-4.9471,-4.9279,-5.1856,-5.1241,-5.2087,-5.6819,-5.8357,-6.0411,-6.4308,-6.5006,0.0,-6.7011,-6.6766,0.0,0.0,0.0,0.0,-7.1428,-7.1505,-7.151,-7.1524,-7.1524,-7.1612,-7.1719,-7.1719,-7.1836,-7.1992,-7.1992,-7.1992,-7.1992,-7.1992,-7.1992,-7.1992,-7.1992,0.0,0.0,-7.3867,-7.4609,-7.4765,-7.6523,-7.7187,-7.7187,-7.7187,-7.7187,-7.7305,-7.8203,-7.9023,-7.9844,-8.0703,-8.1601,-8.2304,-8.2304,-8.2304,-8.2304,-8.2304,-8.2304,-8.2304,-8.2304,-8.289,-8.3906,-8.5664,-8.6797,-8.75,-8.75,-8.75,-8.75,-8.75,-8.75,-8.75,-8.75,-8.75,-8.75,-8.75,-8.75,-8.8125,-8.9765,-9.0,-9.0664,-9.2422,-9.2617,-9.2617,-9.2617,-9.2617,-9.2617,-9.2617,-9.2617,-9.2617,-9.2617,-9.2617,-9.2617,-9.2617,-9.2617,-9.2617,-9.2617,-9.2617,-9.2617,-9.2617,-9.2617,-9.2617,-4.9443,-5.1437,-5.3626,-5.4503,-5.5614,-5.5391,-5.1157,-5.0552,-4.9828,-4.6297,-4.5573,-4.6003,-4.7395,-4.7048,-4.724,-4.9279,-5.0356,-5.2318,-5.6434,-5.905,-6.1478,-6.3838,-6.4696,0.0,0.0,0.0,0.0,0.0,0.0,0.0,-7.036,-7.0975,-7.13,-7.133,-7.1446,-7.1513,-7.1598,-7.1583,-7.162,-7.1698,-7.1786,-7.1836,-7.1836,-7.1953,-7.1992,-7.1992,-7.1992,0.0,0.0,-7.3867,-7.4609,-7.4765,-7.6523,-7.7187,-7.7187,-7.7187,-7.7187,-7.7305,-7.8203,-7.9023,-7.9844,-8.0703,-8.1601,-8.2304,-8.2304,-8.2304,-8.2304,-8.2304,-8.2304,-8.2304,-8.2304,-8.3359,-8.457,-8.5234,-8.6484,-8.75,-8.75,-8.75,-8.75,-8.75,-8.75,-8.75,-8.75,-8.75,-8.75,-8.75,-8.75,-8.8125,-8.9765,-9.0,-9.0664,-9.2422,-9.2617,-9.2617,-9.2617,-9.2617,-9.2617,-9.2617,-9.2617,-9.2617,-9.2617,-9.2617,-9.2617,-9.2617,-9.2617,-9.2617,-9.2617,-9.2617,-9.2617,-9.2617,-9.2617,-9.2617,-4.7505,-4.9485,-5.1527,-5.2604,-5.3245,-5.2774,-4.9574,-4.8891,-4.8153,-4.5368,-4.4872,-4.5033,-4.54,-4.555,-4.6047,-4.7509,-4.9471,-5.2049,-5.5742,-5.8973,-6.1338,-6.2376,0.0,-6.3604,0.0,0.0,0.0,0.0,0.0,0.0,0.0,-7.009,-7.086,-7.1091,-7.1245,-7.1349,-7.1426,-7.1433,-7.1452,-7.149,-7.1611,-7.165,-7.1655,-7.1772,-7.1864,-7.1914,0.0,0.0,0.0,-7.3867,-7.4609,-7.4765,-7.6523,-7.7187,-7.7187,-7.7187,-7.7187,-7.7305,-7.8203,-7.9023,-7.9844,-8.0703,-8.1601,-8.2304,-8.2304,-8.2304,-8.2304,-8.2304,-8.2304,-8.2344,-8.2617,-8.3789,-8.4961,-8.5234,-8.6406,-8.75,-8.75,-8.75,-8.75,-8.75,-8.75,-8.75,-8.75,-8.75,-8.75,-8.75,-8.75,-8.8125,-8.9765,-9.0,-9.0664,-9.2422,-9.2617,-9.2617,-9.2617,-9.2617,-9.2617,-9.2617,-9.2617,-9.2617,-9.2617,-9.2617,-9.2617,-9.2617,-9.2617,-9.2617,-9.2617,-9.2617,-9.2617,-9.2617,-9.2617,-9.2617,-4.6707,-4.83,-4.9382,-5.0945,-5.1349,-5.0823,-4.8938,-4.7385,-4.5906,-4.4332,-4.4318,-4.4726,-4.5033,-4.5381,-4.5893,-4.6778,-4.7586,-4.9625,-5.3933,-5.6742,-5.8627,-5.9473,0.0,-6.25,-6.2142,0.0,0.0,0.0,0.0,0.0,0.0,-6.8783,-7.009,-7.0898,-7.0898,-7.1014,-7.1206,-7.1195,-7.131,-7.1503,-7.1503,-7.1501,-7.1485,-7.1485,-7.1573,0.0,0.0,0.0,0.0,-7.3867,-7.4609,-7.4765,-7.6523,-7.7187,-7.7187,-7.7187,-7.7187,-7.7305,-7.8203,-7.9023,-7.9844,-8.0703,-8.1601,-8.2304,-8.2304,-8.2304,-8.2304,-8.2304,-8.2304,-8.25,-8.3359,-8.4258,-8.5117,-8.5976,-8.6875,-8.75,-8.75,-8.75,-8.75,-8.75,-8.75,-8.75,-8.75,-8.75,-8.75,-8.75,-8.75,-8.8125,-8.9765,-9.0,-9.0664,-9.2422,-9.2617,-9.2617,-9.2617,-9.2617,-9.2617,-9.2617,-9.2617,-9.2617,-9.2617,-9.2617,-9.2617,-9.2617,-9.2617,-9.2617,-9.2617,-9.2617,-9.2617,-9.2617,-9.2617,-9.2617,-4.2962,-4.475,-4.6408,-4.6007,-4.6635,-4.7081,-4.5726,-4.543,-4.5176,-4.4183,-4.4318,-4.4701,-4.5033,-4.5381,-4.6047,-4.7509,-4.7932,-4.9779,-5.4626,-5.6549,-5.8357,-6.0973,-6.1338,-6.2092,0.0,0.0,0.0,0.0,0.0,0.0,0.0,-6.7628,-6.859,-7.0014,-7.0591,-7.0937,-7.0975,-7.0975,-7.1014,-7.1091,-7.1206,-7.13,-7.1302,-7.1456,0.0,0.0,0.0,0.0,0.0,-7.2999,-7.3867,-7.4531,-7.582,-7.668,-7.7187,-7.7187,-7.7187,-7.7226,-7.7539,-7.8164,-7.9023,-7.9844,-8.0703,-8.1523,-8.2109,-8.2304,-8.2304,-8.2304,-8.2304,-8.2344,-8.2656,-8.3789,-8.4961,-8.5234,-8.6445,-8.75,-8.75,-8.75,-8.75,-8.75,-8.75,-8.75,-8.75,-8.75,-8.75,-8.75,-8.75,-8.789,-8.8984,-8.9648,-9.0429,-9.1601,-9.2226,-9.2617,-9.2617,-9.2617,-9.2617,-9.2617,-9.2617,-9.2617,-9.2617,-9.2617,-9.2617,-9.2617,-9.2617,-9.2617,-9.2617,-9.2617,-9.2617,-9.2617,-9.2617,-9.2617,-4.192,-4.2962,-4.4082,-4.3796,-4.3895,-4.4073,-4.3917,-4.3781,-4.3759,-4.3961,-4.4318,-4.4701,-4.5033,-4.5381,-4.6088,-4.7624,-4.7742,-4.9125,-5.3437,-5.4693,-5.639,-5.985,0.0,0.0,0.0,0.0,0.0,0.0,0.0,0.0,0.0,-6.6936,-6.759,-6.8667,-6.986,-7.0591,-7.0898,-7.0898,-7.0898,-7.0898,-7.1014,-7.1091,-7.1091,-7.1206,0.0,0.0,0.0,0.0,0.0,-7.2536,-7.322,-7.3867,-7.5155,-7.604,-7.664,-7.6953,-7.7148,-7.7187,-7.7187,-7.7773,-7.8633,-7.9453,-8.047,-8.1466,-8.2011,-8.2254,-8.2304,-8.2304,-8.2304,-8.2304,-8.2304,-8.3594,-8.4883,-8.4883,-8.6211,-8.75,-8.75,-8.75,-8.75,-8.75,-8.75,-8.75,-8.75,-8.75,-8.75,-8.75,-8.75,-8.7773,-8.8594,-8.9453,-9.0312,-9.1211,-9.207,-9.2617,-9.2617,-9.2617,-9.2617,-9.2617,-9.2617,-9.2617,-9.2617,-9.2617,-9.2617,-9.2617,-9.2617,-9.2617,-9.2617,-9.2617,-9.2617,-9.2617,-9.2617,-9.2617,0.0,-4.2695,-4.2361,-4.3637,-4.2697,-4.186,-4.322,-4.2407,0.0,-4.354,-4.4233,-4.4613,-4.4957,-4.5381,-4.6071,-4.7274,-4.72,-4.7991,-5.0885,-5.1935,-5.3661,-5.6913,-5.8711,0.0,0.0,0.0,0.0,0.0,0.0,0.0,0.0,-6.659,-6.7051,-6.709,-6.8667,-6.9937,-7.0821,-7.086,-7.0898,-7.0898,-7.0898,-7.0898,-7.0898,-7.0898,0.0,0.0,0.0,0.0,0.0,-7.2377,-7.2723,-7.2935,-7.4514,-7.5328,-7.5698,-7.6484,-7.6952,-7.7181,-7.7181,-7.7728,-7.855,-7.9373,-8.0674,-8.1878,-8.1932,-8.212,-8.2264,-8.2264,-8.2264,-8.2264,-8.2264,-8.3514,-8.4764,-8.4842,-8.6131,-8.7381,-8.7459,-8.7459,-8.7459,-8.7459,-8.7459,-8.7459,-8.7459,-8.7459,-8.746,-8.7461,-8.7461,-8.7734,-8.8515,-8.9414,-9.0312,-9.1133,-9.2031,-9.2617,-9.2617,-9.2617,-9.2617,-9.2617,-9.2617,-9.2617,-9.2617,-9.2617,-9.2617,-9.2617,-9.2617,-9.2617,-9.2617,-9.2617,-9.2617,-9.2617,-9.2617,-9.2617,-4.2049,0.0,-4.1333,-4.0703,-4.0557,-4.0813,0.0,-4.1483,-4.1482,-4.2302,-4.3288,-4.4037,-4.4102,-4.5457,-4.6722,-4.7069,-4.7607,-4.8683,-5.0778,-5.3935,-5.6521,-5.7966,-6.0104,0.0,0.0,0.0,0.0,0.0,0.0,-6.5897,0.0,-6.609,-6.6436,-6.709,-6.7513,-6.8436,-6.9975,-7.0591,-7.0898,-7.0898,-7.0898,-7.0898,-7.0898,-7.0898,0.0,0.0,0.0,0.0,-7.1091,-7.158,-7.211,-7.2607,-7.3186,-7.4185,-7.539,-7.578,-7.6361,-7.6969,-7.6969,-7.7086,-7.7483,-7.8791,-7.9929,-8.0901,-8.1571,-8.1785,-8.1855,-8.1855,-8.1855,-8.1855,-8.1855,-8.2635,-8.3609,-8.4221,-8.5195,-8.6131,-8.6832,-8.6949,-8.6949,-8.6949,-8.6949,-8.6949,-8.6949,-8.6949,-8.7029,-8.7185,-8.7187,-8.7344,-8.7734,-8.9062,-9.0078,-9.0273,-9.1679,-9.2617,-9.2617,-9.2617,-9.2617,-9.2617,-9.2617,-9.2617,-9.2617,-9.2617,-9.2617,-9.2617,-9.2617,-9.2617,-9.2617,-9.2617,-9.2617,-9.2617,-9.2617,-9.2617,-4.127,-4.1379,-4.1326,-4.1108,-4.1166,-4.1484,-4.2179,-4.1995,-4.1946,-4.2721,-4.3361,-4.3878,-4.4097,-4.538,-4.674,-4.7797,-4.7874,-4.8454,-5.0293,-5.411,-5.6761,-5.689,-5.9734,0.0,0.0,0.0,0.0,0.0,0.0,-6.6128,-6.6128,-6.6128,-6.632,-6.6744,-6.75,-6.8501,-6.9706,-7.0129,-7.0514,-7.0898,-7.0898,-7.0898,-7.0898,-7.0898,-7.0898,0.0,0.0,0.0,-7.1052,-7.1387,-7.1657,-7.1964,-7.2454,-7.3465,-7.4665,-7.5133,-7.5999,-7.6898,-7.6881,-7.716,-7.7631,-7.834,-7.9321,-8.0338,-8.082,-8.1181,-8.1453,-8.1646,-8.1685,-8.1685,-8.1685,-8.2344,-8.3219,-8.3987,-8.4878,-8.573,-8.6606,-8.68,-8.68,-8.68,-8.68,-8.68,-8.68,-8.6878,-8.6993,-8.7066,-8.7212,-8.7344,-8.7461,-8.8945,-9.0,-9.0,-9.1562,-9.2617,-9.2617,-9.2617,-9.2617,-9.2617,-9.2617,-9.2617,-9.2617,-9.2617,-9.2617,-9.2617,-9.2617,-9.2617,-9.2617,-9.2617,-9.2617,-9.2617,-9.2617,-9.2617,-4.0985,-4.1395,-4.1973,-4.2816,-4.2736,-4.2633,-4.3428,-4.281,-4.2374,-4.3479,-4.3958,-4.4288,-4.4816,-4.5957,-4.7362,-4.9142,-4.8424,-4.8214,-4.9819,-5.3379,-5.5657,-5.5152,-5.8641,0.0,0.0,0.0,0.0,0.0,0.0,-6.6414,-6.6414,-6.6414,-6.6453,-6.6607,-6.7826,-6.8868,-6.9552,-6.9836,-7.0321,-7.0975,-7.0975,-7.0975,-7.0975,-7.0975,-7.0975,-7.1014,0.0,0.0,-7.1274,-7.1448,-7.1424,-7.1326,-7.2057,-7.2877,-7.3696,-7.4553,-7.5604,-7.6659,-7.682,-7.7313,-7.792,-7.7843,-7.8738,-7.9892,-8.0008,-8.0516,-8.117,-8.1516,-8.1593,-8.1593,-8.1593,-8.2163,-8.2894,-8.374,-8.4593,-8.5478,-8.6324,-8.6594,-8.6671,-8.6671,-8.6671,-8.6671,-8.6671,-8.6858,-8.6967,-8.6993,-8.723,-8.7375,-8.7375,-8.8788,-8.9844,-8.9922,-9.1406,-9.2461,-9.2578,-9.2617,-9.2617,-9.2617,-9.2617,-9.2617,-9.2617,-9.2617,-9.2617,-9.2617,-9.2617,-9.2617,-9.2617,-9.2617,-9.2617,-9.2617,-9.2617,-9.2617,-4.2233,-4.2893,-4.2992,-4.3124,-4.2653,-4.2366,-4.3124,-4.211,-4.1291,-4.221,-4.4135,-4.5902,-4.6728,-4.9369,-5.128,-5.1018,-5.0283,-4.9838,-5.0142,0.0,-5.4408,-5.5017,0.0,0.0,0.0,0.0,0.0,0.0,0.0,0.0,-6.6383,-6.6383,-6.6733,-6.7486,-6.7005,-6.751,-6.9002,-7.0506,-7.131,-7.1426,-7.1426,-7.1426,-7.1426,-7.1426,-7.1426,-7.1426,0.0,-7.1572,-7.1451,-7.1597,-7.1564,-7.1465,-7.1593,-7.208,-7.2839,-7.3783,-7.473,-7.5654,-7.6399,-7.6621,-7.6698,-7.7207,-7.8015,-7.8861,-7.9631,-8.0439,-8.1093,-8.117,-8.117,-8.117,-8.117,-8.1285,-8.1593,-8.2401,-8.3247,-8.4132,-8.5016,-8.5747,-8.6209,-8.6209,-8.6209,-8.6209,-8.6209,-8.6247,-8.6331,-8.6558,-8.6786,-8.6909,-8.6909,-8.8084,-8.9101,-8.9687,-9.0781,-9.1797,-9.2539,-9.2617,-9.2617,-9.2617,-9.2617,-9.2617,-9.2617,-9.2617,-9.2617,-9.2617,-9.2617,-9.2617,-9.2617,-9.2617,-9.2617,-9.2617,-9.2617,-9.2617,-4.0639,-4.1485,-4.2393,-4.4662,-4.5379,-4.5673,-4.6074,-4.5908,-4.526,-4.3889,-4.5243,-4.6848,-4.7287,-4.904,-5.0622,-5.1256,-5.1851,-5.2266,-5.2266,-5.4741,-5.6537,0.0,0.0,0.0,0.0,0.0,0.0,0.0,0.0,0.0,0.0,0.0,-6.6862,-6.7253,-6.7764,-6.8423,-6.9214,-7.0926,-7.1436,-7.0815,-7.1241,-7.1494,-7.1494,-7.1494,-7.1494,-7.1513,0.0,-7.1684,-7.161,-7.1786,-7.1749,-7.1597,-7.1628,-7.1965,-7.2677,-7.4021,-7.5183,-7.6045,-7.635,-7.6469,-7.6476,-7.6553,-7.7169,-7.8015,-7.8823,-7.9708,-8.0516,-8.0977,-8.1093,-8.1093,-8.1093,-8.1093,-8.1285,-8.2093,-8.2593,-8.3285,-8.4632,-8.5209,-8.5593,-8.6017,-8.6094,-8.6094,-8.6094,-8.6209,-8.6345,-8.6472,-8.6687,-8.6809,-8.6783,-8.7811,-8.8859,-8.9607,-9.0664,-9.164,-9.2539,-9.2617,-9.2617,-9.2617,-9.2617,-9.2617,-9.2617,-9.2617,-9.2617,-9.2617,-9.2617,-9.2617,-9.2617,-9.2617,-9.2617,-9.2617,-9.2617,-9.2617,-3.9161,-4.0377,-4.2283,-4.5509,-4.6954,-4.791,-4.895,-4.9216,-4.8645,-4.6527,-4.7379,-4.8638,-4.891,-4.9498,-5.0324,-5.1519,-5.3008,-5.4062,-5.4297,0.0,0.0,0.0,0.0,0.0,0.0,0.0,0.0,0.0,0.0,0.0,0.0,0.0,-6.6992,-6.7187,-6.8457,-6.9236,-6.947,-7.0951,-7.1224,-7.0346,-7.1204,-7.1516,-7.1321,-7.1516,-7.1633,-7.1622,-7.1723,-7.1781,-7.1765,-7.1943,-7.1914,-7.1756,-7.176,-7.2103,-7.2732,-7.4229,-7.5398,-7.6264,-7.6326,-7.6438,-7.6476,-7.6169,-7.663,-7.7438,-7.8246,-7.9092,-7.9977,-8.0862,-8.1093,-8.1093,-8.1093,-8.1093,-8.1246,-8.1862,-8.217,-8.2708,-8.4247,-8.4747,-8.5132,-8.594,-8.6094,-8.6094,-8.6094,-8.6286,-8.6401,-8.6401,-8.6594,-8.6731,-8.6627,-8.7456,-8.8352,-8.9157,-9.0268,-9.1367,-9.25,-9.2617,-9.2617,-9.2617,-9.2617,-9.2617,-9.2617,-9.2617,-9.2617,-9.2617,-9.2617,-9.2617,-9.2617,-9.2617,-9.2617,-9.2617,-9.2617,-9.2617,-3.9469,-4.1623,-4.4124,-4.4393,-4.4729,-4.5992,-4.9798,-4.9051,-4.7966,-4.9257,-5.1015,-5.2577,-5.3396,-5.359,-5.3396,-5.2734,-5.3398,-5.4297,0.0,0.0,0.0,0.0,0.0,0.0,0.0,0.0,0.0,0.0,0.0,0.0,0.0,0.0,0.0,-6.8086,-6.8202,-6.8631,-6.9412,-7.0311,-7.0741,-7.0662,-7.1561,-7.1522,-7.078,-7.16,-7.1951,-7.1951,-7.1988,-7.1986,-7.1988,-7.1991,-7.1992,-7.1992,-7.199,-7.2262,-7.2789,-7.3735,-7.4504,-7.5264,-7.6236,-7.6438,-7.6322,-7.6284,-7.6746,-7.7438,-7.8246,-7.9092,-7.9977,-8.0862,-8.1093,-8.1093,-8.1093,-8.1093,-8.1093,-8.117,-8.1747,-8.2554,-8.3478,-8.4324,-8.5132,-8.594,-8.6094,-8.6094,-8.6094,-8.6132,-8.6132,-8.6132,-8.6363,-8.6434,-8.6191,-8.6621,-8.7147,-8.7774,-8.9025,-9.0586,-9.2422,-9.2617,-9.2617,-9.2617,-9.2617,-9.2617,-9.2617,-9.2617,-9.2617,-9.2617,-9.2617,-9.2617,-9.2617,-9.2617,-9.2617,-9.2617,-9.2617,-9.2617,-3.7623,-4.0162,-4.3124,-4.4701,-4.5571,-4.6781,-4.9429,-5.1018,-5.1695,-5.0782,-5.2088,-5.3516,-5.3906,-5.3555,-5.3437,-5.418,-5.3672,-5.3672,0.0,0.0,0.0,0.0,0.0,0.0,0.0,0.0,0.0,0.0,0.0,0.0,0.0,0.0,0.0,-6.8164,-6.8672,-6.9336,-7.0195,-7.1055,-7.125,-7.0703,-7.1562,-7.1836,-7.1523,-7.1836,-7.1992,-7.1992,-7.1992,-7.1992,-7.1992,-7.1992,-7.1992,-7.1992,-7.1875,-7.2241,-7.2963,-7.3582,-7.4399,-7.5293,-7.5976,-7.6245,-7.6284,-7.613,-7.6284,-7.663,-7.7476,-7.8323,-7.9169,-8.0054,-8.0669,-8.1093,-8.1093,-8.1093,-8.1093,-8.1093,-8.1323,-8.1785,-8.2593,-8.3478,-8.4324,-8.5209,-8.5747,-8.6094,-8.6094,-8.6094,-8.6094,-8.6094,-8.6209,-8.6209,-8.6094,-8.6401,-8.6884,-8.7601,-8.9376,-9.1094,-9.2461,-9.2617,-9.2617,-9.2617,-9.2617,-9.2617,-9.2617,-9.2617,-9.2617,-9.2617,-9.2617,-9.2617,-9.2617,-9.2617,-9.2617,-9.2617,-9.2617,-9.2617,-3.7199,-4.02,-4.3701,-4.4893,-4.6432,-4.8145,-4.9931,-5.1582,-5.2589,-5.1973,-5.3312,-5.4492,-5.4062,-5.3516,-5.3594,0.0,-5.4297,0.0,0.0,0.0,0.0,0.0,0.0,0.0,0.0,0.0,0.0,0.0,0.0,0.0,0.0,0.0,0.0,0.0,-6.8984,-6.9844,-7.0703,-7.1562,-7.1719,-7.1133,-7.1719,-7.1875,-7.1601,-7.1875,-7.1992,-7.1992,-7.1992,-7.1992,-7.1992,-7.1992,-7.1992,-7.1992,-7.1836,-7.2109,-7.2689,-7.3488,-7.4205,-7.4909,-7.5784,-7.613,-7.6169,-7.613,-7.6053,-7.6169,-7.7053,-7.7861,-7.8669,-7.9554,-8.0439,-8.1093,-8.1093,-8.1093,-8.1093,-8.1093,-8.1093,-8.1323,-8.2131,-8.2747,-8.3516,-8.467,-8.5363,-8.5786,-8.6055,-8.6094,-8.6094,-8.6094,-8.6094,-8.6094,-8.6094,-8.6247,-8.6709,-8.7589,-8.9379,-9.092,-9.1992,-9.2422,-9.2617,-9.2617,-9.2617,-9.2617,-9.2617,-9.2617,-9.2617,-9.2617,-9.2617,-9.2617,-9.2617,-9.2617,-9.2617,-9.2617,-9.2617,-9.2617,-3.87,-4.2393,-4.6509,-4.4778,-4.6894,-4.9856,-5.151,-5.0161,-4.9486,-5.2888,-5.5083,-5.5898,-5.4297,-5.3984,-5.4297,-5.5195,0.0,0.0,0.0,0.0,0.0,0.0,0.0,0.0,0.0,0.0,0.0,0.0,0.0,0.0,0.0,0.0,0.0,0.0,-6.9062,-6.9883,-7.0703,-7.1562,-7.1992,-7.1992,-7.1992,-7.1562,-7.0742,-7.1601,-7.1992,-7.1992,-7.1992,-7.1992,-7.1992,-7.1992,-7.1992,-7.1992,-7.1992,-7.1875,-7.1873,-7.3425,-7.3858,-7.3947,-7.5668,-7.6169,-7.6053,-7.6207,-7.6169,-7.6169,-7.7015,-7.7861,-7.8669,-7.9554,-8.0439,-8.1093,-8.1093,-8.1093,-8.1093,-8.1093,-8.1093,-8.1323,-8.2131,-8.2285,-8.2824,-8.4555,-8.4901,-8.517,-8.5978,-8.6094,-8.6094,-8.6094,-8.6094,-8.6094,-8.6094,-8.6094,-8.6517,-8.7589,-8.8732,-8.9832,-9.0897,-9.1992,-9.2617,-9.2617,-9.2617,-9.2617,-9.2617,-9.2617,-9.2617,-9.2617,-9.2617,-9.2617,-9.2617,-9.2617,-9.2617,-9.2617,-9.2617,-9.2617,-3.9623,-4.3311,-4.718,-4.6357,-4.8663,-5.1298,-5.1893,-5.1526,-5.1198,-5.1792,-5.4301,-5.5901,-5.429,-5.3984,0.0,0.0,0.0,0.0,0.0,0.0,0.0,0.0,0.0,0.0,0.0,0.0,0.0,0.0,0.0,0.0,0.0,0.0,0.0,0.0,-6.9297,-7.0117,-7.1601,-7.1875,-7.1992,-7.1992,-7.1992,-7.1875,-7.1601,-7.1875,-7.1992,-7.1992,-7.1992,-7.1992,-7.1992,-7.1992,-7.1992,-7.1992,-7.1992,-7.1953,-7.2069,-7.3503,-7.3953,-7.411,-7.5592,-7.613,-7.6207,-7.613,-7.613,-7.6207,-7.6361,-7.6976,-7.7823,-7.8631,-7.9515,-8.0323,-8.0939,-8.1093,-8.1093,-8.1093,-8.1093,-8.117,-8.14,-8.19,-8.2631,-8.3785,-8.4478,-8.517,-8.5978,-8.6094,-8.6094,-8.6094,-8.6094,-8.6094,-8.6094,-8.6094,-8.6555,-8.782,-8.8845,-8.9895,-9.109,-9.207,-9.2617,-9.2617,-9.2617,-9.2617,-9.2617,-9.2617,-9.2617,-9.2617,-9.2617,-9.2617,-9.2617,-9.2617,-9.2617,-9.2617,-9.2617,-9.2617,-4.2164,-4.5583,-4.9114,-4.9375,-5.1202,-5.2874,-5.2661,-5.2602,-5.2549,-5.2219,-5.4301,-5.5939,-5.5048,-5.4915,0.0,0.0,0.0,0.0,0.0,0.0,0.0,0.0,0.0,0.0,0.0,0.0,0.0,0.0,0.0,0.0,0.0,0.0,0.0,0.0,-6.9765,-7.0586,-7.1992,-7.1992,-7.1992,-7.1992,-7.1992,-7.1992,-7.1992,-7.1992,-7.1992,-7.1992,-7.1992,-7.1992,-7.1992,-7.1992,-7.1992,-7.1992,-7.1992,-7.1992,-7.2147,-7.3503,-7.3992,-7.4187,-7.563,-7.6207,-7.6275,-7.616,-7.6184,-7.6245,-7.6053,-7.6592,-7.7476,-7.8246,-7.9131,-8.0015,-8.0862,-8.1093,-8.1093,-8.1093,-8.1093,-8.1093,-8.1093,-8.1477,-8.2054,-8.2901,-8.3785,-8.4632,-8.5478,-8.5901,-8.6094,-8.6094,-8.6094,-8.6094,-8.6094,-8.6094,-8.6401,-8.7204,-8.8248,-8.931,-9.0438,-9.1476,-9.2226,-9.2578,-9.2617,-9.2617,-9.2617,-9.2617,-9.2617,-9.2617,-9.2617,-9.2617,-9.2617,-9.2617,-9.2617,-9.2617,-9.2617,-9.2617,-4.5515,-4.8345,-5.152,-5.285,-5.3895,-5.4434,-5.3776,-5.3601,-5.3552,-5.3418,-5.4737,-5.5938,-5.5979,-5.6173,0.0,0.0,0.0,0.0,0.0,0.0,0.0,0.0,0.0,0.0,0.0,0.0,0.0,0.0,0.0,0.0,0.0,0.0,0.0,-6.957,-7.0312,-7.1133,-7.1992,-7.1992,-7.1992,-7.1992,-7.1992,-7.1992,-7.1992,-7.1992,-7.1992,-7.1992,-7.1992,-7.1992,-7.1992,-7.1992,-7.1992,-7.1992,-7.1992,-7.203,-7.2245,-7.352,-7.4031,-7.4303,-7.5784,-7.6303,-7.6299,-7.6295,-7.6287,-7.6284,-7.6053,-7.6553,-7.7361,-7.8246,-7.9054,-7.99,-8.0862,-8.1093,-8.1093,-8.1093,-8.1093,-8.1093,-8.1093,-8.1093,-8.1323,-8.2131,-8.2939,-8.3785,-8.4747,-8.5517,-8.6017,-8.6094,-8.6094,-8.6094,-8.6094,-8.6094,-8.6094,-8.6132,-8.7304,-8.8473,-8.9333,-9.0588,-9.1679,-9.2539,-9.2617,-9.2617,-9.2617,-9.2617,-9.2617,-9.2617,-9.2617,-9.2617,-9.2617,-9.2617,-9.2617,-9.2617,-9.2617,-9.2617,-4.5774,-4.8197,-5.0818,-5.2717,-5.4318,-5.5395,-5.5241,-5.5182,-5.4511,-5.205,-5.3995,-5.5711,-5.442,0.0,0.0,0.0,0.0,0.0,0.0,0.0,0.0,0.0,0.0,0.0,0.0,0.0,0.0,0.0,0.0,0.0,0.0,0.0,0.0,-7.0351,-7.0625,-7.1133,-7.1992,-7.1992,-7.1992,0.0,-7.1992,-7.1992,-7.1992,-7.1992,-7.1992,-7.1992,-7.1992,-7.1992,-7.1992,-7.1992,-7.1992,-7.1992,-7.1992,-7.2335,-7.2877,-7.3712,-7.4302,-7.4909,-7.5784,-7.6273,-7.6477,-7.616,-7.6255,-7.6438,-7.6092,-7.613,-7.6592,-7.8092,-7.8631,-7.9131,-8.0708,-8.1093,-8.1093,-8.1093,-8.1093,-8.1093,-8.1093,-8.1093,-8.1323,-8.2131,-8.2439,-8.3054,-8.4632,-8.5055,-8.5363,-8.6017,-8.6094,-8.6094,-8.6094,-8.6094,-8.617,-8.6401,-8.7442,-8.8506,-8.9539,-9.0662,-9.1679,-9.2539,-9.2617,-9.2617,-9.2617,-9.2617,-9.2617,-9.2617,-9.2617,-9.2617,-9.2617,-9.2617,-9.2617,-9.2617,-9.2617,-9.2617,-4.7259,-4.9258,-5.1276,-5.3755,-5.5049,-5.5703,-5.5703,-5.5703,-5.5241,-5.3601,-5.472,-5.5665,0.0,0.0,0.0,0.0,0.0,0.0,0.0,0.0,0.0,0.0,0.0,0.0,0.0,0.0,0.0,0.0,0.0,0.0,0.0,-6.6875,-6.789,-7.0,-7.0469,-7.1133,-7.1992,-7.2002,-7.1939,-7.1862,-7.1967,-7.1963,-7.1874,-7.1967,-7.1958,-7.1874,-7.1971,-7.1906,-7.1767,-7.1844,-7.1827,-7.1774,-7.1774,-7.2212,-7.2938,-7.3601,-7.4422,-7.5216,-7.5899,-7.634,-7.6544,-7.6233,-7.6284,-7.6399,-7.6092,-7.6015,-7.6361,-7.8015,-7.8477,-7.89,-8.0631,-8.1093,-8.1093,-8.1093,-8.1093,-8.1093,-8.1093,-8.1093,-8.1208,-8.1631,-8.2054,-8.2708,-8.4055,-8.4939,-8.5632,-8.6055,-8.6094,-8.6094,-8.6094,-8.6094,-8.617,-8.6286,-8.7012,-8.7874,-8.8843,-8.9638,-9.0625,-9.1914,-9.1992,-9.2148,-9.2578,-9.2617,-9.2617,-9.2617,-9.2617,-9.2617,-9.2617,-9.2617,-9.2617,-9.2617,-9.2617,-9.2617,-4.7966,-5.0078,-5.2141,-5.4984,-5.5703,-5.5703,-5.5703,-5.5703,-5.5703,-5.5703,-5.5703,0.0,0.0,0.0,0.0,0.0,0.0,0.0,0.0,0.0,0.0,0.0,0.0,0.0,0.0,0.0,0.0,0.0,0.0,0.0,-6.55,-6.6203,-6.7414,-6.925,-7.0148,-7.0968,-7.1671,-7.1819,-7.1839,-7.1684,-7.1819,-7.1838,-7.167,-7.1856,-7.1821,-7.1695,-7.1827,-7.1776,-7.1496,-7.1603,-7.1572,-7.1497,-7.1497,-7.2064,-7.2983,-7.3549,-7.4447,-7.5553,-7.6129,-7.6409,-7.6544,-7.6284,-7.6245,-7.6245,-7.6053,-7.6015,-7.6361,-7.8015,-7.8477,-7.89,-8.0631,-8.1093,-8.1093,-8.1093,-8.1093,-8.1093,-8.1093,-8.1093,-8.1093,-8.1093,-8.1862,-8.2747,-8.3478,-8.4978,-8.6094,-8.6094,-8.6094,-8.6094,-8.6094,-8.6094,-8.6094,-8.6094,-8.6517,-8.7128,-8.8027,-8.8468,-8.9453,-9.1172,-9.1289,-9.1679,-9.2578,-9.2617,-9.2617,-9.2617,-9.2617,-9.2617,-9.2617,-9.2617,-9.2617,-9.2617,-9.2617,-9.2617,-4.4776,-4.8567,-5.2576,-5.5066,-5.5703,-5.5703,-5.5703,-5.5703,-5.5703,0.0,0.0,0.0,0.0,0.0,0.0,0.0,0.0,0.0,0.0,0.0,0.0,0.0,0.0,0.0,0.0,0.0,0.0,0.0,0.0,0.0,-6.6124,-6.5667,-6.6446,-6.8883,-6.9796,-7.0329,-7.0458,-7.1184,-7.1552,-7.1529,-7.155,-7.1537,-7.1513,-7.1528,-7.157,-7.1552,-7.1567,-7.1533,-7.1496,-7.1525,-7.1518,-7.1519,-7.1519,-7.2444,-7.3844,-7.3927,-7.4899,-7.6188,-7.6289,-7.6326,-7.6284,-7.6092,-7.6169,-7.6245,-7.6053,-7.6015,-7.6361,-7.8015,-7.8477,-7.89,-8.0631,-8.1093,-8.1093,-8.1093,-8.1093,-8.1093,-8.1093,-8.1093,-8.1093,-8.1093,-8.2362,-8.3439,-8.3555,-8.4978,-8.6094,-8.6094,-8.6094,-8.6094,-8.6094,-8.6094,-8.6094,-8.6094,-8.6517,-8.7128,-8.8027,-8.8468,-8.9453,-9.1172,-9.1289,-9.1679,-9.2578,-9.2617,-9.2617,-9.2617,-9.2617,-9.2617,-9.2617,-9.2617,-9.2617,-9.2617,-9.2617,-9.2617,-4.4622,-4.8662,-5.2444,-5.4007,-5.5066,-5.5703,-5.5703,-5.5703,-5.5703,-5.5703,0.0,0.0,0.0,0.0,0.0,0.0,0.0,0.0,0.0,0.0,0.0,0.0,0.0,0.0,0.0,0.0,0.0,0.0,0.0,-6.2635,-6.4716,-6.4542,-6.5548,-6.8142,-6.9051,-6.9688,-7.0191,-7.1042,-7.1489,-7.1489,-7.1412,-7.1334,-7.1313,-7.1326,-7.1351,-7.1352,-7.148,-7.1351,-7.1197,-7.13,-7.1245,-7.1206,-7.1706,-7.2629,-7.3783,-7.4245,-7.5208,-7.6297,-7.6146,-7.621,-7.6245,-7.6053,-7.6053,-7.613,-7.6015,-7.6015,-7.6361,-7.8015,-7.8477,-7.89,-8.0631,-8.1093,-8.1093,-8.1093,-8.1093,-8.1093,-8.1093,-8.1093,-8.1093,-8.1093,-8.2054,-8.3016,-8.3516,-8.4632,-8.5593,-8.6017,-8.6094,-8.6094,-8.6094,-8.6094,-8.6094,-8.6094,-8.6401,-8.6819,-8.7327,-8.7648,-8.8398,-8.9765,-9.0312,-9.0976,-9.1836,-9.2344,-9.2617,-9.2617,-9.2617,-9.2617,-9.2617,-9.2617,-9.2617,-9.2617,-9.2617,-9.2617,-4.5046,-4.8222,-5.1018,-5.2933,-5.4276,-5.522,-5.5626,-5.5703,-5.5703,0.0,0.0,0.0,0.0,0.0,0.0,0.0,0.0,0.0,0.0,0.0,0.0,0.0,0.0,0.0,0.0,0.0,0.0,0.0,0.0,-6.1728,-6.3421,-6.3603,-6.4757,-6.7179,-6.8039,-6.8859,-6.9717,-7.0821,-7.1349,-7.1349,-7.1206,-7.1129,-7.1129,-7.1129,-7.1129,-7.1129,-7.1283,-7.1168,-7.0898,-7.1052,-7.1052,-7.0975,-7.186,-7.2745,-7.3668,-7.4476,-7.5414,-7.6289,-7.6156,-7.613,-7.6207,-7.6053,-7.6015,-7.6015,-7.6015,-7.6015,-7.6361,-7.8015,-7.8477,-7.89,-8.0631,-8.1093,-8.1093,-8.1093,-8.1093,-8.1093,-8.1093,-8.1093,-8.1093,-8.1093,-8.1747,-8.2593,-8.3439,-8.4324,-8.517,-8.5978,-8.6094,-8.6094,-8.6094,-8.6094,-8.6094,-8.6094,-8.6324,-8.6577,-8.6782,-8.6995,-8.7578,-8.8633,-8.9531,-9.039,-9.125,-9.2148,-9.2617,-9.2617,-9.2617,-9.2617,-9.2617,-9.2617,-9.2617,-9.2617,-9.2617,-9.2617,-4.5195,-4.6249,-4.7537,-5.2239,-5.3447,-5.3891,-5.5395,-5.5703,-5.5703,0.0,0.0,0.0,0.0,0.0,0.0,0.0,0.0,0.0,0.0,0.0,0.0,0.0,0.0,0.0,0.0,0.0,0.0,0.0,0.0,-6.155,-6.3243,-6.332,-6.4166,-6.5936,-6.6782,-6.759,-6.8513,-7.0129,-7.0937,-7.0937,-7.0937,-7.0937,-7.0937,-7.0937,-7.0937,-7.0937,-7.0937,-7.0937,-7.0898,-7.0898,-7.0898,-7.0975,-7.186,-7.286,-7.3899,-7.4668,-7.5543,-7.6303,-7.6313,-7.6169,-7.6015,-7.6015,-7.6015,-7.6015,-7.6015,-7.6015,-7.6361,-7.8015,-7.8477,-7.89,-8.0631,-8.1093,-8.1093,-8.1093,-8.1093,-8.1093,-8.1093,-8.1093,-8.1093,-8.1093,-8.1747,-8.2593,-8.3439,-8.4324,-8.517,-8.5978,-8.6094,-8.6094,-8.6094,-8.6094,-8.6094,-8.6094,-8.6324,-8.6588,-8.6775,-8.6962,-8.7578,-8.8633,-8.9531,-9.039,-9.125,-9.2148,-9.2617,-9.2617,-9.2617,-9.2617,-9.2617,-9.2617,-9.2617,-9.2617,-9.2617,-9.2617,-4.3281,-4.4883,-4.6676,-4.8977,-5.0695,-5.1984,-5.2431,-5.343,-5.4353,0.0,0.0,0.0,0.0,0.0,0.0,0.0,0.0,0.0,0.0,0.0,0.0,0.0,0.0,0.0,0.0,0.0,0.0,0.0,0.0,0.0,-6.3205,-6.332,-6.4089,-6.582,-6.6667,-6.7782,-6.9206,-6.9821,-7.0398,-7.0898,-7.0898,-7.0898,-7.0898,-7.0898,-7.0898,-7.0898,-7.0898,-7.0898,-7.0898,-7.0898,-7.0898,-7.0975,-7.186,-7.2783,-7.3707,-7.4514,-7.5361,-7.6092,-7.6092,-7.6053,-7.6015,-7.6015,-7.6015,-7.6015,-7.6015,-7.6015,-7.6361,-7.8015,-7.8477,-7.89,-8.0631,-8.1093,-8.1093,-8.1093,-8.1093,-8.1093,-8.1093,-8.1093,-8.1093,-8.1093,-8.1323,-8.1785,-8.2631,-8.3478,-8.4362,-8.5209,-8.5786,-8.6094,-8.6094,-8.6094,-8.6094,-8.6094,-8.6324,-8.6555,-8.6781,-8.6972,-8.7347,-8.789,-8.8711,-8.957,-9.0429,-9.1289,-9.2031,-9.2578,-9.2617,-9.2617,-9.2617,-9.2617,-9.2617,-9.2617,-9.2617,-9.2617,-4.2617,-4.4258,-4.6055,-4.7461,-4.9028,-5.0332,-5.0764,-5.2396,-5.393,0.0,0.0,0.0,0.0,0.0,0.0,0.0,0.0,0.0,0.0,0.0,0.0,0.0,0.0,0.0,0.0,0.0,0.0,0.0,0.0,0.0,-6.3205,-6.332,-6.4089,-6.582,-6.6667,-6.7667,-6.8821,-6.9398,-6.9975,-7.0514,-7.0783,-7.0898,-7.0898,-7.0898,-7.0898,-7.0898,-7.0898,-7.0898,-7.0898,-7.0898,-7.0898,-7.0975,-7.186,-7.2745,-7.3591,-7.4399,-7.5245,-7.6015,-7.6015,-7.6015,-7.6015,-7.6015,-7.6015,-7.6015,-7.6015,-7.6015,-7.6361,-7.8015,-7.8477,-7.89,-8.0631,-8.1093,-8.1093,-8.1093,-8.1093,-8.1093,-8.1093,-8.1093,-8.1093,-8.1093,-8.1093,-8.1439,-8.2554,-8.3208,-8.3978,-8.5132,-8.5747,-8.6094,-8.6094,-8.6094,-8.6094,-8.6094,-8.6247,-8.6492,-8.6799,-8.6942,-8.7157,-8.7498,-8.8242,-8.9101,-8.9961,-9.0859,-9.1719,-9.2578,-9.2617,-9.2617,-9.2617,-9.2617,-9.2617,-9.2617,-9.2617,-9.2617,0.0,0.0,0.0,-4.7969,-4.8594,-4.9016,-5.0586,0.0,0.0,0.0,0.0,0.0,0.0,0.0,0.0,0.0,0.0,0.0,0.0,0.0,0.0,0.0,0.0,0.0,0.0,0.0,0.0,0.0,0.0,-6.1512,-6.3166,-6.332,-6.4128,-6.5859,-6.6667,-6.709,-6.709,-6.8783,-6.9667,-6.9706,-7.0514,-7.0898,-7.0898,-7.0898,-7.0898,-7.0898,-7.086,-7.086,-7.086,-7.0898,-7.0898,-7.0975,-7.1822,-7.2706,-7.3591,-7.4399,-7.5245,-7.6015,-7.6015,-7.6015,-7.6015,-7.6015,-7.6015,-7.6015,-7.6015,-7.6015,-7.6361,-7.8015,-7.8477,-7.89,-8.0631,-8.1093,-8.1093,-8.1093,-8.1093,-8.1093,-8.1093,-8.1093,-8.1093,-8.1093,-8.1093,-8.1631,-8.3247,-8.3555,-8.4132,-8.5786,-8.6055,-8.6094,-8.6094,-8.6094,-8.6094,-8.6094,-8.6094,-8.6288,-8.6765,-8.6817,-8.7025,-8.746,-8.8242,-8.9062,-8.9922,-9.0781,-9.164,-9.2539,-9.2578,-9.2578,-9.2617,-9.2617,-9.2617,-9.2617,-9.2617,-9.2617,-4.2539,0.0,0.0,0.0,0.0,0.0,0.0,0.0,0.0,0.0,0.0,0.0,0.0,0.0,0.0,0.0,0.0,0.0,0.0,0.0,0.0,0.0,0.0,0.0,0.0,0.0,0.0,0.0,-6.0781,-6.1281,-6.2358,-6.3589,-6.4743,-6.5859,-6.6128,-6.6513,-6.709,-6.8205,-6.909,-6.9706,-7.0514,-7.0898,-7.0898,-7.0898,-7.0898,-7.086,-7.0283,-7.0014,-7.009,-7.0667,-7.0898,-7.0937,-7.1168,-7.2168,-7.3553,-7.3745,-7.4745,-7.6015,-7.6015,-7.6015,-7.6015,-7.6015,-7.6015,-7.6015,-7.6015,-7.6015,-7.6361,-7.8015,-7.8477,-7.89,-8.0631,-8.1093,-8.1093,-8.1093,-8.1093,-8.1093,-8.1093,-8.1093,-8.1093,-8.1093,-8.1093,-8.1246,-8.1708,-8.2785,-8.3747,-8.4209,-8.5324,-8.6094,-8.6094,-8.6094,-8.6094,-8.6094,-8.6286,-8.6499,-8.6781,-8.6922,-8.7174,-8.7461,-8.7695,-8.8203,-8.9023,-8.9297,-9.0117,-9.164,-9.164,-9.1953,-9.2617,-9.2617,-9.2617,-9.2617,-9.2617,-9.2617,-4.2734,-4.3594,-4.4453,-4.5312,0.0,0.0,-4.793,-4.9023,0.0,0.0,0.0,0.0,0.0,0.0,0.0,0.0,0.0,0.0,0.0,0.0,0.0,0.0,0.0,0.0,0.0,0.0,0.0,-6.0742,-6.0781,-6.132,-6.2551,-6.3858,-6.5013,-6.5859,-6.5897,-6.6128,-6.659,-6.7436,-6.8129,-6.8629,-6.9821,-7.0206,-6.986,-7.0244,-7.0206,-6.9821,-6.936,-6.9167,-6.9206,-6.9667,-6.986,-6.9937,-7.0629,-7.1745,-7.3014,-7.336,-7.4553,-7.6015,-7.6015,-7.6015,-7.6015,-7.6015,-7.6015,-7.6015,-7.6015,-7.6015,-7.6284,-7.763,-7.8515,-7.9361,-8.0746,-8.1093,-8.1093,-8.1093,-8.1093,-8.1093,-8.1093,-8.1093,-8.1093,-8.1093,-8.1093,-8.1208,-8.1554,-8.2708,-8.3708,-8.4093,-8.5247,-8.6094,-8.6094,-8.6094,-8.6094,-8.6094,-8.6247,-8.644,-8.6781,-8.6917,-8.7118,-8.7461,-8.75,-8.7851,-8.8672,-8.8711,-8.9531,-9.1289,-9.1289,-9.1719,-9.2617,-9.2617,-9.2617,-9.2617,-9.2617,-9.2617,-4.3476,-4.4336,-4.5195,-4.6094,-4.6289,0.0,-4.7539,-4.9258,0.0,0.0,0.0,0.0,0.0,0.0,0.0,0.0,0.0,0.0,0.0,0.0,0.0,0.0,0.0,0.0,0.0,-5.9088,-5.9858,-6.0742,-6.0781,-6.1473,-6.3089,-6.3974,-6.4859,-6.5743,-6.5859,-6.5897,-6.5897,-6.6705,-6.709,-6.7128,-6.8783,-6.9167,-6.8436,-6.9206,-6.9129,-6.8398,-6.8321,-6.8282,-6.8282,-6.8282,-6.8321,-6.8552,-7.0052,-7.1206,-7.2168,-7.3053,-7.4437,-7.5861,-7.5976,-7.6015,-7.6015,-7.6015,-7.6015,-7.6015,-7.6015,-7.6015,-7.6169,-7.7053,-7.8515,-7.9977,-8.0746,-8.1016,-8.1093,-8.1093,-8.1093,-8.1093,-8.1093,-8.1093,-8.1093,-8.1093,-8.1093,-8.1323,-8.2054,-8.2939,-8.3862,-8.4632,-8.5517,-8.6094,-8.6094,-8.6094,-8.6094,-8.6094,-8.6094,-8.6286,-8.6781,-8.6793,-8.7013,-8.746,-8.75,-8.7812,-8.8554,-8.8554,-8.9336,-9.0976,-9.1172,-9.1719,-9.2617,-9.2617,-9.2617,-9.2617,-9.2617,-9.2617,-4.3633,-4.4336,-4.5195,-4.6094,-4.6289,0.0,-4.8281,-4.793,0.0,0.0,0.0,0.0,0.0,0.0,0.0,0.0,0.0,0.0,0.0,0.0,0.0,0.0,0.0,0.0,0.0,-5.9396,-5.9858,-6.0742,-6.0781,-6.1243,-6.2281,-6.3128,-6.3935,-6.482,-6.5513,-6.5897,-6.5897,-6.6705,-6.709,-6.709,-6.8167,-6.8552,-6.8398,-6.859,-6.8552,-6.8359,-6.7667,-6.7359,-6.7359,-6.7359,-6.7782,-6.8436,-6.8783,-6.9821,-7.1245,-7.2129,-7.3514,-7.5053,-7.5745,-7.6015,-7.6015,-7.6015,-7.6015,-7.6015,-7.6015,-7.6015,-7.6169,-7.7053,-7.8515,-7.9862,-8.0015,-8.0554,-8.1093,-8.1093,-8.1093,-8.1093,-8.1093,-8.1093,-8.1093,-8.1093,-8.1093,-8.1131,-8.1323,-8.2593,-8.367,-8.3824,-8.5132,-8.6094,-8.6094,-8.6094,-8.6094,-8.6094,-8.6094,-8.6286,-8.6781,-8.6793,-8.7013,-8.746,-8.75,-8.7578,-8.7734,-8.7734,-8.8203,-8.9179,-9.0351,-9.1523,-9.2617,-9.2617,-9.2617,-9.2617,-9.2617,-9.2617,-4.3594,-4.4023,-4.4687,-4.5976,-4.6289,0.0,0.0,0.0,0.0,0.0,0.0,0.0,0.0,0.0,0.0,0.0,0.0,0.0,0.0,0.0,0.0,0.0,0.0,0.0,0.0,-6.0165,-6.0319,-6.0781,-6.0597,-6.0992,-6.2295,-6.2716,-6.3521,-6.4824,-6.5551,-6.5897,-6.5897,-6.6282,-6.6513,-6.6513,-6.7359,-6.7552,-6.7167,-6.759,-6.7513,-6.7128,-6.6705,-6.6513,-6.6513,-6.6513,-6.6744,-6.7244,-6.809,-6.9167,-7.0398,-7.1245,-7.2899,-7.4784,-7.5207,-7.563,-7.6015,-7.6015,-7.6015,-7.6015,-7.6015,-7.6015,-7.6169,-7.7053,-7.8169,-7.9246,-7.9708,-8.0439,-8.1093,-8.1093,-8.1093,-8.1093,-8.1093,-8.1093,-8.1093,-8.1093,-8.1093,-8.1093,-8.1093,-8.2131,-8.3093,-8.3516,-8.467,-8.567,-8.6055,-8.6094,-8.6094,-8.6094,-8.6094,-8.6247,-8.6594,-8.6754,-8.6935,-8.7265,-8.7422,-8.75,-8.75,-8.75,-8.7969,-8.8945,-9.0234,-9.1445,-9.2617,-9.2617,-9.2617,-9.2617,-9.2617,-9.2617,-4.3771,-4.4036,-4.4507,-4.5889,-4.6248,-4.6445,0.0,0.0,0.0,0.0,0.0,0.0,0.0,0.0,0.0,0.0,0.0,0.0,0.0,0.0,0.0,0.0,0.0,0.0,0.0,-6.0396,-6.0627,-6.0781,-6.0212,-6.0599,-6.2247,-6.2414,-6.3144,-6.4666,-6.5312,-6.5608,-6.5608,-6.5608,-6.5608,-6.5635,-6.6288,-6.6249,-6.5635,-6.6381,-6.6331,-6.5755,-6.5872,-6.5897,-6.5897,-6.5897,-6.5897,-6.6013,-6.7398,-6.8436,-6.9321,-7.0321,-7.2168,-7.4245,-7.4591,-7.5284,-7.6015,-7.6015,-7.6015,-7.6015,-7.6015,-7.6015,-7.613,-7.6861,-7.763,-7.8477,-7.9323,-8.0208,-8.09,-8.1054,-8.1093,-8.1093,-8.1093,-8.1093,-8.1093,-8.1093,-8.1093,-8.1093,-8.1093,-8.1785,-8.2593,-8.3478,-8.4324,-8.5209,-8.6017,-8.6094,-8.6094,-8.6094,-8.6094,-8.6209,-8.6478,-8.6635,-8.6831,-8.7069,-8.7304,-8.7461,-8.75,-8.75,-8.8047,-8.9179,-8.9883,-9.1015,-9.2617,-9.2617,-9.2617,-9.2617,-9.2617,-9.2617,-4.4899,-4.5233,-4.5863,-4.5948,-4.6023,-4.6133,-4.625,0.0,-4.6523,-4.6836,0.0,0.0,0.0,0.0,0.0,0.0,0.0,0.0,0.0,0.0,0.0,0.0,0.0,0.0,0.0,0.0,-5.9973,-6.0742,-5.9676,-5.9655,-6.137,-6.178,-6.2405,-6.3311,-6.414,-6.4554,-6.4554,-6.4554,-6.4554,-6.4554,-6.4668,-6.4668,-6.4592,-6.5079,-6.5276,-6.523,-6.569,-6.5897,-6.5897,-6.5897,-6.5897,-6.5897,-6.609,-6.6667,-6.759,-6.9244,-7.0975,-7.2706,-7.4168,-7.5284,-7.6015,-7.6015,-7.6015,-7.6015,-7.6015,-7.6015,-7.6015,-7.613,-7.6784,-7.763,-7.8438,-7.9285,-8.0131,-8.0939,-8.1093,-8.1093,-8.1093,-8.1093,-8.1093,-8.1093,-8.1093,-8.1093,-8.1093,-8.1785,-8.2593,-8.3478,-8.4324,-8.5209,-8.6017,-8.6094,-8.6094,-8.6094,-8.6094,-8.6209,-8.6478,-8.6538,-8.6699,-8.7068,-8.7148,-8.7265,-8.75,-8.75,-8.8047,-8.9179,-8.832,-8.9453,-9.2617,-9.2617,-9.2617,-9.2617,-9.2617,-9.2617,-4.5297,-4.6436,-4.7471,-4.741,-4.7854,-4.7929,-4.644,-4.6211,-4.6289,-4.6289,0.0,0.0,0.0,0.0,0.0,0.0,-4.7578,0.0,0.0,0.0,0.0,0.0,0.0,0.0,0.0,0.0,0.0,0.0,0.0,-5.8394,-6.0762,-6.1536,-6.2372,-6.3372,-6.4066,-6.437,-6.437,-6.437,-6.437,-6.437,-6.437,-6.437,-6.4407,-6.459,-6.4696,-6.4696,-6.4938,-6.5168,-6.5446,-6.5446,-6.5597,-6.5897,-6.5897,-6.6397,-6.7244,-6.8475,-7.0321,-7.236,-7.3591,-7.4899,-7.6015,-7.6015,-7.6015,-7.6015,-7.6015,-7.6015,-7.6015,-7.6015,-7.663,-7.7361,-7.7707,-7.8784,-7.99,-8.0246,-8.0746,-8.1093,-8.1093,-8.1093,-8.1093,-8.1093,-8.1093,-8.1093,-8.1093,-8.1362,-8.19,-8.2708,-8.317,-8.3862,-8.5247,-8.5401,-8.5593,-8.6055,-8.6094,-8.617,-8.6247,-8.6401,-8.6559,-8.6749,-8.6971,-8.7226,-8.75,-8.75,-8.7734,-8.8203,-8.7734,-8.8203,-8.9648,-9.164,-9.2617,-9.2617,-9.2617,-9.2617,-4.6926,-4.7841,-4.8548,-4.897,-4.8947,-4.843,-4.706,-4.6521,-4.6289,-4.6289,-4.6289,0.0,0.0,0.0,-4.6289,-4.6289,0.0,-4.7031,0.0,0.0,0.0,0.0,0.0,0.0,0.0,0.0,0.0,0.0,0.0,0.0,-6.0282,-6.1016,-6.1914,-6.3221,-6.3701,-6.3937,-6.3937,-6.3937,-6.3937,-6.3937,-6.3937,-6.3937,-6.3937,-6.4099,-6.4178,-6.4178,-6.4332,-6.459,-6.49,-6.5067,-6.5321,-6.569,-6.5833,-6.6244,-6.6859,-6.7744,-6.9513,-7.1629,-7.2476,-7.4053,-7.5668,-7.5938,-7.6015,-7.6015,-7.6015,-7.6015,-7.6015,-7.6015,-7.6476,-7.6976,-7.7246,-7.8361,-7.9515,-7.9746,-8.0477,-8.1093,-8.1093,-8.09,-8.0823,-8.1054,-8.0708,-8.0554,-8.1016,-8.1093,-8.1362,-8.217,-8.2285,-8.2824,-8.4362,-8.4555,-8.4863,-8.567,-8.5786,-8.5863,-8.6094,-8.6286,-8.644,-8.6555,-8.6923,-8.7226,-8.75,-8.75,-8.75,-8.75,-8.75,-8.75,-8.75,-9.0937,-9.2617,-9.2617,-9.2617,-9.2617,-5.0664,-4.949,-4.8683,-5.024,-4.8297,-4.6468,-4.8069,-4.7307,-4.6289,-4.6289,-4.6289,-4.6289,-4.6289,-4.6289,-4.6289,-4.6289,-4.6328,0.0,0.0,0.0,0.0,0.0,0.0,0.0,0.0,0.0,0.0,0.0,0.0,0.0,-5.9778,-6.0003,-6.072,-6.2284,-6.2667,-6.2855,-6.2855,-6.2855,-6.2855,-6.2855,-6.2855,-6.2855,-6.2855,-6.3363,-6.3631,-6.3637,-6.4178,-6.4407,-6.4444,-6.49,-6.513,-6.5161,-6.569,-6.5897,-6.6051,-6.6821,-6.8244,-6.9898,-7.0706,-7.2629,-7.4899,-7.5745,-7.6015,-7.6015,-7.6015,-7.6015,-7.6015,-7.6015,-7.6015,-7.6245,-7.7092,-7.79,-7.8746,-7.9592,-8.0477,-8.1093,-8.1093,-8.0439,-8.0092,-8.0939,-7.9746,-7.9131,-8.0823,-8.1093,-8.1362,-8.217,-8.2285,-8.2631,-8.3516,-8.3632,-8.3978,-8.4863,-8.4939,-8.5247,-8.6017,-8.6094,-8.6324,-8.6781,-8.7001,-8.7226,-8.75,-8.75,-8.75,-8.75,-8.75,-8.75,-8.75,-9.0937,-9.2617,-9.2617,-9.2617,-9.2617,0.0,0.0,-5.3933,-5.3356,-5.2049,-5.0411,-4.8747,-4.7159,-4.6045,-4.6131,-4.6111,-4.6395,-4.7663,-4.6937,-4.6562,-4.7695,-4.6992,-4.6289,0.0,0.0,0.0,0.0,0.0,0.0,0.0,0.0,0.0,0.0,0.0,0.0,0.0,-5.969,-6.0678,-6.2247,-6.2443,-6.2567,-6.2805,-6.2805,-6.2805,-6.2805,-6.2805,-6.2805,-6.2805,-6.2965,-6.3062,-6.311,-6.3224,-6.3505,-6.3892,-6.4059,-6.4518,-6.513,-6.5291,-6.5569,-6.6013,-6.6782,-6.8205,-6.9975,-7.1937,-7.3168,-7.4053,-7.4861,-7.513,-7.5245,-7.5822,-7.5245,-7.4591,-7.5707,-7.5592,-7.5361,-7.6207,-7.7438,-7.8554,-7.8861,-8.0054,-8.1093,-8.1093,-8.0439,-7.99,-8.0169,-7.9285,-7.8861,-8.0054,-8.0246,-8.0516,-8.1362,-8.1016,-8.0977,-8.1823,-8.1439,-8.1631,-8.3016,-8.3708,-8.4362,-8.5247,-8.594,-8.6478,-8.6781,-8.6984,-8.7215,-8.75,-8.75,-8.75,-8.75,-8.75,-8.75,-8.75,-8.8672,-9.039,-9.2617,-9.2617,-9.2617,-5.4357,-5.5511,0.0,-5.5972,-5.4857,0.0,-5.1409,-4.9769,-4.8615,-4.8716,-4.7704,-4.7462,-4.9605,-4.7856,-4.656,-4.8006,-4.7148,-4.6289,0.0,-4.6289,0.0,0.0,0.0,0.0,0.0,0.0,0.0,0.0,0.0,0.0,0.0,0.0,-6.0893,-6.2785,-6.2963,-6.3035,-6.3073,-6.3073,-6.2965,-6.2805,-6.2805,-6.2805,-6.2805,-6.2805,-6.2805,-6.2805,-6.2805,-6.3014,-6.3317,-6.3543,-6.3978,-6.459,-6.4765,-6.5168,-6.5701,-6.6384,-6.7744,-6.9513,-7.1475,-7.2745,-7.3591,-7.4091,-7.4668,-7.5207,-7.5476,-7.4784,-7.4168,-7.5245,-7.513,-7.4899,-7.5784,-7.7015,-7.8054,-7.8054,-7.94,-8.0554,-8.0246,-7.9746,-7.9438,-7.9746,-7.8592,-7.8092,-7.9554,-7.9323,-7.9285,-8.0477,-8.0169,-7.99,-8.0131,-7.9708,-7.9862,-8.1246,-8.217,-8.317,-8.4324,-8.5632,-8.6338,-8.6362,-8.644,-8.6826,-8.746,-8.75,-8.75,-8.75,-8.75,-8.75,-8.75,-8.75,-8.8633,-9.082,-9.2031,-9.2617]}]]